[[{"header":{"parameterUnit":"m.s-1","parameterCategory":1,"la1":30.6,"la2":28.766,"lo1":-90.7593,"lo2":-88.6598,"dy":0.0162,"dx":0.0183,"nx":116,"ny":114,"refTime":"2023-09-01T06:00:00:Z","depth":0,"parameterNumber":2,"parameterNumberName":"U-component_of_WINDS"},"data":[0.0,0.0,0.0,0.0,0.0,0.0,0.0,0.0,0.0,0.0,0.0,0.0,0.0,0.0,0.0,0.0,0.0,0.0,0.0,0.0,0.0,0.0,0.0,0.0,0.0,0.0,0.0,0.0,0.0,0.0,0.0,0.0,0.0,0.0,0.0,0.0,0.0,0.0,0.0,0.0,0.0,0.0,0.0,0.0,0.0,0.0,0.0,0.0,0.0,0.0,0.0,0.0,0.0,0.0,0.0,0.0,0.0,0.0,0.0,0.0,0.0,0.0,0.0,0.0,0.0,0.0,0.0,0.0,0.0,0.0,0.0,0.0,0.0,0.0,0.0,0.0,0.0,0.0,0.0,0.0,0.0,0.0,0.0,0.0,0.0,0.0,0.0,0.0,0.0,0.0,0.0,0.0,0.0,0.0,0.0,0.0,0.0,0.0,0.0,0.0,0.0,0.0,0.0,0.0,0.0,0.0,0.0,0.0,0.0,0.0,0.0,0.0,0.0,0.0,0.0,0.0,0.0,0.0,0.0,0.0,0.0,0.0,0.0,0.0,0.0,0.0,0.0,0.0,0.0,0.0,0.0,0.0,0.0,0.0,0.0,0.0,0.0,0.0,0.0,0.0,0.0,0.0,0.0,0.0,0.0,0.0,0.0,0.0,0.0,0.0,0.0,0.0,0.0,0.0,0.0,0.0,0.0,0.0,0.0,0.0,0.0,0.0,0.0,0.0,0.0,0.0,0.0,0.0,0.0,0.0,0.0,0.0,0.0,0.0,0.0,0.0,0.0,0.0,0.0,0.0,0.0,0.0,0.0,0.0,0.0,0.0,0.0,0.0,0.0,0.0,0.0,0.0,0.0,0.0,0.0,0.0,0.0,0.0,0.0,0.0,0.0,0.0,0.0,0.0,0.0,0.0,0.0,0.0,0.0,0.0,0.0,0.0,0.0,0.0,0.0,0.0,0.0,0.0,0.0,0.0,0.0,0.0,0.0,0.0,0.0,0.0,0.0,0.0,0.0,0.0,0.0,0.0,0.0,0.0,0.0,0.0,0.0,0.0,0.0,0.0,0.0,0.0,0.0,0.0,0.0,0.0,0.0,0.0,0.0,0.0,0.0,0.0,0.0,0.0,0.0,0.0,0.0,0.0,0.0,0.0,0.0,0.0,0.0,0.0,0.0,0.0,0.0,0.0,0.0,0.0,0.0,0.0,0.0,0.0,0.0,0.0,0.0,0.0,0.0,0.0,0.0,0.0,0.0,0.0,0.0,0.0,0.0,0.0,0.0,0.0,0.0,0.0,0.0,0.0,0.0,0.0,0.0,0.0,0.0,0.0,0.0,0.0,0.0,0.0,0.0,0.0,0.0,0.0,0.0,0.0,0.0,0.0,0.0,0.0,0.0,0.0,0.0,0.0,0.0,0.0,0.0,0.0,0.0,0.0,0.0,0.0,0.0,0.0,0.0,0.0,0.0,0.0,0.0,0.0,0.0,0.0,0.0,0.0,0.0,0.0,0.0,0.0,0.0,0.0,0.0,0.0,0.0,0.0,0.0,0.0,0.0,0.0,0.0,0.0,0.0,0.0,0.0,0.0,0.0,0.0,0.0,0.0,0.0,0.0,0.0,0.0,0.0,0.0,0.0,0.0,0.0,0.0,0.0,0.0,0.0,0.0,0.0,0.0,0.0,0.0,0.0,0.0,0.0,0.0,0.0,0.0,0.0,0.0,0.0,0.0,0.0,0.0,0.0,0.0,0.0,0.0,0.0,0.0,0.0,0.0,0.0,0.0,0.0,0.0,0.0,0.0,0.0,0.0,0.0,0.0,0.0,0.0,0.0,0.0,0.0,0.0,0.0,0.0,0.0,0.0,0.0,0.0,0.0,0.0,0.0,0.0,0.0,0.0,0.0,0.0,0.0,0.0,0.0,0.0,0.0,0.0,0.0,0.0,0.0,0.0,0.0,0.0,0.0,0.0,0.0,0.0,0.0,0.0,0.0,0.0,0.0,0.0,0.0,0.0,0.0,0.0,0.0,0.0,0.0,0.0,0.0,0.0,0.0,0.0,0.0,0.0,0.0,0.0,0.0,0.0,0.0,0.0,0.0,0.0,0.0,0.0,0.0,0.0,0.0,0.0,0.0,0.0,0.0,0.0,0.0,0.0,0.0,0.0,0.0,0.0,0.0,0.0,0.0,0.0,0.0,0.0,0.0,0.0,0.0,0.0,0.0,0.0,0.0,0.0,0.0,0.0,0.0,0.0,0.0,0.0,0.0,0.0,0.0,0.0,0.0,0.0,0.0,0.0,0.0,0.0,0.0,0.0,0.0,0.0,0.0,0.0,0.0,0.0,0.0,0.0,0.0,0.0,0.0,0.0,0.0,0.0,0.0,0.0,0.0,0.0,0.0,0.0,0.0,0.0,0.0,0.0,0.0,0.0,0.0,0.0,0.0,0.0,0.0,0.0,0.0,0.0,0.0,0.0,0.0,0.0,0.0,0.0,0.0,0.0,0.0,0.0,0.0,0.0,0.0,0.0,0.0,0.0,0.0,0.0,0.0,0.0,0.0,0.0,0.0,0.0,0.0,0.0,0.0,0.0,0.0,0.0,0.0,0.0,0.0,0.0,0.0,0.0,0.0,0.0,0.0,0.0,0.0,0.0,0.0,0.0,0.0,0.0,0.0,0.0,0.0,0.0,0.0,0.0,0.0,0.0,0.0,0.0,0.0,0.0,0.0,0.0,0.0,0.0,0.0,0.0,0.0,0.0,0.0,0.0,0.0,0.0,0.0,0.0,0.0,0.0,0.0,0.0,0.0,0.0,0.0,0.0,0.0,0.0,0.0,0.0,0.0,0.0,0.0,0.0,0.0,0.0,0.0,0.0,0.0,0.0,0.0,0.0,0.0,0.0,0.0,0.0,0.0,0.0,0.0,0.0,0.0,0.0,0.0,0.0,0.0,0.0,0.0,0.0,0.0,0.0,0.0,0.0,0.0,0.0,0.0,0.0,0.0,0.0,0.0,0.0,0.0,0.0,0.0,0.0,0.0,0.0,0.0,0.0,0.0,0.0,0.0,0.0,0.0,0.0,0.0,0.0,0.0,0.0,0.0,0.0,0.0,0.0,0.0,0.0,0.0,0.0,0.0,0.0,0.0,0.0,0.0,0.0,0.0,0.0,0.0,0.0,0.0,0.0,0.0,0.0,0.0,0.0,0.0,0.0,0.0,0.0,0.0,0.0,0.0,0.0,0.0,0.0,0.0,0.0,0.0,0.0,0.0,0.0,0.0,0.0,0.0,0.0,0.0,0.0,0.0,0.0,0.0,0.0,0.0,0.0,0.0,0.0,0.0,0.0,0.0,0.0,0.0,0.0,0.0,0.0,0.0,0.0,0.0,0.0,0.0,0.0,0.0,0.0,0.0,0.0,0.0,0.0,0.0,0.0,0.0,0.0,0.0,0.0,0.0,0.0,0.0,0.0,0.0,0.0,0.0,0.0,0.0,0.0,0.0,0.0,0.0,0.0,0.0,0.0,0.0,0.0,0.0,0.0,0.0,0.0,0.0,0.0,0.0,0.0,0.0,0.0,0.0,0.0,0.0,0.0,0.0,0.0,0.0,0.0,0.0,0.0,0.0,0.0,0.0,0.0,0.0,0.0,0.0,0.0,0.0,0.0,0.0,0.0,0.0,0.0,0.0,0.0,0.0,0.0,0.0,0.0,0.0,0.0,0.0,0.0,0.0,0.0,0.0,0.0,0.0,0.0,0.0,0.0,0.0,0.0,0.0,0.0,0.0,0.0,0.0,0.0,0.0,0.0,0.0,0.0,0.0,0.0,0.0,0.0,0.0,0.0,0.0,0.0,0.0,0.0,0.0,0.0,0.0,0.0,0.0,0.0,0.0,0.0,0.0,0.0,0.0,0.0,0.0,0.0,0.0,0.0,0.0,0.0,0.0,0.0,0.0,0.0,0.0,0.0,0.0,0.0,0.0,0.0,0.0,0.0,0.0,0.0,0.0,0.0,0.0,0.0,0.0,0.0,0.0,0.0,0.0,0.0,0.0,0.0,0.0,0.0,0.0,0.0,0.0,0.0,0.0,0.0,0.0,0.0,0.0,0.0,0.0,0.0,0.0,0.0,0.0,0.0,0.0,0.0,0.0,0.0,0.0,0.0,0.0,0.0,0.0,0.0,0.0,0.0,0.0,0.0,0.0,0.0,0.0,0.0,0.0,0.0,0.0,0.0,0.0,0.0,0.0,0.0,0.0,0.0,0.0,0.0,0.0,0.0,0.0,0.0,0.0,0.0,0.0,0.0,0.0,0.0,0.0,0.0,0.0,0.0,0.0,0.0,0.0,0.0,0.0,0.0,0.0,0.0,0.0,0.0,0.0,0.0,0.0,0.0,0.0,0.0,0.0,0.0,0.0,0.0,0.0,0.0,0.0,0.0,0.0,0.0,0.0,0.0,0.0,0.0,0.0,0.0,0.0,0.0,0.0,0.0,0.0,0.0,0.0,0.0,0.0,0.0,0.0,0.0,0.0,0.0,0.0,0.0,0.0,0.0,0.0,0.0,0.0,0.0,0.0,0.0,0.0,0.0,0.0,0.0,0.0,0.0,0.0,0.0,0.0,0.0,0.0,0.0,0.0,0.0,0.0,0.0,0.0,0.0,0.0,0.0,0.0,0.0,0.0,0.0,0.0,0.0,0.0,0.0,0.0,0.0,0.0,0.0,0.0,0.0,0.0,0.0,0.0,0.0,0.0,0.0,0.0,0.0,0.0,0.0,0.0,0.0,0.0,0.0,0.0,0.0,0.0,0.0,0.0,0.0,0.0,0.0,0.0,0.0,0.0,0.0,0.0,0.0,0.0,0.0,0.0,0.0,0.0,0.0,0.0,0.0,0.0,0.0,0.0,0.0,0.0,0.0,0.0,0.0,0.0,0.0,0.0,0.0,0.0,0.0,0.0,0.0,0.0,0.0,0.0,0.0,0.0,0.0,0.0,0.0,0.0,0.0,0.0,0.0,0.0,0.0,0.0,0.0,0.0,0.0,0.0,0.0,0.0,0.0,0.0,0.0,0.0,0.0,0.0,0.0,0.0,0.0,0.0,0.0,0.0,0.0,0.0,0.0,0.0,0.0,0.0,0.0,0.0,0.0,0.0,0.0,0.0,0.0,0.0,0.0,0.0,0.0,0.0,0.0,0.0,0.0,0.0,0.0,0.0,0.0,0.0,0.0,0.0,0.0,0.0,0.0,0.0,0.0,0.0,0.0,0.0,0.0,0.0,0.0,0.0,0.0,0.0,0.0,0.0,0.0,0.0,0.0,0.0,0.0,0.0,0.0,0.0,0.0,0.0,0.0,0.0,0.0,0.0,0.0,0.0,0.0,0.0,0.0,0.0,0.0,0.0,0.0,0.0,0.0,0.0,0.0,0.0,0.0,0.0,0.0,0.0,0.0,0.0,0.0,0.0,0.0,0.0,0.0,0.0,0.0,0.0,0.0,0.0,0.0,0.0,0.0,0.0,0.0,0.0,0.0,0.0,0.0,0.0,0.0,0.0,0.0,0.0,0.0,0.0,0.0,0.0,0.0,0.0,0.0,0.0,0.0,0.0,0.0,0.0,0.0,0.0,0.0,0.0,0.0,0.0,0.0,0.0,0.0,0.0,0.0,0.0,0.0,0.0,0.0,0.0,0.0,0.0,0.0,0.0,0.0,0.0,0.0,0.0,0.0,0.0,0.0,0.0,0.0,0.0,0.0,0.0,0.0,0.0,0.0,0.0,0.0,0.0,0.0,0.0,0.0,0.0,0.0,0.0,0.0,0.0,0.0,0.0,0.0,0.0,0.0,0.0,0.0,0.0,0.0,0.0,0.0,0.0,0.0,0.0,0.0,0.0,0.0,0.0,0.0,0.0,0.0,0.0,0.0,0.0,0.0,0.0,0.0,0.0,0.0,0.0,0.0,0.0,0.0,0.0,0.0,0.0,0.0,0.0,0.0,0.0,0.0,0.0,0.0,0.0,0.0,0.0,0.0,0.0,0.0,0.0,0.0,0.0,0.0,0.0,0.0,0.0,0.0,0.0,0.0,0.0,0.0,0.0,0.0,0.0,0.0,0.0,0.0,0.0,0.0,-2.3268,-2.3216,0.0,0.0,0.0,0.0,0.0,0.0,0.0,0.0,0.0,0.0,0.0,0.0,0.0,0.0,0.0,0.0,0.0,0.0,0.0,0.0,0.0,0.0,0.0,0.0,0.0,0.0,0.0,0.0,0.0,0.0,0.0,0.0,0.0,0.0,0.0,0.0,0.0,-2.5571,-2.5571,-2.5535,-2.5441,-2.4909,-2.4408,-2.3941,0.0,0.0,0.0,0.0,0.0,0.0,0.0,0.0,0.0,0.0,0.0,0.0,0.0,0.0,0.0,0.0,0.0,0.0,0.0,0.0,0.0,0.0,0.0,0.0,0.0,0.0,0.0,0.0,0.0,0.0,0.0,0.0,0.0,0.0,0.0,0.0,0.0,0.0,0.0,0.0,0.0,0.0,0.0,0.0,0.0,0.0,0.0,0.0,0.0,0.0,0.0,0.0,0.0,0.0,0.0,0.0,0.0,0.0,0.0,0.0,0.0,0.0,0.0,0.0,0.0,0.0,0.0,0.0,0.0,0.0,-2.453,-2.3926,0.0,0.0,0.0,0.0,0.0,0.0,0.0,0.0,0.0,0.0,0.0,0.0,0.0,0.0,0.0,0.0,0.0,0.0,0.0,0.0,0.0,0.0,0.0,-2.5793,-2.591,-2.591,-2.5945,-2.5945,0.0,0.0,0.0,0.0,0.0,0.0,0.0,-2.5945,-2.5945,-2.591,-2.591,-2.584,-2.5653,-2.5653,-2.534,-2.4707,-2.4263,0.0,0.0,0.0,0.0,0.0,0.0,0.0,0.0,0.0,0.0,0.0,0.0,0.0,0.0,0.0,0.0,0.0,0.0,0.0,0.0,0.0,0.0,0.0,0.0,0.0,0.0,0.0,0.0,0.0,0.0,0.0,0.0,0.0,0.0,0.0,0.0,0.0,0.0,0.0,0.0,0.0,0.0,0.0,0.0,0.0,0.0,0.0,0.0,0.0,0.0,0.0,0.0,0.0,0.0,0.0,0.0,0.0,0.0,0.0,0.0,0.0,0.0,0.0,-2.8109,-2.8109,-2.8109,-2.8109,-2.7987,-2.7692,-2.5581,-2.4572,-2.4449,-2.4449,0.0,0.0,0.0,0.0,0.0,0.0,0.0,0.0,0.0,0.0,0.0,0.0,0.0,0.0,0.0,0.0,0.0,0.0,0.0,0.0,0.0,-2.5875,-2.591,-2.591,-2.6062,-2.6166,-2.6166,0.0,0.0,0.0,0.0,0.0,-2.6166,-2.6166,-2.6062,-2.591,-2.591,-2.5875,-2.5875,-2.5875,-2.5804,-2.5695,-2.5284,-2.4843,-2.4422,0.0,0.0,0.0,0.0,0.0,0.0,0.0,0.0,0.0,0.0,0.0,0.0,0.0,0.0,0.0,0.0,0.0,0.0,0.0,0.0,0.0,0.0,0.0,0.0,0.0,0.0,0.0,0.0,0.0,0.0,0.0,0.0,0.0,0.0,0.0,0.0,0.0,0.0,0.0,0.0,0.0,-2.3948,-2.4601,0.0,0.0,0.0,0.0,0.0,0.0,0.0,0.0,0.0,0.0,0.0,0.0,0.0,-2.7921,-2.7996,-2.8072,-2.8109,-2.8109,-2.8109,-2.8109,-2.8109,-2.8109,-2.7987,-2.7766,-2.7444,0.0,-2.7017,-2.7017,0.0,0.0,0.0,0.0,0.0,0.0,0.0,0.0,0.0,0.0,0.0,0.0,0.0,0.0,0.0,0.0,0.0,0.0,0.0,0.0,0.0,-2.6154,-2.6258,-2.6258,-2.6327,-2.6361,-2.6361,-2.6361,0.0,0.0,0.0,-2.6361,-2.6361,-2.6361,-2.6327,-2.6258,-2.6534,-2.6636,-2.653,-2.6839,-2.6903,-2.6783,-2.6626,-2.6055,-2.53,-2.5184,0.0,0.0,0.0,0.0,0.0,0.0,0.0,0.0,0.0,0.0,0.0,0.0,0.0,0.0,0.0,0.0,0.0,0.0,0.0,0.0,0.0,0.0,0.0,0.0,0.0,0.0,0.0,0.0,0.0,0.0,0.0,0.0,0.0,0.0,0.0,0.0,0.0,0.0,0.0,-2.5397,-2.5993,-2.6593,-2.6866,-2.7105,0.0,0.0,0.0,0.0,0.0,0.0,0.0,0.0,0.0,-2.8561,-2.8888,-2.9202,-2.9515,-2.9804,-2.9942,-2.9942,-2.9942,-2.9942,-2.9942,-2.9942,-2.9903,-2.9825,-2.9825,-2.9774,-2.9596,-2.8126,-2.7434,-2.7372,0.0,0.0,0.0,0.0,-2.7173,-2.7061,0.0,0.0,0.0,0.0,0.0,0.0,0.0,0.0,0.0,0.0,0.0,0.0,-2.627,-2.6396,-2.6499,-2.6499,-2.6499,-2.6499,-2.6499,-2.6499,-2.6562,-2.67,-2.67,-2.6776,-2.6914,-2.6914,-2.6914,-2.6914,-2.7329,-2.7423,-2.7303,-2.7678,-2.7791,-2.7668,-2.7668,-2.715,-2.6291,-2.6015,-2.5883,-2.5836,0.0,0.0,0.0,0.0,0.0,0.0,0.0,0.0,0.0,0.0,0.0,0.0,0.0,0.0,0.0,0.0,0.0,0.0,0.0,0.0,0.0,0.0,0.0,0.0,0.0,0.0,0.0,0.0,0.0,0.0,0.0,0.0,0.0,0.0,0.0,0.0,0.0,-2.7231,-2.7645,-2.8059,-2.8109,-2.816,0.0,0.0,0.0,0.0,0.0,0.0,-2.8737,-2.875,-2.9001,-2.9502,-2.998,-3.047,-3.1022,-3.1411,-3.1675,-3.1813,-3.1813,-3.1813,-3.1813,-3.1813,-3.1813,-3.1813,-3.1662,-3.1599,-3.1461,-2.9344,-2.8373,-2.8224,-2.8224,-2.8087,-2.7901,-2.7901,-2.7826,-2.7688,0.0,0.0,0.0,0.0,0.0,0.0,0.0,0.0,0.0,0.0,0.0,-2.627,-2.6465,-2.6499,-2.6499,-2.6499,-2.6499,-2.6499,-2.6499,-2.6499,-2.6725,-2.7253,-2.7278,-2.7494,-2.8009,-2.8021,-2.8021,-2.8021,-2.8047,-2.8059,-2.8059,-2.8048,-2.806,-2.8073,-2.8073,-2.784,-2.7397,-2.6881,-2.6636,-2.6587,-2.5883,0.0,0.0,0.0,0.0,0.0,0.0,0.0,0.0,0.0,0.0,0.0,0.0,0.0,0.0,0.0,0.0,0.0,0.0,0.0,0.0,0.0,0.0,0.0,0.0,0.0,0.0,0.0,0.0,0.0,0.0,0.0,0.0,0.0,0.0,0.0,0.0,0.0,0.0,-2.8109,-2.8109,0.0,0.0,0.0,0.0,-2.9666,-2.9704,-2.9942,-3.047,-3.0482,-3.0733,-3.1248,-3.1298,-3.1574,-3.2127,-3.2152,-3.2453,-3.2993,-3.2993,-3.2993,-3.2993,-3.2993,-3.2993,-3.2998,-3.2416,-3.2177,-3.2127,-3.1486,-3.0801,-3.0152,-3.0152,-2.971,-2.9005,-2.9005,-2.9005,-2.9005,0.0,0.0,0.0,0.0,0.0,0.0,0.0,0.0,-2.6166,-2.6361,-2.6396,-2.643,-2.6499,-2.6499,-2.6499,-2.6499,-2.6499,-2.6499,-2.6499,-2.6826,-2.7115,-2.7268,-2.762,-2.7908,-2.8097,-2.8109,-2.8109,-2.8109,-2.8461,-2.8825,-2.9202,-2.9553,-2.9905,-3.0218,-3.0218,-3.0127,-2.9897,-2.8151,-2.7396,-2.7371,-2.6992,-2.6736,0.0,0.0,0.0,0.0,0.0,0.0,0.0,0.0,0.0,0.0,0.0,0.0,0.0,0.0,0.0,0.0,0.0,0.0,0.0,0.0,0.0,0.0,0.0,0.0,0.0,0.0,0.0,0.0,0.0,0.0,0.0,0.0,0.0,0.0,0.0,0.0,0.0,-2.9151,-2.9503,0.0,-2.9993,-3.0319,-3.0595,-3.0796,-3.0821,-3.106,-3.1612,-3.1637,-3.1901,-3.2466,-3.2817,-3.3106,-3.3294,-3.3658,-3.3935,-3.4135,-3.4135,-3.4135,-3.4135,-3.4135,-3.4135,-3.4123,-3.3909,-3.3834,-3.3809,-3.3608,-3.2536,-3.1029,-3.1029,-3.0823,-3.0568,-3.0568,-3.0487,-3.0378,0.0,0.0,0.0,0.0,0.0,0.0,0.0,0.0,-2.6339,-2.6499,-2.6499,-2.6499,-2.6499,-2.6499,-2.6499,-2.6499,-2.6499,-2.6575,-2.6763,-2.7115,-2.7444,-2.7821,-2.8373,-2.8674,-2.8674,-2.8674,-2.8674,-2.8674,-2.9189,-2.9691,-3.008,-3.062,-3.106,-3.1386,-3.1386,-3.1386,-3.1298,-2.97,-2.8799,-2.8438,-2.7854,-2.7521,-2.7422,0.0,0.0,0.0,0.0,0.0,0.0,0.0,0.0,0.0,0.0,0.0,0.0,0.0,0.0,0.0,0.0,0.0,0.0,0.0,0.0,0.0,0.0,0.0,0.0,0.0,0.0,0.0,0.0,0.0,0.0,0.0,0.0,0.0,0.0,-2.9339,-2.9602,-3.0018,-3.0545,-3.0947,-3.1135,-3.1461,-3.175,-3.1951,-3.1951,-3.2202,-3.2754,-3.278,-3.3043,-3.3608,-3.3985,-3.4274,-3.4449,-3.4768,-3.509,-3.5278,-3.5278,-3.5278,-3.5278,-3.5278,-3.5278,-3.5265,-3.5031,-3.4956,-3.4944,-3.4756,-3.3847,-3.2503,-3.2303,-3.2114,-3.1951,-3.1951,-3.1755,-3.1456,0.0,0.0,0.0,0.0,0.0,0.0,0.0,-2.6361,-2.6499,-2.6499,-2.6499,-2.6499,-2.6499,-2.6499,-2.6499,-2.6499,-2.6499,-2.6725,-2.7243,-2.7341,-2.7795,-2.8863,-2.949,-2.9792,-2.9792,-2.9817,-2.9817,-2.9817,-3.0369,-3.0645,-3.067,-3.1185,-3.1424,-3.1436,-3.1436,-3.1436,-3.1436,-3.1424,-3.0821,-2.9767,-2.8425,-2.7853,-2.7841,0.0,0.0,0.0,0.0,0.0,0.0,0.0,0.0,0.0,0.0,0.0,0.0,0.0,0.0,0.0,0.0,0.0,0.0,0.0,0.0,0.0,0.0,0.0,0.0,0.0,0.0,0.0,0.0,0.0,0.0,0.0,0.0,0.0,-2.9892,-3.0306,-3.067,-3.067,-3.1135,-3.1675,-3.2215,-3.2277,-3.2516,-3.3124,-3.3174,-3.337,-3.3922,-3.3972,-3.4223,-3.4776,-3.4768,-3.5031,-3.5571,-3.5571,-3.5881,-3.6455,-3.6455,-3.6455,-3.6455,-3.6455,-3.6455,-3.643,-3.5855,-3.5571,-3.5508,-3.4969,-3.4788,-3.4713,-3.4148,-3.3596,-3.3174,-3.3174,-3.2767,-3.2215,0.0,0.0,0.0,0.0,0.0,0.0,-2.6361,-2.6465,-2.6499,-2.6499,-2.6499,-2.6499,-2.6499,-2.6499,-2.6499,-2.6499,-2.6499,-2.6725,-2.7243,-2.7657,-2.8373,-2.9503,-2.9704,-2.9792,-2.9792,-3.0181,-3.0394,-3.0394,-3.0922,-3.1386,-3.1775,-3.1926,-3.2202,-3.2616,-3.2616,-3.2616,-3.2579,-3.2164,-3.1813,-3.1449,-3.0278,-2.9473,-2.8971,0.0,0.0,0.0,0.0,0.0,0.0,0.0,0.0,0.0,0.0,0.0,0.0,0.0,0.0,0.0,0.0,0.0,0.0,0.0,0.0,0.0,0.0,0.0,0.0,0.0,0.0,0.0,0.0,0.0,0.0,0.0,-3.0834,-3.0997,-3.047,-3.1185,-3.1775,-3.1775,-3.2616,-3.3269,-3.342,-3.3796,-3.4098,-3.4261,-3.4274,-3.4512,-3.5019,-3.5466,-3.5943,-3.6496,-3.6897,-3.7174,-3.7324,-3.7324,-3.7412,-3.755,-3.755,-3.755,-3.755,-3.755,-3.755,-3.755,-3.7387,-3.7098,-3.6722,-3.6571,-3.627,-3.5818,-3.4864,-3.4399,-3.4274,-3.4274,-3.4173,-3.401,0.0,0.0,0.0,0.0,0.0,0.0,-2.643,-2.643,-2.6396,-2.6499,-2.6499,-2.6499,-2.6499,-2.6499,-2.6499,-2.6499,-2.6713,-2.7065,-2.7595,-2.8373,-2.9114,-2.9767,-2.9792,-2.9905,-3.0131,-3.0457,-3.0721,-3.0947,-3.1474,-3.1901,-3.2227,-3.2466,-3.2754,-3.3124,-3.3124,-3.3124,-3.3099,-3.2717,-3.2441,-3.2164,-3.1537,-3.0728,-2.9884,-2.9841,-2.9624,-2.9417,-2.9534,-2.956,-2.956,-2.956,0.0,0.0,0.0,0.0,0.0,0.0,0.0,0.0,0.0,0.0,0.0,0.0,0.0,0.0,0.0,0.0,0.0,0.0,0.0,0.0,0.0,0.0,0.0,0.0,-3.1738,-3.2064,-3.2001,-3.2328,-3.2654,-3.2893,-3.3709,-3.4336,-3.4562,-3.509,-3.5504,-3.573,-3.5968,-3.6232,-3.6511,-3.6885,-3.7199,-3.7525,-3.7839,-3.8002,-3.8002,-3.8002,-3.8002,-3.8002,-3.8002,-3.8002,-3.8002,-3.8002,-3.8002,-3.8002,-3.8002,-3.7826,-3.7525,-3.7525,-3.7337,-3.6948,0.0,0.0,0.0,0.0,-3.5019,-3.4994,0.0,0.0,0.0,0.0,0.0,0.0,-2.6418,-2.6339,-2.627,-2.6465,-2.6499,-2.6499,-2.6499,-2.6499,-2.6499,-2.6499,-2.7002,-2.7544,-2.816,-2.9202,-2.9792,-2.9792,-2.9792,-3.0043,-3.0608,-3.067,-3.0959,-3.1486,-3.2039,-3.2303,-3.2328,-3.283,-3.3124,-3.3124,-3.3124,-3.3124,-3.3124,-3.3124,-3.278,-3.2303,-3.224,-3.1574,-3.057,-3.0068,-2.9842,-2.9792,-2.9792,-2.9792,-2.9792,-2.9792,0.0,0.0,0.0,0.0,0.0,0.0,0.0,0.0,0.0,0.0,0.0,0.0,0.0,0.0,0.0,0.0,0.0,0.0,0.0,0.0,0.0,0.0,0.0,0.0,-3.2893,-3.3458,-3.401,-3.3721,-3.3608,-3.4035,-3.4625,-3.519,-3.5646,-3.6232,-3.6795,-3.7236,-3.7726,-3.8002,-3.8002,-3.8065,0.0,0.0,0.0,-3.8203,-3.8203,-3.8203,-3.8203,-3.8203,-3.8203,-3.8203,-3.8203,-3.8203,-3.8203,-3.8203,-3.8203,-3.8165,-3.8103,-3.8103,-3.8065,-3.7902,-3.6908,-3.6505,-3.643,-3.5843,-3.5596,-3.552,0.0,0.0,0.0,0.0,0.0,0.0,-2.6418,-2.6339,-2.627,-2.6465,-2.6499,-2.6499,-2.6499,-2.6499,-2.6499,-2.6499,-2.7002,-2.7708,-2.8662,-2.9415,-2.9792,-2.9792,-2.9792,-3.0043,-3.0608,-3.1022,-3.1512,-3.2051,-3.2629,-3.2918,-3.2918,-3.3074,-3.3124,-3.3124,-3.3124,-3.3124,-3.3124,-3.3124,-3.3018,-3.2867,-3.2403,-3.1574,-3.0608,-3.0495,-3.0181,-2.9792,-2.9792,-2.9792,-2.9792,-2.9792,-2.9792,-2.9792,-2.9792,-2.9792,0.0,0.0,0.0,0.0,0.0,0.0,0.0,0.0,0.0,0.0,0.0,0.0,0.0,0.0,0.0,0.0,0.0,0.0,0.0,-3.3483,-3.4048,-3.46,-3.5107,-3.5516,-3.5604,-3.5219,-3.6094,-3.6747,-3.686,-3.7362,-3.7739,-3.7839,-3.7952,-3.8002,-3.8002,-3.8442,-3.8705,-3.8705,-3.9132,-3.9371,-3.9371,-3.9371,-3.9371,-3.9371,-3.9371,0.0,-3.9371,-3.9371,-3.9371,-3.9371,-3.9371,-3.912,-3.8705,-3.8705,-3.8429,-3.7939,-3.7287,-3.7023,-3.696,-3.6408,-3.6207,-3.6194,0.0,0.0,0.0,0.0,0.0,0.0,-2.6258,-2.6201,-2.6154,-2.6465,-2.6499,-2.6499,-2.6499,-2.6738,-2.6901,-2.6901,-2.7632,-2.8461,-2.9302,-2.9628,-2.9792,-2.9792,-2.9792,-3.0181,-3.0984,-3.126,-3.18,-3.2641,-3.293,-3.3124,-3.3124,-3.3124,-3.3124,-3.3124,-3.3124,-3.3124,-3.3124,-3.3124,-3.3124,-3.3056,-3.2767,-3.1989,-3.0972,-3.0708,-3.0269,-2.9792,-2.9792,-2.9792,-2.9792,-2.9792,-2.9792,-2.9792,-2.9792,-2.9792,-2.9842,0.0,0.0,0.0,0.0,0.0,0.0,0.0,0.0,0.0,0.0,0.0,0.0,0.0,0.0,-3.2729,-3.3006,0.0,-3.4085,-3.4625,-3.519,-3.573,-3.6295,-3.6835,-3.6973,-3.6433,-3.7098,-3.76,-3.76,-3.8115,-3.8442,-3.8442,-3.8693,-3.8856,-3.8856,-3.9132,-3.9283,-3.9283,-3.9546,-3.9697,-3.9697,-3.9697,-3.9697,-3.9697,-3.9697,-3.9697,-3.9697,-3.9697,-3.9697,-3.9697,-3.9697,-3.9534,-3.9283,-3.9283,-3.9107,-3.8793,-3.8241,-3.7852,-3.7563,-3.7287,-3.7186,-3.7186,0.0,0.0,0.0,0.0,0.0,0.0,0.0,-2.598,-2.605,-2.6396,-2.6499,-2.6499,-2.6499,-2.6989,-2.7369,-2.7582,-2.8411,-2.9176,-2.9754,-2.9792,-2.9792,-2.9792,-2.9792,-3.0244,-3.1223,-3.1336,-3.1888,-3.2918,-3.3018,-3.3124,-3.3124,-3.3124,-3.3124,-3.3124,-3.3124,-3.3124,-3.3124,-3.3124,-3.3124,-3.3124,-3.3124,-3.2403,-3.1348,-3.1047,-3.0457,-2.9792,-2.9792,-2.9792,-2.9792,-2.9792,-2.9867,-2.9955,-2.9955,-3.0018,-3.0193,-3.0633,-3.0444,0.0,0.0,0.0,0.0,0.0,0.0,0.0,0.0,-3.2139,-3.2679,-3.2566,-3.3345,-3.4085,-3.4198,-3.4575,-3.5056,-3.5708,-3.6232,-3.6757,-3.7262,-3.7826,-3.8002,-3.7563,-3.7902,-3.8165,-3.8165,-3.8693,-3.9082,-3.9082,-3.9446,-3.9697,-3.9697,-3.9697,-3.9697,-3.9697,-3.9697,-3.9697,-3.9697,-3.9697,-3.9697,-3.9697,-3.9697,-3.9697,-3.9697,-3.9697,-3.9697,-3.9697,-3.9697,-3.9697,-3.9697,-3.9697,-3.9697,-3.9647,-3.9207,-3.8743,-3.8304,-3.809,-3.8002,-3.8002,0.0,0.0,0.0,0.0,0.0,0.0,0.0,0.0,-2.598,-2.6201,-2.6396,-2.6499,-2.6499,-2.6989,-2.767,-2.8624,-2.8813,-2.9176,-2.9754,-2.9792,-2.9792,-2.9792,-2.9792,-3.008,-3.0683,-3.116,-3.17,-3.2303,-3.283,-3.3124,-3.3124,-3.3124,-3.3124,-3.3124,-3.3124,-3.3124,-3.3124,-3.3124,-3.3124,-3.3124,-3.3124,-3.2403,-3.1436,-3.1876,-3.1097,-2.9792,-2.9792,-2.9792,-2.9792,-2.9792,-3.0118,-3.052,-3.052,-3.0846,-3.1223,-3.1286,-3.126,-3.1235,-3.1361,-3.17,-3.1926,-3.1499,-3.2516,-3.3357,0.0,-3.3332,-3.4311,-3.3809,-3.4198,-3.4776,-3.5219,-3.537,-3.5746,-3.6835,-3.7048,-3.7287,-3.7839,-3.8417,-3.8806,-3.8743,-3.8781,-3.8781,-3.8781,-3.927,-3.9597,-3.9597,-3.9659,-3.9697,-3.9697,-3.9697,-3.9697,-3.9697,-3.9697,-3.9697,-3.9697,-3.9697,-3.9697,-3.9697,-3.9697,-3.9697,-3.9697,-3.9697,-3.9697,-3.9697,-3.9697,-3.9697,-3.9697,-3.9697,-3.9697,-3.9685,-3.9622,-3.9559,-3.9383,-3.8379,-3.8002,-3.8002,0.0,0.0,0.0,0.0,0.0,0.0,0.0,0.0,0.0,-2.6166,-2.627,-2.6361,-2.6499,-2.7278,-2.8072,-2.8825,-2.9239,-2.9528,-2.9779,-2.9792,-2.9792,-2.9792,-2.9792,-3.0043,-3.0608,-3.0834,-3.1198,-3.1738,-3.1976,-3.2265,-3.2579,-3.2579,-3.2754,-3.3124,-3.3124,-3.3124,-3.3124,-3.3124,-3.3124,-3.3124,-3.3124,-3.2591,-3.1888,-3.2127,-3.1587,-3.0721,-3.0721,-3.0721,0.0,-3.0721,-3.0871,-3.1072,-3.1072,-3.1223,-3.1449,-3.1775,-3.1637,-3.1461,-3.1788,-3.2516,-3.3144,-3.2905,-3.3621,-3.4261,-3.3784,-3.4417,-3.5094,-3.4856,-3.529,-3.5742,-3.5981,-3.6282,-3.6646,-3.7111,-3.7788,-3.8241,-3.8479,-3.8994,-3.9346,-3.9346,-3.9346,-3.9346,-3.9346,-3.9559,-3.9697,-3.9697,-3.9697,-3.9697,-3.9697,-3.9697,-3.9697,-3.9697,-3.9697,-3.9697,-3.9697,-3.9697,-3.9697,-3.9697,-3.9697,-3.9697,-3.9697,-3.9697,-3.9697,-3.9697,-3.9697,-3.9697,-3.9697,-3.9697,-3.9697,-3.9697,-3.9697,-3.9697,-3.9634,-3.917,-3.8981,-3.8981,0.0,0.0,0.0,0.0,0.0,0.0,0.0,0.0,0.0,0.0,-2.6131,-2.632,-2.6678,-2.7544,-2.8335,-2.8838,-2.9453,-2.9792,-2.9792,-2.9792,-2.9792,-2.9792,-2.9792,-2.998,-3.0382,-3.0532,-3.0796,-3.1173,-3.1323,-3.1599,-3.1989,-3.1989,-3.2202,-3.2616,-3.2616,-3.2616,-3.2616,-3.2616,-3.2704,-3.283,-3.283,-3.2591,-3.2227,-3.239,-3.2102,-3.1599,-3.1449,-3.1386,-3.1386,-3.1386,-3.1486,-3.1625,-3.1625,-3.1725,-3.1938,-3.2328,-3.2277,-3.2164,-3.2566,-3.3395,-3.4123,-3.4123,-3.4663,-3.5152,-3.4944,-3.5445,-3.5909,-3.5759,-3.6094,-3.6405,-3.6405,-3.6857,-3.7236,-3.7387,-3.8228,-3.8969,-3.9082,-3.9446,-3.9697,-3.9697,-3.9697,-3.9697,-3.9697,-3.9697,-3.9697,-3.9697,-3.9697,-3.9697,-3.9697,-3.9697,-3.9697,-3.9697,-3.9697,-3.9697,-3.9697,-3.9697,-3.9697,-3.9697,-3.9697,-3.9697,-3.9697,-3.9697,-3.9697,-3.9697,-3.9697,-3.9697,-3.9697,-3.9697,-3.9697,-3.9697,-3.9697,-3.9697,-3.9697,-3.9697,-3.9697,-3.9697,0.0,0.0,0.0,0.0,0.0,0.0,0.0,0.0,0.0,0.0,0.0,0.0,0.0,-2.777,-2.8335,-2.8838,-2.9453,-2.9792,-2.9792,-2.9792,-2.9792,-2.9792,-2.9792,-2.9804,-2.9817,-3.0344,-3.062,-3.0633,-3.1148,-3.1399,-3.1411,-3.1411,-3.1424,-3.1436,-3.1436,-3.1436,-3.1436,-3.1436,-3.175,-3.224,-3.224,-3.2227,-3.2277,-3.283,-3.2692,-3.2114,-3.1587,-3.1386,-3.1386,-3.1386,-3.175,-3.219,-3.219,-3.2579,-3.3074,-3.3086,-3.342,-3.3822,-3.3847,-3.4261,-3.47,-3.47,-3.5529,-3.6219,-3.5608,-3.6358,-3.6985,-3.6493,-3.6405,-3.6405,-3.6405,-3.6857,-3.7362,-3.7889,-3.8479,-3.9057,-3.9597,-3.9685,-3.9697,-3.9697,-3.9697,-3.9697,-3.9697,-3.9697,-3.9697,-3.9697,-3.9697,-3.9697,-3.9697,-3.9697,-3.9697,-3.9697,-3.9697,-3.9697,-3.9697,-3.9697,-3.9697,-3.9697,-3.9697,-3.9697,-3.9697,-3.9697,-3.9697,-3.9697,-3.9697,-3.9697,-3.9697,-3.9697,-3.9697,-3.9697,-3.9697,-3.9697,-3.9697,-3.9697,-3.9697,-3.9697,0.0,0.0,0.0,0.0,0.0,0.0,0.0,0.0,0.0,0.0,0.0,0.0,0.0,0.0,0.0,0.0,-2.8813,-2.939,-2.9767,-2.9792,-2.9792,-2.9792,-2.9792,-2.9792,-2.9792,-2.998,-3.0068,-3.0068,-3.0244,-3.052,-3.0871,-3.0871,-3.106,-3.1386,-3.1386,-3.1386,-3.1386,-3.1386,-3.1712,-3.2215,-3.2215,-3.2441,-3.2805,-3.3006,-3.2955,-3.2754,0.0,-3.2516,-3.2516,-3.2516,-3.2629,-3.278,-3.278,-3.2918,-3.3156,-3.352,-3.3759,-3.3985,-3.4349,-3.4806,-3.5307,-3.5717,-3.637,-3.6872,-3.6671,-3.691,-3.7023,-3.6518,-3.6405,-3.6405,-3.6405,-3.6857,-3.7362,-3.7914,-3.8492,-3.9108,-3.9622,-3.9697,-3.9697,-3.9697,-3.9697,-3.9697,-3.9697,-3.9697,-3.9697,-3.9697,-3.9697,-3.9697,-3.9697,-3.9697,-3.9697,-3.9697,-3.9697,-3.9697,-3.9697,-3.9697,-3.9697,-3.9697,-3.9697,-3.9697,-3.9697,-3.9697,-3.9697,-3.9697,-3.9697,-3.9697,-3.9697,-3.9697,-3.9697,-3.9697,-3.9697,-3.9697,-3.9697,-3.9697,-3.9697,-3.9697,0.0,0.0,0.0,0.0,0.0,0.0,0.0,0.0,0.0,0.0,0.0,0.0,0.0,0.0,0.0,0.0,0.0,-2.9051,-2.9453,-2.9679,-2.9792,-2.9792,-2.9792,-2.9792,-2.9792,-2.9792,-2.9792,-2.9792,-2.9792,-2.998,-3.0319,-3.0319,-3.0495,-3.0821,-3.0821,-3.0821,-3.0821,-3.0821,-3.1248,-3.1913,-3.1913,-3.239,-3.3124,-3.3124,-3.3124,0.0,-3.3124,-3.3124,-3.3124,-3.3124,-3.3124,-3.3124,-3.3124,-3.3206,-3.3432,-3.3796,-3.4173,-3.4613,-3.5165,-3.5717,-3.627,-3.681,-3.7211,-3.7425,-3.7224,-3.7186,-3.7023,-3.6518,-3.6405,-3.6405,-3.6405,-3.6857,-3.7362,-3.7914,-3.8492,-3.9108,-3.9622,-3.9697,-3.9697,-3.9697,-3.9697,-3.9697,-3.9697,-3.9697,-3.9697,-3.9697,-3.9697,-3.9697,-3.9697,-3.9697,-3.9785,-3.9986,-3.9986,-4.0086,-4.0275,-4.0275,-4.0275,-4.0275,-4.0275,-4.0275,-4.0275,-4.0074,-3.9986,-3.9973,-3.9772,-3.9697,-3.9697,-3.9697,-3.9697,-3.9697,-3.9697,-3.9697,-3.9697,-3.9697,-3.9697,-3.9697,0.0,0.0,0.0,0.0,0.0,0.0,0.0,0.0,0.0,0.0,0.0,0.0,0.0,0.0,0.0,0.0,0.0,0.0,-2.8888,-2.9465,-2.9792,-2.9792,-2.9792,-2.9792,-2.9792,-2.9792,-2.9792,-2.9792,-2.9792,-2.9792,-2.9792,-2.9792,-2.9792,-2.9792,-2.9792,-2.9792,-2.9792,-2.9792,-3.0394,-3.1348,-3.1386,-3.2051,-3.3074,-3.3111,-3.3124,-3.3124,-3.3124,-3.3124,-3.3124,-3.3124,-3.3124,-3.3124,-3.3124,-3.3458,-3.3909,-3.3935,-3.4655,-3.5621,-3.6245,-3.6784,-3.7324,-3.7902,-3.8027,-3.7864,-3.7349,-3.7199,-3.7023,-3.6518,-3.6405,-3.6405,-3.6405,-3.6832,-3.7324,-3.7914,-3.8467,-3.9032,-3.9609,-3.9697,-3.9697,-3.9697,-3.9697,-3.9697,-3.9697,-3.9697,-3.9697,-3.9697,-3.9697,-3.9697,-3.9697,-3.9722,-3.9973,-4.0501,-4.0538,-4.0814,-4.1275,-4.1288,-4.1288,-4.1288,-4.1288,-4.1288,-4.1263,-4.0802,-4.0563,-4.0526,-4.0011,-3.976,-3.9735,-3.9735,-3.9722,-3.9697,-3.9697,-3.9697,-3.9697,-3.9697,-3.9697,-3.9697,0.0,0.0,0.0,0.0,0.0,0.0,0.0,0.0,0.0,0.0,0.0,0.0,0.0,0.0,0.0,0.0,0.0,0.0,-2.8863,-2.9465,-2.9792,-2.9792,-2.9792,-2.9792,-2.9792,-2.9792,-2.9792,-2.9792,-2.9792,-2.9792,-2.9792,-2.9792,-2.9792,-2.9792,-2.9792,-2.9792,-2.9792,-2.9792,-3.0193,-3.0846,-3.1235,-3.18,-3.2478,-3.2918,-3.3124,-3.3124,-3.3124,-3.3124,-3.3124,-3.3124,-3.3124,-3.3124,-3.3124,-3.3458,-3.3985,-3.4399,-3.4956,-3.5708,-3.6709,-3.7073,-3.7425,-3.8404,-3.8329,-3.7965,-3.7826,-3.7475,-3.7023,-3.6518,-3.6405,-3.6405,-3.6405,-3.6518,-3.6885,-3.7852,-3.8128,-3.8567,-3.9559,-3.9697,-3.9697,-3.9697,-3.9697,-3.9697,-3.9697,-3.9697,-3.9697,-3.9697,-3.9697,-3.9697,-3.9697,-4.0086,-4.0375,-4.0513,-4.0915,-4.115,-4.1288,-4.1288,-4.1288,-4.1288,-4.1288,-4.1288,-4.1275,-4.1137,-4.1075,-4.1075,-4.0924,-4.0689,-4.0312,-4.0312,-4.0061,-3.9697,-3.9697,-3.9697,-3.9697,-3.9697,-3.9697,-3.9697,0.0,0.0,0.0,0.0,0.0,0.0,0.0,0.0,0.0,0.0,0.0,0.0,0.0,0.0,0.0,0.0,0.0,0.0,0.0,-2.9063,-2.9528,-2.9779,-2.9792,-2.9792,-2.9792,-2.9792,-2.9792,-2.9792,-2.9792,-2.9792,-2.9792,-2.9792,-2.9792,-2.9792,-2.9792,-2.9792,-2.9792,-2.9792,-3.0118,0.0,0.0,-3.1725,-3.2277,-3.2855,-3.3124,-3.3124,-3.3124,-3.3124,-3.3124,-3.3124,-3.3124,-3.3162,-3.337,-3.3822,-3.4374,-3.4868,-3.5596,-3.6445,-3.7312,-3.7726,-3.8078,-3.8756,-3.8442,-3.7939,-3.7701,-3.7211,-3.6782,-3.6468,-3.6405,-3.6405,-3.6405,-3.6405,-3.6681,-3.75,-3.7852,-3.8316,-3.9207,-3.9534,-3.9697,-3.9697,-3.9697,-3.9697,-3.9697,-3.9697,-3.9798,-4.0036,-3.9835,-3.9798,-4.0036,-4.035,-4.0739,-4.1216,-4.1543,-4.1819,-4.2057,-4.2057,-4.2057,-4.2057,-4.2057,-4.2057,-4.2045,-4.1806,-4.1693,-4.1681,-4.1388,-4.1112,-4.0824,-4.0824,-4.0551,-4.0061,-4.0061,-3.991,-3.9697,-3.9697,-3.9697,-3.9697,0.0,0.0,0.0,0.0,0.0,0.0,0.0,0.0,0.0,0.0,0.0,0.0,0.0,0.0,0.0,0.0,0.0,0.0,0.0,0.0,-2.9113,-2.9654,-2.9754,-2.9792,-2.9792,-2.9792,-2.9792,-2.9792,-2.9792,-2.9792,-2.9792,-2.9792,-2.9792,-2.9792,-2.9792,-2.9792,-2.9792,-2.9792,-3.0068,-3.0557,-3.1072,-3.1625,-3.2164,0.0,-3.3048,-3.3124,-3.3124,-3.3124,-3.3124,-3.3124,-3.3124,-3.3169,-3.3721,-3.4274,-3.4826,-3.5332,-3.632,-3.7312,-3.7852,-3.8429,-3.8919,-3.8919,-3.8442,-3.7864,-3.7312,-3.6807,-3.6405,-3.6405,-3.6405,-3.6405,-3.6405,-3.6405,-3.6593,-3.7098,-3.7651,-3.8203,-3.8844,-3.9346,-3.9697,-3.9697,-3.9697,-3.9697,-3.9697,-3.976,-3.9998,-4.0488,-4.0136,-4.0124,-4.0601,-4.0689,-4.1204,-4.2288,-4.2313,-4.2552,-4.2974,-4.2974,-4.2974,-4.2974,-4.2974,-4.2974,-4.2961,-4.2539,-4.2313,-4.2288,-4.1756,-4.1517,-4.1388,-4.1388,-4.1128,-4.0614,-4.0538,-4.0224,-3.9798,-3.9722,-3.9697,-3.9697,0.0,0.0,0.0,0.0,0.0,0.0,0.0,0.0,0.0,0.0,-2.4504,-2.5312,0.0,0.0,0.0,0.0,0.0,0.0,0.0,0.0,0.0,-2.9038,-2.9528,-2.9792,-2.9792,-2.9792,-2.9792,-2.9792,-2.9792,-2.9792,-2.9792,-2.9792,-2.9792,-2.9792,-2.9792,-2.9792,-2.9792,-2.9792,-2.9842,-2.998,-3.0532,-3.106,-3.1599,-3.2152,0.0,0.0,-3.3124,-3.3124,-3.3124,-3.3124,-3.3124,-3.3169,-3.3721,-3.4274,-3.4826,-3.5332,-3.632,-3.7312,-3.7852,-3.8429,-3.8919,-3.8919,-3.8442,-3.7864,-3.7312,-3.6807,-3.6405,-3.6405,-3.6405,-3.6405,-3.6405,-3.6405,-3.6593,-3.7098,-3.7651,-3.8203,-3.8844,-3.9346,-3.9697,-3.9697,-3.9697,-3.9697,-3.9697,-4.0111,-4.0413,-4.0513,-4.0799,-4.1037,-4.1137,-4.1618,-4.2225,-4.2811,-4.2836,-4.2942,-4.2974,-4.2974,-4.2974,-4.2974,-4.2974,-4.2974,-4.2974,-4.2873,-4.2836,-4.2891,-4.2735,-4.2434,-4.2062,-4.2062,-4.1693,-4.11,-4.0701,-4.0463,-4.0325,-3.986,-3.9697,-3.9697,0.0,0.0,0.0,0.0,0.0,0.0,0.0,-2.0809,-2.1769,-2.1993,-2.3234,-2.424,-2.4636,-2.4671,-2.4898,0.0,0.0,0.0,0.0,0.0,0.0,0.0,-2.9478,-2.9792,-2.9792,-2.9792,-2.9792,-2.9792,0.0,-2.9792,-2.9792,-2.9792,-2.9792,-2.9792,-2.9792,-2.9792,-2.9792,-2.9792,-2.9792,-2.9842,-3.0394,-3.0922,-3.1449,0.0,0.0,0.0,0.0,-3.3124,-3.3124,-3.3124,-3.3124,-3.3169,-3.3721,-3.4274,-3.4826,-3.5332,-3.632,-3.7249,-3.75,-3.799,-3.8354,-3.8065,-3.7789,-3.7425,-3.6933,-3.6593,-3.6405,-3.6405,-3.6405,-3.6405,-3.6405,-3.6405,-3.6493,-3.6757,-3.7462,-3.8103,-3.8379,-3.9157,-3.9697,-3.9697,-3.9697,-3.981,-4.0099,-4.0362,-4.0752,-4.1329,-4.1618,-4.1769,-4.1769,-4.2283,-4.2698,-4.2974,-4.2974,-4.2974,-4.2974,-4.2974,-4.2974,-4.2974,-4.2974,-4.2974,-4.2974,-4.2974,-4.2974,-4.2974,-4.2974,-4.2823,-4.264,-4.264,-4.2258,-4.1743,-4.1467,-4.1015,-4.0488,-4.0224,-3.9936,-3.9697,0.0,0.0,0.0,0.0,0.0,0.0,0.0,-1.9607,-2.0569,-2.0698,-2.1655,-2.2609,-2.3369,-2.3822,-2.4337,0.0,0.0,0.0,0.0,0.0,0.0,0.0,0.0,0.0,0.0,0.0,0.0,-2.9792,-2.9792,0.0,0.0,0.0,0.0,0.0,-2.9792,-2.9792,-2.9792,-2.9792,-2.9792,0.0,0.0,-3.0758,0.0,0.0,0.0,0.0,0.0,-3.3124,-3.3124,-3.3124,-3.3124,-3.3156,-3.3583,-3.411,-3.4675,-3.5307,-3.6245,-3.7036,-3.7149,-3.7588,-3.7877,-3.7324,-3.7186,-3.7036,-3.6531,-3.6405,-3.6405,-3.6405,-3.6405,-3.6405,-3.6405,-3.6405,-3.6405,-3.6405,-3.7287,-3.8002,-3.8002,-3.8981,-3.9697,-3.9697,-3.9697,-3.991,-4.0463,-4.0626,-4.1103,-4.2137,-4.2313,-4.2389,-4.2389,-4.2791,-4.2974,-4.2974,-4.2974,-4.2974,-4.2974,-4.2974,-4.2974,-4.2974,-4.2974,-4.2974,-4.2974,-4.2974,-4.2974,-4.2974,-4.2974,-4.2974,-4.2974,-4.2974,-4.2778,-4.2376,-4.225,-4.163,-4.084,-4.0601,-4.0237,-3.9848,0.0,0.0,0.0,0.0,0.0,0.0,0.0,-1.8553,-1.8844,-1.9406,-1.9893,-2.0477,-2.1272,-2.3002,-2.412,0.0,0.0,0.0,0.0,0.0,0.0,0.0,0.0,0.0,0.0,0.0,0.0,-2.9792,-2.9792,0.0,0.0,0.0,0.0,0.0,0.0,-2.9792,-2.9792,-2.9792,0.0,0.0,0.0,0.0,0.0,0.0,0.0,0.0,0.0,-3.3124,-3.3124,-3.3124,-3.3124,-3.3124,-3.3174,-3.3533,-3.4173,-3.5194,-3.5968,-3.6593,-3.7048,-3.7588,-3.7877,-3.7324,-3.7186,-3.7036,-3.6531,-3.6405,-3.6405,-3.6405,-3.6405,-3.6405,-3.6405,-3.6405,-3.6405,-3.6405,-3.7287,-3.8002,-3.8002,-3.8981,-3.9697,-3.9697,-3.9697,-3.991,-4.0463,-4.0912,-4.1505,-4.2162,-4.2678,-4.2898,-4.2898,-4.2949,-4.2974,-4.2974,-4.2974,-4.2974,-4.2974,-4.2974,-4.2974,-4.2974,-4.2974,-4.2974,-4.2974,-4.2974,-4.2974,-4.2974,-4.2974,-4.2974,-4.2974,-4.2974,-4.2949,-4.2848,-4.2401,-4.215,-4.1936,-4.089,-4.0488,-4.0375,0.0,0.0,0.0,0.0,0.0,0.0,-1.7802,-1.8155,-1.8518,-1.8841,-1.9268,-1.974,-2.0322,-2.1513,-2.2765,-2.3977,0.0,0.0,0.0,0.0,0.0,0.0,0.0,0.0,0.0,0.0,-2.9792,-2.9792,-2.9792,0.0,0.0,0.0,0.0,0.0,0.0,-2.9792,-2.9792,-2.9792,0.0,0.0,0.0,0.0,0.0,0.0,0.0,0.0,0.0,0.0,-3.3124,-3.3124,-3.3124,-3.3124,-3.3124,-3.3458,-3.4048,-3.4781,-3.5441,-3.5994,-3.6546,-3.6895,-3.7008,-3.6782,-3.6732,-3.6681,-3.6455,-3.6405,-3.6405,-3.6405,-3.6405,-3.6405,-3.6405,-3.6405,-3.6405,-3.6405,-3.701,-3.7626,-3.7952,-3.8693,-3.932,-3.9647,-3.9697,-4.0036,-4.0874,-4.115,-4.1706,-4.2585,-4.2848,-4.2974,-4.2974,-4.2974,-4.2974,-4.2974,-4.2974,-4.2974,-4.2974,-4.2974,-4.2974,-4.2974,-4.2974,-4.2974,-4.2974,-4.2974,-4.2974,-4.2974,-4.2974,-4.2974,-4.2974,-4.2974,-4.2974,-4.2949,-4.2735,-4.2502,-4.2162,-4.1668,-4.1091,-4.0435,0.0,0.0,0.0,0.0,0.0,-1.721,-1.747,-1.7865,-1.8197,-1.8412,-1.8828,-1.9258,-1.9678,-2.0346,-2.1471,-2.3261,-2.3353,0.0,0.0,0.0,0.0,0.0,0.0,0.0,0.0,0.0,-2.9792,-2.9792,-2.9792,-2.9792,0.0,0.0,-2.9792,-2.9792,0.0,0.0,0.0,0.0,0.0,0.0,0.0,0.0,0.0,0.0,0.0,0.0,0.0,0.0,0.0,0.0,0.0,-3.3124,-3.3124,-3.3345,-3.3796,-3.4512,-3.5069,-3.5621,-3.6267,-3.6405,-3.6405,-3.6405,-3.6405,-3.6405,-3.6405,-3.6405,-3.6405,-3.6405,-3.6405,-3.6405,-3.6405,-3.6405,-3.6405,-3.6405,-3.687,-3.7374,-3.7927,-3.8504,-3.9082,-3.9634,-3.9697,-4.0124,-4.1175,-4.1576,-4.2145,-4.2924,-4.2974,-4.2974,-4.2974,-4.2974,-4.2974,-4.2974,-4.2974,-4.2974,-4.2974,-4.2974,-4.2974,-4.2974,-4.2974,-4.2974,-4.2974,-4.2974,-4.2974,-4.2974,-4.2974,-4.2974,-4.2974,-4.2974,-4.2974,-4.2974,-4.2974,-4.268,-4.2261,-4.2098,-4.1163,-3.9902,0.0,0.0,0.0,0.0,0.0,0.0,-1.7436,-1.7514,-1.7651,-1.7949,-1.8344,-1.8773,-1.9248,-1.9668,-2.0419,-2.1725,-2.3195,0.0,0.0,0.0,0.0,0.0,0.0,0.0,0.0,0.0,-2.9792,-2.9792,-2.9792,-2.9792,-2.9792,-2.9792,-2.9792,-2.9792,0.0,0.0,0.0,0.0,0.0,0.0,0.0,0.0,0.0,0.0,0.0,0.0,0.0,0.0,0.0,0.0,0.0,0.0,0.0,-3.3124,-3.3307,-3.4399,-3.5069,-3.5621,-3.6267,-3.6405,-3.6405,-3.6405,-3.6405,-3.6405,-3.6405,-3.6405,-3.6405,-3.6405,-3.6405,-3.6405,-3.6405,-3.6405,-3.6405,-3.6405,-3.687,-3.7374,-3.7927,-3.8504,-3.9082,-3.9634,-3.9697,-4.0124,-4.1175,-4.2321,-4.2974,-4.2974,-4.2974,-4.2974,-4.2974,-4.2974,-4.2974,-4.2974,-4.2974,-4.2974,-4.2974,-4.2974,-4.2974,-4.2974,-4.2974,-4.2974,-4.2974,-4.2974,-4.2974,-4.2974,-4.2974,-4.2974,-4.2974,-4.2974,-4.2974,-4.2974,-4.2974,-4.2806,-4.2451,-4.1904,-4.0439,-3.8653,0.0,0.0,0.0,0.0,0.0,0.0,0.0,-1.7505,-1.7608,-1.7949,-1.8125,-1.8486,-1.9209,-1.9404,-1.9887,-2.0874,-2.1423,0.0,0.0,0.0,0.0,0.0,0.0,0.0,0.0,0.0,-2.9028,-2.9792,-2.9792,-2.9792,-2.9792,-2.9792,-2.9792,-2.9792,-2.9792,-2.9792,0.0,0.0,0.0,0.0,0.0,0.0,-3.1386,0.0,0.0,0.0,0.0,0.0,0.0,0.0,0.0,0.0,0.0,0.0,0.0,-3.4512,-3.4806,-3.5132,-3.6153,-3.6405,-3.6405,-3.6405,-3.6405,-3.6405,-3.6405,-3.6405,-3.6405,-3.6405,-3.6405,-3.6405,-3.6405,-3.6405,-3.6405,-3.6405,-3.687,-3.7374,-3.7927,-3.8504,-3.9082,-3.9634,-4.0362,-4.0953,-4.125,-4.2333,-4.2974,-4.2974,-4.2974,-4.2974,-4.2974,-4.2974,-4.2974,-4.2974,-4.2974,-4.2974,-4.2974,-4.2974,-4.2974,-4.2974,-4.2974,-4.2974,-4.2974,-4.2974,-4.2974,-4.2974,-4.2974,-4.25,-4.1684,-4.1684,-4.1684,-4.1684,-4.1684,-4.1501,-4.1179,-4.101,-3.9622,-3.7724,0.0,0.0,0.0,0.0,0.0,0.0,0.0,-1.7505,-1.7608,-1.7949,-1.8008,-1.834,-1.9189,-1.9287,-1.9666,-2.0527,-2.0605,0.0,0.0,0.0,0.0,0.0,0.0,0.0,-2.7229,-2.7818,-2.8518,-2.93,-2.9624,-2.9792,-2.9792,-2.9792,-2.9792,-2.9792,-2.9792,-2.9792,0.0,0.0,0.0,0.0,0.0,0.0,-3.0947,0.0,0.0,0.0,0.0,0.0,0.0,0.0,0.0,0.0,0.0,0.0,0.0,0.0,-3.4818,-3.5228,-3.6166,-3.6405,-3.6405,-3.6405,-3.6405,-3.6405,-3.6405,-3.6405,-3.6405,-3.6405,-3.6405,-3.6405,-3.6405,-3.6405,-3.6405,-3.6405,-3.687,-3.7374,-3.7927,-3.8504,-3.9082,-3.9634,-4.0664,-4.1288,-4.1288,-4.2333,-4.2974,-4.2974,-4.2974,-4.2974,-4.2974,-4.2974,-4.2974,-4.2974,-4.2974,-4.2974,-4.2974,-4.2974,-4.2974,-4.2974,-4.2974,-4.2974,-4.2974,-4.25,-4.2275,-4.2263,-4.1615,-4.0904,0.0,-4.0082,-4.0012,-4.0012,-4.0012,-3.9838,-3.9522,-3.9522,-3.8204,-3.6334,0.0,0.0,0.0,0.0,0.0,0.0,0.0,-1.7505,-1.7608,-1.7949,-1.8037,-1.8369,-1.9199,-1.9316,-1.9668,-2.0537,0.0,0.0,0.0,0.0,0.0,0.0,0.0,0.0,-2.5161,-2.7032,-2.8148,-2.8502,-2.9378,-2.9792,-2.9792,-2.9792,-2.9792,-2.9792,-2.9792,-2.9792,-2.9792,0.0,0.0,0.0,0.0,0.0,0.0,0.0,0.0,0.0,0.0,0.0,0.0,0.0,0.0,0.0,0.0,0.0,0.0,0.0,0.0,0.0,0.0,-3.6405,-3.6405,-3.6405,-3.6405,-3.6405,-3.6405,-3.6405,0.0,-3.6405,-3.6405,-3.6405,-3.6405,-3.6405,-3.6405,-3.6405,-3.6908,-3.7425,-3.7939,-3.8542,-3.912,-3.9634,-4.0664,-4.1288,-4.1288,-4.2333,-4.2974,-4.2974,-4.2974,-4.2974,-4.2974,-4.2974,-4.2974,-4.2862,-4.2862,-4.2862,-4.2862,-4.2862,-4.2793,-4.2737,-4.2737,-4.2737,-4.2681,-4.1501,-4.0916,-4.0858,-3.937,-3.8662,-3.8484,-3.8164,-3.8033,-3.8033,-3.8033,-3.7925,-3.7626,-3.7626,-3.6342,-3.4613,0.0,0.0,0.0,0.0,0.0,0.0,0.0,0.0,0.0,0.0,-1.8256,-1.8656,-1.9228,-1.957,-1.998,0.0,0.0,0.0,0.0,0.0,0.0,0.0,0.0,0.0,-2.5735,-2.6495,-2.7424,-2.8502,-2.9378,-2.9792,-2.9792,-2.9792,-2.9792,-2.9792,-2.9792,-2.9792,-2.9792,-2.9792,0.0,0.0,0.0,0.0,0.0,0.0,0.0,0.0,-3.1857,-3.2438,0.0,0.0,0.0,0.0,0.0,0.0,0.0,0.0,-3.5069,-3.5621,-3.6267,0.0,-3.6405,-3.6405,-3.6405,-3.6405,0.0,-3.6405,-3.6405,-3.6405,-3.6405,-3.6405,-3.6405,-3.6405,-3.6405,-3.6405,-3.7174,-3.7864,-3.799,-3.8868,-3.9546,-3.9685,-4.0664,-4.1288,-4.1288,-4.2333,-4.2974,-4.2974,-4.2974,-4.2974,-4.2974,-4.2974,-4.2569,-4.157,-4.157,-4.157,-4.157,-4.157,-4.1043,-4.0094,-4.0094,-4.0094,-4.0094,-3.9803,-3.951,-3.9252,-3.8839,-3.7996,-3.6842,-3.6781,-3.6721,-3.6721,-3.6721,-3.6539,-3.6284,-3.6284,-3.5149,-3.3651,0.0,0.0,0.0,0.0,0.0,0.0,0.0,0.0,0.0,0.0,0.0,-1.8763,0.0,0.0,0.0,0.0,0.0,0.0,0.0,0.0,0.0,0.0,0.0,-2.2961,-2.5231,-2.6073,-2.6935,-2.7851,-2.917,-2.9792,-2.9792,-2.9792,-2.9792,-2.9792,-2.9792,-2.9792,-2.9792,-2.9792,-2.9942,0.0,-3.0264,0.0,0.0,0.0,0.0,0.0,-3.1448,-3.2264,0.0,-3.337,-3.3282,-3.3162,0.0,0.0,0.0,0.0,-3.529,-3.5981,-3.6329,-3.6405,-3.6405,-3.6405,-3.6405,-3.6405,-3.6405,-3.6405,-3.6405,-3.6405,-3.6405,-3.6405,-3.6405,-3.6405,-3.6493,-3.6744,-3.745,-3.8191,-3.8705,-3.9308,-3.9697,-3.9697,-4.0664,-4.1288,-4.1288,-4.2333,-4.2974,-4.2974,-4.2974,-4.2974,-4.2974,-4.2444,-4.1797,-4.11,-4.0512,-4.0222,-4.0222,-4.0222,-3.9803,-3.8969,-3.8969,-3.8969,-3.8969,-3.8186,-3.7817,-3.7757,-3.6864,-3.6021,-3.517,-3.5046,-3.4984,-3.4984,-3.4984,-3.486,-3.4674,-3.4674,-3.4133,-3.3389,0.0,0.0,0.0,0.0,0.0,0.0,0.0,0.0,0.0,0.0,0.0,0.0,0.0,0.0,0.0,0.0,0.0,0.0,0.0,0.0,0.0,0.0,-2.2137,-2.2752,-2.4428,-2.5736,-2.673,-2.7273,-2.8922,-2.9753,-2.9792,-2.9792,-2.9792,-2.9792,-2.9663,-2.9675,-2.9804,-2.988,-3.0181,-3.0591,-3.0275,0.0,0.0,0.0,0.0,0.0,0.0,0.0,0.0,-3.3433,-3.337,-3.3156,-3.3621,0.0,0.0,0.0,0.0,0.0,-3.6405,-3.6405,-3.6405,-3.6405,-3.6405,-3.6405,-3.6405,-3.6405,-3.6405,-3.6405,-3.6405,-3.6405,-3.6405,-3.6405,-3.6593,-3.7098,-3.7726,-3.8504,-3.9546,-3.9697,-3.9697,-3.9697,-4.0664,-4.1288,-4.1288,-4.2333,-4.2974,-4.2974,-4.2793,-4.2737,-4.2737,-4.1501,-4.0743,-4.0512,-3.944,-3.8744,-3.8566,-3.8744,-3.8614,-3.8127,-3.8067,-3.8067,-3.8007,-3.661,-3.6133,-3.6266,-3.4642,-3.3859,-3.3796,-3.3544,-3.3418,-3.3418,-3.3418,-3.3418,-3.3418,-3.3418,-3.3418,-3.3418,0.0,0.0,0.0,0.0,0.0,0.0,0.0,0.0,0.0,0.0,0.0,0.0,0.0,0.0,0.0,0.0,0.0,0.0,0.0,0.0,0.0,-2.2443,-2.2425,-2.315,-2.4682,-2.5681,-2.6748,-2.7931,-2.8976,-2.956,-2.9792,-2.9792,-2.9792,-2.9753,-2.904,-2.9131,-2.9829,-3.0294,-3.0532,-3.0616,-3.0676,0.0,0.0,0.0,0.0,0.0,0.0,0.0,0.0,-3.2218,-3.2456,-3.3093,-3.3224,0.0,0.0,0.0,0.0,0.0,-3.6405,-3.6405,-3.6405,-3.6405,-3.6405,-3.6405,-3.6405,-3.6405,-3.6405,-3.6405,-3.6405,-3.6405,-3.6405,-3.6405,-3.6593,-3.7098,-3.8065,-3.8969,-3.9597,-3.9697,-3.9697,-3.9697,-4.0664,-4.1288,-4.1288,-4.2333,-4.2974,-4.2974,-4.198,-4.1386,-4.1386,-4.0164,-3.8969,-3.7899,-3.7407,-3.6642,-3.5582,-3.6631,-3.6571,-3.5459,-3.5211,-3.5077,-3.5015,-3.4777,-3.459,-3.434,-3.4037,-3.3733,-3.3481,-3.3418,-3.3418,-3.3418,-3.3418,-3.3418,-3.3418,-3.3418,-3.3418,-3.3418,0.0,0.0,0.0,0.0,0.0,0.0,0.0,0.0,0.0,0.0,0.0,0.0,0.0,0.0,0.0,0.0,0.0,0.0,0.0,0.0,-2.1865,-2.248,-2.2734,-2.3448,-2.4787,-2.5305,-2.6119,-2.7221,-2.8371,-2.8661,-2.8183,-2.8791,-2.9339,-2.9792,-2.9378,-2.9578,-3.0204,-2.9911,-3.0139,-3.0631,0.0,0.0,0.0,0.0,0.0,0.0,0.0,0.0,0.0,0.0,-3.2737,-3.2793,-3.3346,0.0,0.0,0.0,0.0,0.0,-3.6405,-3.6405,-3.6405,-3.6405,-3.6405,-3.6405,-3.6405,-3.6405,-3.6405,-3.6405,-3.6405,-3.6405,-3.6405,-3.6656,-3.7086,-3.8001,-3.8781,-3.9408,-3.9659,-3.9697,-3.9697,-3.9697,-4.0664,-4.1288,-4.1288,-4.2333,-4.2737,-4.2037,-4.1456,-4.0801,-4.0106,-3.8851,-3.7899,-3.7298,-3.6287,-3.551,-3.4922,-3.5139,-3.4953,-3.436,-3.4173,-3.411,-3.411,-3.3922,-3.3859,-3.3859,-3.3733,-3.3544,-3.3418,-3.3418,-3.3418,-3.3418,-3.3418,-3.3418,-3.3418,-3.3418,-3.3418,-3.3418,0.0,0.0,0.0,0.0,0.0,0.0,0.0,0.0,0.0,0.0,0.0,0.0,0.0,0.0,0.0,0.0,0.0,0.0,0.0,0.0,-2.2217,-2.2604,-2.2925,-2.3604,-2.4701,-2.4893,-2.5557,-2.673,-2.7597,-2.7758,-2.7221,-2.7891,-2.8752,-2.9792,-2.9722,-3.0009,-3.0593,-3.0053,-3.0199,-3.0671,0.0,0.0,0.0,0.0,0.0,0.0,0.0,0.0,0.0,0.0,0.0,0.0,0.0,0.0,0.0,-3.4831,-3.5604,-3.6405,-3.6405,-3.6405,-3.6405,-3.6405,-3.6405,-3.6405,-3.6405,-3.6405,-3.6405,-3.6405,-3.6405,-3.6455,-3.6581,-3.7159,-3.7864,-3.8781,-3.9333,-3.9697,-3.9697,-3.9697,-3.9697,-3.9697,-4.0563,-4.115,-4.1275,-4.2221,-4.2308,-4.1203,-4.0801,-4.0094,-3.8803,-3.755,-3.6824,-3.6764,-3.5459,-3.4735,-3.4673,-3.411,-3.3796,-3.3922,-3.3796,-3.3796,-3.3796,-3.3544,-3.3544,-3.3796,-3.3481,-3.3418,-3.3418,-3.3418,-3.3418,-3.3418,-3.3418,-3.3418,-3.3418,-3.3418,-3.3418,-3.3418,0.0,0.0,0.0,0.0,0.0,0.0,0.0,0.0,0.0,0.0,0.0,0.0,0.0,0.0,0.0,0.0,0.0,0.0,0.0,0.0,-2.2656,-2.3033,-2.3081,-2.356,-2.4498,-2.4541,-2.5484,-2.7424,-2.6894,-2.7221,-2.8383,-2.7557,-2.8131,-2.9778,-2.9475,-2.9812,-3.0643,-3.1592,-3.1538,-3.075,-3.0242,0.0,0.0,0.0,0.0,0.0,0.0,0.0,0.0,0.0,0.0,0.0,0.0,0.0,-3.4781,-3.5295,-3.5906,-3.6405,-3.6405,-3.6405,-3.6405,-3.6405,-3.6405,-3.6405,-3.6405,-3.6405,-3.6405,-3.6405,-3.6405,-3.6568,-3.7023,-3.8064,-3.8781,-3.8906,-3.9333,-3.9697,-3.9697,-3.9697,-3.9697,-3.9697,-4.0212,-4.0724,-4.1238,-4.1869,-4.1966,-4.1179,-3.9978,-3.8803,-3.7478,-3.6247,-3.5407,-3.5098,-3.4673,-3.4298,-3.3985,-3.3607,-3.3607,-3.3922,-3.3607,-3.3418,-3.3418,-3.3418,-3.3418,-3.3418,-3.3418,-3.3418,-3.3418,-3.3418,-3.3418,-3.3418,-3.3418,-3.3418,-3.3418,-3.3418,-3.3418,-3.3418,0.0,0.0,0.0,0.0,0.0,0.0,0.0,0.0,0.0,0.0,0.0,0.0,0.0,0.0,0.0,0.0,0.0,0.0,0.0,-2.2432,-2.2705,-2.3081,-2.3091,-2.3266,-2.3604,-2.3787,-2.4456,-2.561,-2.5641,-2.6254,-2.7476,-2.8128,-2.8497,-2.8573,-2.9385,-2.975,-2.9806,-3.0228,-3.0422,-3.0398,-3.027,-2.9852,0.0,0.0,0.0,0.0,0.0,0.0,0.0,0.0,-3.2645,-3.2759,-3.3658,-3.4274,-3.4826,-3.5332,-3.5931,-3.6405,-3.6405,-3.6405,-3.6405,-3.6405,-3.6405,-3.6405,-3.6405,-3.6405,-3.6405,-3.6405,-3.6681,-3.7197,-3.8114,-3.863,-3.8981,-3.932,-3.9559,-3.9697,-3.9697,-3.9697,-3.9697,-3.9697,-4.0174,-4.0601,-4.0802,-4.0953,-4.056,-3.9486,-3.8562,-3.7489,-3.6186,-3.5469,-3.5046,-3.4922,-3.436,-3.4047,-3.3922,-3.3544,-3.3481,-3.3607,-3.3481,-3.3418,-3.3418,-3.3418,-3.3418,-3.3418,-3.3418,-3.3418,-3.3418,-3.3418,-3.3418,-3.3418,-3.3418,-3.3418,-3.3418,-3.3418,-3.3418,-3.3418,0.0,0.0,0.0,0.0,0.0,0.0,0.0,0.0,0.0,0.0,0.0,0.0,0.0,0.0,0.0,0.0,0.0,0.0,-2.2471,-2.2637,-2.2789,-2.3081,-2.3091,-2.3091,-2.3091,-2.3276,-2.3744,-2.4498,-2.4851,-2.5591,-2.6729,-2.7819,-2.8198,-2.8076,-2.9234,-2.9785,-2.9764,-2.965,-2.9971,-3.0576,-2.9988,-2.9576,0.0,0.0,0.0,0.0,0.0,0.0,0.0,0.0,-3.2881,-3.2918,-3.3538,-3.43,-3.5044,-3.5642,-3.6069,-3.6405,-3.6405,-3.6405,-3.6405,-3.6405,-3.6405,-3.6405,-3.6405,-3.6405,-3.6455,-3.6631,-3.7211,-3.8001,-3.8781,-3.9057,-3.9258,-3.9634,-3.9697,-3.9697,-3.9697,-3.9362,-3.9258,-3.9633,-3.9698,-3.9879,-4.0448,-4.0061,-3.943,-3.8447,-3.7606,-3.6563,-3.5284,-3.5046,-3.4797,-3.461,-3.411,-3.3859,-3.3733,-3.3481,-3.3418,-3.3418,-3.3418,-3.3418,-3.3418,-3.3418,-3.3418,-3.3418,-3.3418,-3.3418,-3.3418,-3.3418,-3.3418,-3.3418,-3.3418,-3.3418,-3.3418,-3.3418,-3.3418,-3.3418,0.0,0.0,0.0,0.0,0.0,0.0,0.0,0.0,0.0,0.0,0.0,0.0,0.0,0.0,0.0,0.0,0.0,0.0,-2.2519,-2.2867,-2.3091,-2.3091,-2.3091,-2.3091,-2.3091,-2.3091,-2.356,-2.4498,-2.4712,-2.536,-2.6465,-2.6292,-2.7018,-2.8482,-2.9028,-2.9852,-3.075,-3.0367,-3.0722,-3.1403,-2.9498,-2.9557,-3.073,0.0,0.0,0.0,0.0,0.0,0.0,0.0,-3.2213,-3.382,-3.3457,-3.433,-3.5608,-3.6194,-3.6405,-3.6405,-3.6405,-3.6405,-3.6405,-3.6405,-3.6405,-3.6405,-3.6417,-3.6417,-3.6568,-3.7086,-3.809,-3.8919,-3.8932,-3.932,-3.9697,-3.9697,-3.9697,-3.9697,-3.9685,-3.8659,-3.8332,-3.953,-3.8607,-3.8538,-4.0292,-3.9443,-3.8658,-3.8378,-3.7247,-3.605,-3.4953,-3.4922,-3.461,-3.3922,-3.3922,-3.3733,-3.3418,-3.3418,-3.3418,-3.3418,-3.3418,-3.3418,-3.3418,-3.3418,-3.3418,-3.3418,-3.3418,-3.3418,-3.3418,-3.3418,-3.3418,-3.3418,-3.3418,-3.3418,-3.3418,-3.3418,-3.3418,-3.3418,0.0,0.0,0.0,0.0,0.0,0.0,0.0,0.0,0.0,0.0,0.0,0.0,0.0,0.0,0.0,0.0,0.0,0.0,-2.2886,-2.3023,-2.3091,-2.3091,-2.3091,-2.3091,-2.3091,-2.3091,-2.3222,-2.3517,-2.451,-2.506,-2.5158,-2.7063,-2.7569,-2.6957,-2.8276,-2.8943,-2.9034,-2.9109,-2.9873,-3.1054,-3.1225,-3.1356,-3.1444,0.0,0.0,0.0,0.0,0.0,0.0,0.0,0.0,0.0,-3.4539,-3.5173,-3.5608,-3.6194,-3.6405,-3.6405,-3.6405,-3.6405,-3.6405,-3.6405,-3.6405,-3.6505,-3.6908,-3.6935,-3.726,-3.8228,-3.868,-3.9045,-3.9383,-3.9584,-3.9697,-3.9697,-3.9697,-3.9413,-3.8542,-3.8108,-3.7725,-3.7275,-3.6727,-3.6677,-3.738,-3.6516,-3.5902,-3.5813,-3.5306,-3.4736,-3.4145,-3.419,-3.411,-3.3922,-3.367,-3.3481,-3.3418,-3.3418,-3.3418,-3.3418,-3.3418,-3.3418,-3.3418,-3.3418,-3.3418,-3.3418,-3.3418,-3.3418,-3.3418,-3.3418,-3.3418,-3.3418,-3.3418,-3.3418,-3.3418,-3.3418,-3.3418,-3.3418,0.0,0.0,0.0,0.0,0.0,0.0,0.0,0.0,0.0,0.0,0.0,0.0,0.0,0.0,0.0,0.0,0.0,0.0,0.0,-2.3091,-2.3091,-2.3091,-2.3091,-2.3091,-2.3091,-2.3091,-2.3179,-2.3398,-2.4193,-2.4733,-2.509,-2.666,-2.715,-2.6681,-2.7599,-2.8164,-2.8481,-2.8874,-2.9713,-3.087,-3.1808,-3.2078,-3.1984,0.0,0.0,0.0,0.0,0.0,0.0,0.0,0.0,0.0,-3.4755,-3.5354,-3.5931,-3.6304,-3.6405,-3.6405,-3.6405,-3.6405,-3.6405,-3.6405,-3.6061,-3.596,-3.6726,-3.7381,-3.804,-3.8781,-3.9095,-3.9295,-3.9634,-3.9697,-3.9697,-3.9697,-3.9697,-3.9258,-3.8056,-3.7512,-3.69,-3.612,-3.5409,-3.5245,-3.5804,-3.4855,-3.4279,-3.4472,-3.3935,-3.3589,-3.3575,-3.3659,-3.3681,-3.3733,-3.3491,-3.3418,-3.3418,-3.3418,-3.3418,-3.3418,-3.3418,-3.3418,-3.3418,-3.3418,-3.3418,-3.3418,-3.3418,-3.3418,-3.3418,-3.3418,-3.3418,-3.3418,-3.3418,-3.3418,-3.3418,-3.3418,-3.3418,-3.3418,0.0,0.0,0.0,0.0,0.0,0.0,0.0,0.0,0.0,0.0,0.0,0.0,0.0,0.0,0.0,0.0,0.0,0.0,0.0,0.0,-2.3091,-2.3091,-2.3091,-2.3091,-2.3091,-2.314,-2.3389,-2.3834,-2.3834,-2.4521,-2.5857,-2.5641,-2.6121,-2.7214,-2.6986,-2.7557,-2.8765,-2.9154,-2.9894,-3.0843,-3.1453,-3.2004,-3.2365,-3.1467,0.0,0.0,0.0,0.0,0.0,0.0,0.0,0.0,-3.4303,-3.5071,-3.6263,-3.6263,-3.6263,-3.6263,-3.6358,-3.6405,-3.6405,-3.6405,-3.5741,-3.5319,-3.6184,-3.7712,-3.8994,-3.8994,-3.9346,-3.9697,-3.9581,-3.9633,-3.9633,-3.9413,-3.9478,-3.9089,-3.7779,-3.6684,-3.5859,-3.5453,-3.4436,-3.4056,-3.4914,-3.3957,-3.3462,-3.3895,-3.3046,-3.2635,-3.3119,-3.3176,-3.328,-3.335,-3.3398,-3.3418,-3.3418,-3.3418,-3.3418,-3.3418,-3.3418,-3.3418,-3.3418,-3.3418,-3.3418,-3.3418,-3.3418,-3.3418,-3.3418,-3.3418,-3.3418,-3.3418,-3.3418,-3.3418,-3.3418,-3.3418,-3.3418,-3.3418,0.0,0.0,0.0,0.0,0.0,0.0,0.0,0.0,0.0,0.0,0.0,0.0,0.0,0.0,0.0,0.0,0.0,0.0,0.0,0.0,-2.3091,-2.3091,-2.3091,-2.3091,-2.3091,-2.3477,-2.3781,-2.4048,-2.4048,-2.459,-2.5598,-2.5688,-2.6064,-2.6688,-2.6853,-2.7639,-2.8901,-2.8443,-2.924,-3.0806,-3.1003,-3.1881,-3.299,-3.2791,-3.364,0.0,0.0,0.0,0.0,0.0,0.0,0.0,-3.3719,-3.4193,-3.5126,-3.5126,-3.5126,-3.5319,-3.6156,-3.6405,-3.6405,-3.6405,-3.6853,-3.7147,-3.6555,-3.7995,-3.9521,-3.9521,-3.9609,-3.9413,-3.8437,-3.9037,-3.9089,-3.7222,-3.7713,-3.7566,-3.5509,-3.4792,-3.4123,-3.313,-3.2342,-3.2055,-3.2504,-3.2102,-3.1797,-3.1898,-3.2016,-3.2068,-3.1897,-3.2554,-3.2894,-3.293,-3.3252,-3.3418,-3.3418,-3.3418,-3.3418,-3.3418,-3.3418,-3.3418,-3.3418,-3.3418,-3.3418,-3.3418,-3.3418,-3.3418,-3.3418,-3.3418,-3.3418,-3.3418,-3.3418,-3.3418,-3.3418,-3.3418,-3.3418,-3.3418,0.0,0.0,0.0,0.0,0.0,0.0,0.0,0.0,0.0,0.0,0.0,0.0,0.0,0.0,0.0,0.0,0.0,0.0,0.0,0.0,-2.3777,-2.3777,-2.3353,-2.3091,-2.3091,-2.3564,-2.3932,-2.4218,-2.448,-2.4954,-2.5644,-2.5722,-2.6084,-2.6709,-2.6932,-2.7852,-2.9217,-2.9293,-3.0209,-3.167,-3.2438,-3.2948,-3.3201,-3.3201,-3.3375,-3.3473,-3.2453,0.0,0.0,0.0,0.0,0.0,0.0,0.0,-3.403,-3.403,-3.403,-3.4288,-3.5319,-3.5271,-3.4727,-3.4215,-3.5668,-3.6969,-3.5868,-3.7761,-3.9697,-3.9697,-3.9258,-3.8816,-3.8764,-3.8372,-3.7779,-3.7126,-3.7061,-3.648,-3.4747,-3.419,-3.3515,-3.2248,-3.1614,-3.1334,-3.1334,-3.1228,-3.1112,-3.1112,-3.1319,-3.1486,-3.1514,-3.1943,-3.2373,-3.2783,-3.3008,-3.3223,-3.3418,-3.3418,-3.3418,-3.3418,-3.3418,-3.3418,-3.3418,-3.3418,-3.3418,-3.3418,-3.3418,-3.3418,-3.3418,-3.3418,-3.3418,-3.3418,-3.3418,-3.3418,-3.3418,-3.3418,-3.3418,-3.3418,0.0,0.0,0.0,0.0,0.0,0.0,0.0,0.0,0.0,0.0,0.0,0.0,0.0,0.0,0.0,0.0,0.0,0.0,0.0,0.0,0.0,-2.4284,-2.3517,-2.313,-2.3208,-2.3672,-2.4102,-2.4531,-2.4971,-2.5423,-2.5764,-2.5711,-2.617,-2.6937,-2.7107,-2.8017,-2.9499,-3.0229,-3.1158,-3.2162,-3.3461,-3.3537,-3.2901,-3.2901,-3.2488,-3.179,-3.0888,-3.1699,-3.3051,-3.1982,0.0,0.0,0.0,0.0,-3.2901,-3.2901,-3.2901,-3.3151,-3.4239,-3.3895,-3.2951,-3.188,-3.4037,-3.6084,-3.4826,-3.7064,-3.9362,-3.9362,-3.8607,-3.8161,-3.8933,-3.7501,-3.636,-3.6911,-3.636,-3.5498,-3.4302,-3.3853,-3.313,-3.1845,-3.145,-3.116,-3.0947,-3.0889,-3.0889,-3.0889,-3.0889,-3.1045,-3.1396,-3.1475,-3.1846,-3.2549,-3.2715,-3.2959,-3.331,-3.3389,-3.3418,-3.3418,-3.3418,-3.3418,-3.3418,-3.3418,-3.3418,-3.3418,-3.3418,-3.3418,-3.3418,-3.3418,-3.3418,-3.3418,-3.3418,-3.3418,-3.3418,-3.3418,-3.3418,-3.3418,0.0,0.0,0.0,0.0,0.0,0.0,0.0,0.0,0.0,0.0,0.0,0.0,0.0,0.0,0.0,0.0,0.0,0.0,-2.4241,0.0,0.0,-2.3309,-2.3178,-2.3276,-2.3691,-2.4121,-2.4541,-2.5028,-2.543,-2.5644,-2.5693,-2.5703,-2.6231,-2.7139,-2.6933,-2.7773,-2.9328,-2.9208,-2.9642,-3.0359,-3.0578,-3.1084,-3.183,-3.183,-3.2286,-3.2951,-3.2801,-3.2951,-3.3051,-3.1982,-3.2387,0.0,0.0,0.0,-3.183,-3.183,-3.183,-3.2033,-3.3139,-3.33,-3.2951,-3.188,-3.4037,-3.588,-3.3802,-3.5845,-3.8161,-3.8161,-3.8003,-3.7672,-3.6846,-3.6402,-3.5597,-3.3706,-3.4145,-3.4246,-3.281,-3.2295,-3.1893,-3.1441,-3.1112,-3.0947,-3.0889,-3.0889,-3.0889,-3.0889,-3.0889,-3.0918,-3.0976,-3.1318,-3.1572,-3.1689,-3.2412,-3.2822,-3.2881,-3.3242,-3.3418,-3.3418,-3.3418,-3.3418,-3.3418,-3.3418,-3.3418,-3.3418,-3.3418,-3.3418,-3.3418,-3.3418,-3.3418,-3.3418,-3.3418,-3.3418,-3.3418,-3.3418,-3.3418,-3.3418,0.0,0.0,0.0,0.0,0.0,0.0,0.0,0.0,0.0,0.0,0.0,0.0,0.0,0.0,0.0,-2.3144,-2.356,-2.4284,-2.5158,-2.4284,-2.3888,-2.4216,-2.3762,-2.3701,-2.4131,-2.456,-2.4873,-2.5116,-2.5518,-2.5693,-2.5693,-2.5986,-2.6399,-2.6973,-2.7272,-2.8268,-2.9728,-2.9405,-3.0192,-3.1524,-3.0929,-3.1032,-3.1575,-3.1575,-3.1534,-3.1403,-3.1403,-3.179,-3.2134,-3.1094,-3.1443,-3.2033,-3.0495,0.0,0.0,0.0,-3.0681,-3.0795,-3.13,-3.1841,-3.2044,-3.0991,-3.2461,-3.4119,-3.4091,-3.5338,-3.6826,-3.7719,-3.6858,-3.6208,-3.7019,-3.5553,-3.4145,-3.3773,-3.3604,-3.3208,-3.242,-3.2018,-3.1672,-3.1325,-3.1054,-3.0889,-3.0889,-3.0889,-3.0889,-3.0889,-3.0889,-3.0889,-3.0889,-3.1064,-3.1269,-3.1514,-3.1885,-3.2305,-3.2793,-3.2978,-3.3193,-3.3418,-3.3418,-3.3418,-3.3418,-3.3418,-3.3418,-3.3418,-3.3418,-3.3418,-3.3418,-3.3418,-3.3418,-3.3418,-3.3418,-3.3418,-3.3418,-3.3418,-3.3418,-3.3418,0.0,0.0,0.0,0.0,0.0,0.0,0.0,0.0,0.0,0.0,0.0,0.0,0.0,0.0,0.0,0.0,-2.395,-2.4659,-2.5073,-2.4376,-2.421,-2.4764,-2.4237,-2.415,-2.457,-2.4902,-2.5174,-2.5234,-2.5528,-2.5742,-2.5908,-2.624,-2.6594,-2.7061,-2.7601,-2.8574,-2.9845,-2.9599,-3.0453,-3.1909,-3.1176,-3.1032,-3.1176,-3.1176,-3.063,-2.9889,-2.9889,-3.0432,-3.0981,-3.0183,-3.0484,-3.1032,-3.0245,-2.9994,0.0,0.0,0.0,-2.9994,-2.9994,-3.0588,-3.0981,-3.0193,-3.1188,-3.2696,-3.3876,-3.4653,-3.5489,-3.695,-3.5529,-3.4636,-3.6642,-3.4636,-3.3001,-3.3875,-3.3275,-3.2555,-3.219,-3.196,-3.1672,-3.1276,-3.0995,-3.0889,-3.0889,-3.0889,-3.0889,-3.0889,-3.0889,-3.0889,-3.0889,-3.0889,-3.1035,-3.1348,-3.1465,-3.1875,-3.2627,-3.2842,-3.3115,-3.3418,-3.3418,-3.3418,-3.3418,-3.3418,-3.3418,-3.3418,-3.3418,-3.3418,-3.3418,-3.3418,-3.3418,-3.3418,-3.3418,-3.3418,-3.3418,-3.3418,-3.3418,-3.3418,0.0,0.0,0.0,0.0,0.0,0.0,0.0,0.0,0.0,0.0,0.0,0.0,-2.3178,-2.4648,-2.4988,-2.3266,-2.395,-2.4155,-2.3309,-2.5195,-2.5577,-2.3959,-2.417,0.0,-2.5077,-2.5106,-2.5273,-2.5654,-2.5674,-2.5947,-2.6357,-2.6377,-2.6877,-2.765,-2.7669,-2.8229,-2.9144,-2.9112,-2.9396,-2.9754,-2.9984,-3.0047,-3.0099,-3.0099,-2.9879,-2.9606,-2.9606,-2.9659,-2.9711,-2.9659,-2.9827,-3.0088,-2.9994,-2.9994,-2.9994,0.0,0.0,0.0,-2.9994,-3.0047,-3.0047,-2.9994,-3.1188,-3.24,-3.2433,-3.3178,-3.4183,-3.5314,-3.4097,-3.3161,-3.4424,-3.3604,-3.2737,-3.2784,-3.2727,-3.2498,-3.1903,-3.1787,-3.1566,-3.1005,-3.0889,-3.0889,-3.0889,-3.0889,-3.0889,-3.0889,-3.0889,-3.0889,-3.0889,-3.0889,-3.0898,-3.0928,-3.1309,-3.1738,-3.2258,-3.2988,-3.3398,-3.3418,-3.3418,-3.3418,-3.3418,-3.3418,-3.3418,-3.3418,-3.3418,-3.3418,-3.3418,-3.3418,-3.3418,-3.3418,-3.3418,-3.3418,-3.3418,-3.3418,-3.3418,-3.3418,0.0,0.0,0.0,0.0,0.0,0.0,0.0,0.0,0.0,0.0,0.0,0.0,0.0,-2.4349,-2.4059,-2.3983,-2.4038,-2.4419,-2.5227,-2.5214,-2.4982,-2.4646,-2.4756,-2.5039,-2.5488,-2.5498,-2.5576,-2.5693,-2.5693,-2.5967,-2.6396,-2.666,-2.71,-2.7718,-2.7865,-2.8311,-2.8824,-2.9026,-2.929,-2.9606,-2.9448,-2.9554,-2.9722,-2.9501,-2.9343,-2.929,-2.9501,-2.9606,-2.9606,-2.9774,-2.9827,-2.9774,-2.9942,-2.9722,-2.9459,-2.9669,-2.9889,-2.9994,-2.9994,-2.9994,-2.9994,-2.9994,-3.0412,-3.1115,-3.2126,-3.2862,-3.3528,-3.4214,-3.4075,-3.3773,-3.3388,-3.3001,-3.2612,-3.2487,-3.243,-3.2201,-3.1556,-3.1498,-3.1334,-3.0947,-3.0889,-3.0889,-3.0889,-3.0889,-3.0889,-3.0889,-3.0889,-3.0889,-3.0889,-3.0889,-3.0889,-3.0889,-3.1035,-3.1455,-3.2158,-3.2734,-3.3154,-3.3418,-3.3418,-3.3418,-3.3418,-3.3418,-3.3418,-3.3418,-3.3418,-3.3418,-3.3418,-3.3418,-3.3418,-3.3418,-3.3418,-3.3418,-3.3418,-3.3418,-3.3418,-3.3418,0.0,0.0,0.0,0.0,0.0,0.0,0.0,0.0,0.0,-2.4456,0.0,0.0,0.0,0.0,-2.4561,-2.5367,-2.5432,-2.5698,-2.6258,-2.5858,-2.5434,-2.5096,-2.5215,-2.543,-2.5684,-2.5693,-2.5693,-2.5693,-2.584,-2.6182,-2.6611,-2.7031,-2.7461,-2.7924,-2.8177,-2.8397,-2.8568,-2.8973,-2.9237,-2.9448,-2.9396,-2.9501,-2.9606,-2.9343,-2.9132,-2.8983,-2.9248,-2.9353,-2.9448,-2.9617,-2.9722,-2.9774,-2.9827,-2.9617,-2.929,-2.9554,-2.9774,-2.9994,-2.9994,-2.9994,-2.9994,-2.9994,-2.9994,-3.037,-3.1834,-3.2227,-3.2502,-3.3345,-3.3571,-3.3468,-3.281,-3.2669,-3.2612,-3.2373,-3.2305,-3.2076,-3.1383,-3.1325,-3.1218,-3.0947,-3.0889,-3.0889,-3.0889,-3.0889,-3.0889,-3.0889,-3.0889,-3.0889,-3.0889,-3.0889,-3.0889,-3.0889,-3.1025,-3.1377,-3.1943,-3.251,-3.2939,-3.3213,-3.335,-3.3418,-3.3418,-3.3418,-3.3418,-3.3418,-3.3418,-3.3418,-3.3418,-3.3418,-3.3418,-3.3418,-3.3418,-3.3418,-3.3418,-3.3418,-3.3418,-3.3418,0.0,0.0,0.0,0.0,0.0,0.0,0.0,0.0,-2.5495,-2.4616,0.0,0.0,0.0,0.0,0.0,-2.7316,-2.8147,-2.7875,-2.6079,-2.7134,-2.7034,-2.5183,-2.5508,-2.5693,-2.5693,-2.5703,-2.5703,-2.5703,-2.6191,-2.6621,-2.7041,-2.7471,-2.7943,-2.8291,-2.8568,-2.8568,-2.8344,-2.8867,-2.9132,-2.9185,-2.9722,-2.9827,-2.9554,-2.9554,-2.9195,-2.8684,-2.8684,-2.8877,-2.9079,-2.9079,-2.9459,-2.9942,-2.9669,-2.9606,-2.9606,-2.9606,-2.9774,-2.9994,0.0,0.0,0.0,-2.9994,-2.9994,-3.0245,-3.1278,-3.1105,-3.1113,-3.2523,-3.2431,-3.2157,-3.2623,-3.2649,-3.2592,-3.2305,-3.2315,-3.2076,-3.1383,-3.1267,-3.1218,-3.0947,-3.0889,-3.0889,-3.0889,-3.0889,-3.0889,-3.0889,-3.0889,-3.0889,-3.0889,-3.0889,-3.0889,-3.0889,-3.1289,-3.1504,-3.1514,-3.2353,-3.2783,-3.2803,-3.3223,-3.3418,-3.3418,-3.3418,-3.3418,-3.3418,-3.3418,-3.3418,-3.3418,-3.3418,-3.3418,-3.3418,-3.3418,-3.3418,-3.3418,-3.3418,-3.3418,-3.3418,0.0,0.0,0.0,0.0,0.0,0.0,-2.3691,-2.4819,-2.5495,0.0,0.0,0.0,-2.6567,-2.7671,-2.8365,-2.8341,-2.7744,-2.7368,-2.7358,-2.6682,-2.6056,-2.5547,-2.5625,-2.5693,-2.5693,-2.6045,-2.6211,-2.6211,-2.6631,-2.706,-2.749,-2.766,-2.7996,-2.8568,-2.8684,-2.8781,-2.892,-2.929,-2.9448,-2.9501,-2.9659,-2.9406,-2.894,-2.894,-2.8717,-2.8461,-2.8621,-2.8727,-2.8824,-2.9026,-2.9089,-2.9056,-2.8993,-2.9248,-2.9606,-2.9606,-2.9659,0.0,-2.9711,0.0,0.0,0.0,0.0,0.0,-3.0109,-3.0769,-3.1349,-3.1294,-3.1954,-3.242,-3.2249,-3.2051,-3.1927,-3.191,-3.196,-3.1787,-3.1383,-3.1112,-3.1005,-3.0889,-3.0889,-3.0889,-3.0889,-3.0889,-3.0889,-3.0889,-3.0889,-3.0889,-3.0889,-3.0889,-3.0889,-3.0889,-3.1006,-3.1211,-3.1514,-3.206,-3.249,-3.2803,-3.3223,-3.3418,-3.3418,-3.3418,-3.3418,-3.3418,-3.3418,-3.3418,-3.3418,-3.3418,-3.3418,-3.3418,-3.3418,-3.3418,-3.3418,-3.3418,-3.3418,-3.3418,0.0,0.0,0.0,0.0,0.0,-2.5391,-2.4139,-2.5828,-2.6875,0.0,0.0,0.0,-2.8602,-2.8694,-2.8958,-2.957,-2.9238,-2.9038,-2.9128,-2.8354,-2.7673,-2.7247,-2.6829,-2.6691,-2.6921,-2.6675,-2.6665,-2.6842,-2.7131,-2.7412,-2.7728,-2.8009,-2.8331,-2.8727,-2.893,-2.9089,-2.9132,-2.9564,-2.9722,-2.9606,-2.9606,-2.93,-2.8824,-2.8727,-2.8514,-2.8291,-2.8461,-2.8631,-2.8727,-2.8877,-2.8953,-2.9005,-2.9005,-2.9339,-2.9749,-2.9749,-2.9847,0.0,0.0,0.0,0.0,-2.9454,0.0,0.0,-2.9447,-3.0002,-3.0494,-3.0358,-3.0971,-3.15,-3.154,-3.14,-3.1376,-3.1663,-3.163,-3.1404,-3.1199,-3.1005,-3.0889,-3.0889,-3.0889,-3.0889,-3.0889,-3.0889,-3.0889,-3.0889,-3.0889,-3.0889,-3.0889,-3.0889,-3.0889,-3.0889,-3.0889,-3.1006,-3.126,-3.168,-3.2109,-3.2539,-3.2959,-3.3252,-3.3418,-3.3418,-3.3418,-3.3418,-3.3418,-3.3418,-3.3418,-3.3418,-3.3418,-3.3418,-3.3418,-3.3418,-3.3418,-3.3418,-3.3418,-3.3418,0.0,0.0,-2.3242,-2.3203,-2.4764,-2.5817,-2.5171,-2.7524,-2.8856,0.0,-2.8896,-3.0041,-2.9808,-2.907,-2.9262,-3.0911,-3.156,-3.1605,-3.0946,-3.0859,-3.042,-2.9531,-2.8556,-2.8322,-2.8844,-2.7734,-2.7282,-2.7662,-2.8018,-2.809,-2.7849,-2.8592,-2.8887,-2.8834,-2.9353,-2.9448,-2.9237,-2.9784,-2.9879,-2.9659,-2.9606,-2.9396,-2.9026,-2.8834,-2.8568,-2.8344,-2.8344,-2.8514,-2.8684,-2.8734,-2.904,-2.9406,-2.9471,-2.9729,-3.0036,-3.0026,-3.0183,0.0,0.0,0.0,0.0,-2.9858,-2.9822,0.0,-2.926,-2.9096,-2.9196,-2.9655,-2.9681,-2.992,-3.0628,-3.0764,-3.0862,-3.1365,-3.1156,-3.094,-3.0927,-3.0889,-3.0889,-3.0889,-3.0889,-3.0889,-3.0889,-3.0889,-3.0889,-3.0889,-3.0889,-3.0889,-3.0889,-3.0889,-3.0889,-3.0889,-3.0889,-3.0889,-3.0889,-3.1309,-3.1738,-3.2178,-3.2598,-3.3018,-3.3418,-3.3418,-3.3418,-3.3418,-3.3418,-3.3418,-3.3418,-3.3418,-3.3418,-3.3418,-3.3418,-3.3418,-3.3418,-3.3418,-3.3418,-3.3418,0.0,-2.3691,-2.4105,-2.3737,-2.5808,-2.6958,-2.5128,-2.7741,-2.9183,-2.7073,-2.8781,-3.0217,-3.0322,-3.1236,-3.1879,-3.2101,-3.1669,-3.1247,-3.0935,-3.0537,-3.0234,-3.0047,-2.9487,-2.9553,-3.0281,-2.9533,-2.9173,-2.9267,-3.0534,-3.0368,-2.8853,-2.9828,-2.9974,-2.9448,-2.9554,-2.9659,-2.9827,-2.9942,-2.9994,-2.9889,-2.9669,-2.9248,-2.8781,-2.8983,-2.8887,-2.8621,-2.8621,-2.8674,-2.8734,-2.88,-2.9147,-2.962,-2.9796,-2.9967,-3.0026,-3.0238,-3.0183,-3.0082,-3.0082,-3.0082,-3.0006,-2.9695,-2.9786,0.0,-2.947,-2.9134,-2.8992,-2.9206,-2.906,-2.9146,-2.99,-2.9828,-2.9824,-3.0252,-3.0089,-3.0197,-3.111,-3.1054,-3.0889,-3.0889,-3.0889,-3.0889,-3.0889,-3.0889,-3.0889,-3.0889,-3.0889,-3.0889,-3.0889,-3.0889,-3.0889,-3.0889,-3.0889,-3.0889,-3.0889,-3.1309,-3.1738,-3.2178,-3.2598,-3.3018,-3.3418,-3.3418,-3.3418,-3.3418,-3.3418,-3.3418,-3.3418,-3.3418,-3.3418,-3.3418,-3.3418,-3.3418,-3.3418,-3.3418,-3.3418,-3.3418,-2.4109,-2.4753,-2.5277,-2.555,-2.7106,-2.7933,-2.6658,-2.8859,-3.0145,-2.8801,-2.9719,-3.0829,-3.1512,-3.1713,-3.2033,-3.2692,-3.2497,-3.2366,-3.2378,-3.2445,-3.2446,-3.2446,-3.1761,-3.1682,-3.2329,-3.1392,-3.0752,-3.0464,-3.1036,-3.0587,-2.9132,-2.9828,-2.9942,-2.9606,-2.9722,-2.9774,-2.9827,-2.9942,-2.9942,-2.9774,-2.9659,-2.9396,-2.9172,-2.9233,-2.9162,-2.904,-2.913,-2.9154,-2.9183,-2.9225,-2.9531,-2.9939,-3.0062,-3.0276,-3.0463,-3.0623,-3.0567,-3.0463,-3.0463,-3.0463,-3.0347,-2.9998,-2.9996,0.0,0.0,-2.9368,-2.93,-2.9347,-2.9085,-2.8952,-2.9505,-2.9311,-2.9203,-2.9639,-2.9599,-2.9715,-3.0354,-3.0525,-3.0547,-3.0547,-3.0752,-3.0889,-3.0889,-3.0889,-3.0889,-3.0889,-3.0889,-3.0889,-3.0889,-3.0889,-3.0889,-3.0889,-3.0889,-3.0889,-3.0889,-3.1103,-3.1416,-3.1846,-3.2275,-3.2705,-3.3115,-3.333,-3.3418,-3.3418,-3.3418,-3.3418,-3.3418,-3.3418,-3.3418,-3.3418,-3.3418,-3.3418,-3.3418,-3.3418,-3.3418,-3.3418,-2.5625,-2.5674,-2.6,-2.7336,-2.814,-2.856,-2.8398,-3.0091,-3.1286,-3.0899,-3.0946,-3.1403,-3.2307,-3.1581,-3.1472,-3.2586,-3.3037,-3.339,-3.3724,-3.4247,-3.4636,-3.4843,-3.4022,-3.3846,-3.4388,-3.3141,-3.2221,-3.1483,-3.144,-3.068,-2.929,-2.9754,-2.9858,-2.9669,-2.9889,-2.9879,-2.9722,-2.9982,-2.9962,-2.9679,-2.9853,-2.9874,-2.9727,-2.9667,-2.962,-2.9615,-2.9675,-2.9675,-2.9744,-2.9744,-2.9971,-3.0332,-3.0332,-3.0586,-3.0889,-3.0889,-3.0889,-3.0889,-3.0889,-3.0889,-3.0801,-3.042,-3.0332,-3.0215,0.0,0.0,0.0,-2.9646,-2.9287,-2.9108,-2.9401,-2.9046,-2.8868,-2.9223,-2.9268,-2.9218,-2.9333,-2.9687,-2.998,-3.0068,-3.041,-3.0664,-3.0752,-3.084,-3.0889,-3.0889,-3.0889,-3.0889,-3.0889,-3.0889,-3.0889,-3.0889,-3.0889,-3.0889,-3.0889,-3.0889,-3.1103,-3.1523,-3.1963,-3.2393,-3.2812,-3.3232,-3.3418,-3.3418,-3.3418,-3.3418,-3.3418,-3.3418,-3.3418,-3.3418,-3.3418,-3.3418,-3.3418,-3.3418,-3.3418,-3.3418,-2.7546,-2.5927,-2.5295,-2.7637,-2.8232,-2.8611,-2.9159,-3.0953,-3.2227,-3.2201,-3.1781,-3.148,-3.148,-3.1492,-3.1404,-3.1101,-3.1905,-3.2656,-3.3148,-3.3737,-3.4487,-3.5361,-3.4892,-3.498,-3.5773,-3.4703,-3.3627,-3.26,-3.3537,-3.2577,-2.9942,-3.0929,-3.0888,-2.9942,-2.9994,-2.9994,-2.9962,-3.0429,-3.0367,-3.0014,-3.083,-3.0794,-3.0133,-3.0328,-3.0399,-3.0354,-3.0062,-3.0039,-3.0127,-3.0127,-3.043,-3.081,-3.081,-3.085,-3.0889,-3.0889,-3.0889,-3.0889,-3.0889,-3.0889,-3.0879,-3.083,-3.081,-3.0693,-3.0234,0.0,-3.0019,-2.9648,0.0,-2.9548,-2.9558,0.0,0.0,-2.8971,-2.8667,-2.8442,-2.8437,-2.8799,-2.9209,-2.96,-2.9744,-2.9863,-3.0234,-3.0644,-3.0889,-3.0889,-3.0889,-3.0889,-3.0889,-3.0889,-3.0889,-3.0889,-3.0889,-3.0889,-3.0889,-3.0889,-3.1103,-3.1523,-3.1963,-3.2393,-3.2812,-3.3232,-3.3418,-3.3418,-3.3418,-3.3418,-3.3418,-3.3418,-3.3418,-3.3418,-3.3418,-3.3418,-3.3418,-3.3418,-3.3418,-3.3418,-2.841,-2.8142,-2.8678,-3.0316,-3.0673,-3.0832,-3.1101,-3.2212,-3.3107,-3.3252,-3.3336,-3.3375,-3.3285,-3.333,-3.3043,-3.2204,-3.2861,-3.337,-3.3633,-3.415,-3.4942,-3.5972,-3.5841,-3.587,-3.6228,-3.5775,-3.5017,-3.3944,-3.4434,-3.3377,-3.094,-3.1381,-3.1032,-2.9994,-2.9994,-2.9994,-3.0025,-3.0491,-3.0574,-3.0481,-3.1391,-3.1529,-3.1199,-3.0939,-3.0787,-3.0685,-3.0571,-3.0574,-3.0605,-3.0605,-3.0732,-3.0889,-3.0889,-3.0889,-3.0889,-3.0889,-3.0889,-3.0889,-3.0889,-3.0889,-3.0889,-3.0889,-3.0889,-3.084,-3.0644,-3.0605,-3.0547,-3.0371,0.0,0.0,0.0,0.0,0.0,0.0,-2.915,-2.8945,-2.8691,-2.8809,-2.8984,-2.917,-2.9414,-2.9736,-3.0156,-3.0371,-3.0605,-3.0869,-3.0889,-3.0889,-3.0889,-3.0889,-3.0889,-3.0889,-3.0889,-3.0889,-3.0889,-3.0889,-3.0976,-3.1162,-3.1846,-3.2256,-3.2451,-3.3115,-3.3418,-3.3418,-3.3418,-3.3418,-3.3418,-3.3418,-3.3418,-3.3418,-3.3418,-3.3418,-3.3418,-3.3418,-3.3418,-3.3418,-2.9463,0.0,-3.089,-3.2157,-3.2201,-3.2237,-3.2716,-3.3406,-3.3901,-3.4079,-3.4237,-3.4338,-3.4338,-3.4338,-3.3964,-3.2994,-3.3564,-3.4054,-3.4198,-3.4571,-3.5271,-3.6358,-3.6405,-3.6405,-3.6405,-3.6405,-3.5858,-3.4775,-3.4775,-3.3834,-3.2033,-3.1728,-3.1251,-3.0632,-3.0328,-3.018,-3.0222,-3.0812,-3.0915,-3.0781,-3.1816,-3.2173,-3.2051,-3.1588,-3.1287,-3.1112,-3.1054,-3.1005,-3.1005,-3.0947,-3.0889,-3.0889,-3.0889,-3.0889,-3.0889,-3.0889,-3.0889,-3.0889,-3.0889,-3.0889,-3.0889,-3.0889,-3.0889,-3.0889,-3.0889,-3.0889,-3.0889,-3.0889,-3.0625,0.0,0.0,0.0,-2.9736,0.0,0.0,-2.9453,-2.9141,-2.9092,-2.9014,-2.8779,-2.9131,-2.9512,-2.9824,-3.0059,-3.0332,-3.0674,-3.082,-3.0889,-3.0889,-3.0889,-3.0889,-3.0889,-3.0889,-3.0889,-3.0889,-3.0889,-3.0889,-3.0898,-3.1758,-3.2229,-3.2258,-3.3037,-3.3418,-3.3418,-3.3418,-3.3418,-3.3418,-3.3418,-3.3418,-3.3418,-3.3418,-3.3418,-3.3418,-3.3418,-3.3418,-3.3418,-3.1288,-3.0214,-3.0056,-3.2069,-3.1757,-3.1813,-3.3608,-3.4292,-3.4655,-3.4655,-3.3891,-3.3327,-3.3327,-3.3327,-3.3112,-3.2568,-3.3445,-3.421,-3.4727,-3.4775,-3.5271,-3.6358,-3.6405,-3.6405,-3.6405,-3.6405,-3.5858,-3.4775,-3.4775,-3.4239,-3.3151,-3.2083,-3.1826,-3.218,-3.1116,-3.0667,-3.0719,-3.1619,-3.1495,-3.0801,-3.2157,-3.2524,-3.2285,-3.2285,-3.2065,-3.173,-3.1383,-3.1267,-3.1276,-3.0995,-3.0889,-3.0889,-3.0889,-3.0889,-3.0889,-3.0889,-3.0889,-3.0889,-3.0889,-3.0889,-3.0889,-3.0889,-3.0889,-3.0889,-3.0889,-3.0889,-3.0889,-3.0889,-3.0879,-3.0869,-3.0869,-3.0488,0.0,0.0,0.0,0.0,0.0,-2.9607,-2.9238,-2.8408,-2.8682,-2.8945,-2.8955,-2.9707,-3.0205,-3.0215,-3.0635,-3.0889,-3.0889,-3.0889,-3.0889,-3.0889,-3.0889,-3.0889,-3.0889,-3.0889,-3.0889,-3.0898,-3.1758,-3.2229,-3.2258,-3.3037,-3.3418,-3.3418,-3.3418,-3.3418,-3.3418,-3.3418,-3.3418,-3.3418,-3.3418,-3.3418,-3.3418,-3.3418,-3.3418,-3.3418,-3.3056,-3.2926,-3.3015,-3.3332,-3.3157,-3.333,-3.4259,-3.4868,-3.5219,-3.5219,-3.5288,-3.5065,-3.4389,-3.4924,-3.4712,-3.3123,-3.3918,-3.4595,-3.4775,-3.4141,-3.4532,-3.631,-3.503,-3.4629,-3.5331,-3.4629,-3.4091,-3.3747,-3.3747,-3.3189,-3.2145,-3.2876,-3.2465,-3.1254,-3.1977,-3.1858,-3.1184,-3.1785,-3.1802,-3.165,-3.2359,-3.2669,-3.2498,-3.1845,-3.1556,-3.1441,-3.1112,-3.1054,-3.0995,-3.0947,-3.0889,-3.0889,-3.0889,-3.0889,-3.0889,-3.0889,-3.0889,-3.0889,-3.0889,-3.0889,-3.0889,-3.0889,-3.0889,-3.0889,-3.0889,-3.0889,-3.0889,-3.0889,-3.0889,-3.0889,-3.0889,-3.0762,0.0,0.0,0.0,0.0,0.0,-2.9746,-2.9355,-2.8779,-2.8584,-2.8613,-2.8887,-2.918,-2.959,-3.0156,-3.0342,-3.0566,-3.0869,-3.0889,-3.0889,-3.0889,-3.0889,-3.0889,-3.0889,-3.0889,-3.0889,-3.0898,-3.1758,-3.2229,-3.2258,-3.3037,-3.3418,-3.3418,-3.3418,-3.3418,-3.3418,-3.3418,-3.3418,-3.3418,-3.3418,-3.3418,-3.3292,-3.2365,-3.2036,-3.1717,-3.4198,-3.4474,-3.4613,-3.4248,-3.4349,-3.4613,-3.4919,-3.5479,-3.569,-3.5303,-3.5896,-3.587,-3.4385,-3.5174,-3.5126,-3.335,-3.3845,-3.4385,-3.4787,-3.3796,-3.3993,-3.5763,-3.4141,-3.3499,-3.4239,-3.3944,-3.3796,-3.3796,-3.4141,-3.4075,-3.3592,-3.3848,-3.3369,-3.2373,-3.262,-3.2291,-3.164,-3.2095,-3.2132,-3.2019,-3.2483,-3.2669,-3.2612,-3.1913,-3.173,-3.174,-3.1344,-3.1228,-3.117,-3.0947,-3.0889,-3.0889,-3.0889,-3.0889,-3.0889,-3.0889,-3.0889,-3.0889,-3.0889,-3.0889,-3.0889,-3.0889,-3.0889,-3.0889,-3.0889,-3.0889,-3.0889,-3.0889,-3.0889,-3.0889,-3.0889,-3.0889,0.0,0.0,0.0,0.0,0.0,-3.0068,-2.9687,-2.9404,-2.8867,-2.8564,-2.8682,-2.8838,-2.9209,-2.9922,-3.0107,-3.04,-3.0869,-3.0889,-3.0889,-3.0889,-3.0889,-3.0889,-3.0889,-3.0889,-3.0889,-3.0898,-3.1601,-3.2021,-3.2187,-3.2881,-3.3281,-3.3418,-3.3418,-3.3418,-3.3418,-3.3418,-3.3418,-3.3418,-3.3418,-3.3418,-3.3228,-3.1835,-3.0992,-3.0216,-3.4718,-3.4776,-3.4801,-3.4801,-3.5194,-3.5533,-3.5533,-3.6031,-3.6013,-3.4921,-3.5715,-3.5584,-3.3484,-3.4225,-3.4482,-3.3469,-3.3419,-3.3866,-3.4908,-3.3965,-3.3805,-3.4823,-3.3782,-3.3124,-3.3101,-3.408,-3.4581,-3.4581,-3.5596,-3.6372,-3.6822,-3.4816,-3.4388,-3.5119,-3.3078,-3.2075,-3.205,-3.2483,-3.2421,-3.206,-3.2494,-3.2669,-3.2669,-3.243,-3.2487,-3.2612,-3.196,-3.1787,-3.1682,-3.1112,-3.0889,-3.0889,-3.0889,-3.0889,-3.0889,-3.0889,-3.0889,-3.0889,-3.0889,-3.0889,-3.0889,-3.0889,-3.0889,-3.0889,-3.0889,-3.0889,-3.0889,-3.0889,-3.0889,-3.0889,-3.0889,-3.0889,-3.0889,0.0,0.0,0.0,0.0,-3.0508,-3.0225,-3.0195,-2.9473,-2.8809,-2.8369,-2.8701,-2.9121,-2.9597,-2.9961,-3.04,-3.0869,-3.0889,-3.0889,-3.0889,-3.0889,-3.0889,-3.0889,-3.0889,-3.0889,-3.0898,-3.1338,-3.1768,-3.2187,-3.2627,-3.3047,-3.3418,-3.3418,-3.3418,-3.3418,-3.3418,-3.3418,-3.3418,-3.3418,-3.3292,-3.3029,-3.1707,-3.0281,-2.8797,-3.5282,-3.5667,-3.5943,-3.5943,-3.6103,-3.6157,-3.6157,-3.6317,-3.6013,-3.4921,-3.5715,-3.5719,-3.397,-3.5463,-3.6333,-3.5666,-3.6304,-3.6875,-3.7171,-3.6154,-3.5523,-3.5376,-3.3588,-3.2409,-3.2044,-3.1494,-3.1238,-3.1238,-3.1853,-3.2238,-3.2381,-3.3369,-3.3465,-3.2902,-3.3587,-3.3367,-3.2504,-3.2628,-3.2607,-3.2504,-3.2628,-3.2669,-3.2669,-3.2612,-3.2487,-3.2315,-3.1672,-3.1276,-3.1112,-3.0947,-3.0889,-3.0889,-3.0889,-3.0889,-3.0889,-3.0889,-3.0889,-3.0889,-3.0889,-3.0889,-3.0889,-3.0889,-3.0889,-3.0889,-3.0889,-3.0889,-3.0889,-3.0889,-3.0889,-3.0889,-3.0889,-3.0889,-3.0889,0.0,0.0,0.0,0.0,-3.0791,-3.0586,-3.0234,-3.0,-2.958,-2.8828,-2.915,-2.9453,-2.956,-2.9961,-3.04,-3.0869,-3.0889,-3.0889,-3.0889,-3.0889,-3.0889,-3.0889,-3.0889,-3.0889,-3.0898,-3.1641,-3.206,-3.2187,-3.293,-3.332,-3.3418,-3.3418,-3.3418,-3.3418,-3.3418,-3.3418,-3.3418,-3.3418,-3.2119,-3.0225,-2.99,-2.8205,-2.6107,-3.5893,-3.6157,-3.6405,-3.6405,-3.6405,-3.6263,-3.5763,-3.6108,-3.5945,-3.4645,-3.577,-3.6124,-3.4518,-3.5855,-3.6339,-3.5085,-3.5521,-3.5817,-3.5766,-3.4797,-3.4255,-3.4422,-3.2823,-3.1731,-3.1208,-3.1093,-3.0893,-3.0692,-3.163,-3.2227,-3.2486,-3.3345,-3.3484,-3.3109,-3.3543,-3.3332,-3.2669,-3.2669,-3.2669,-3.2669,-3.2669,-3.2669,0.0,-3.2669,-3.243,-3.2018,-3.1672,-3.1334,-3.1054,-3.0947,-3.0889,-3.0889,-3.0889,-3.0889,-3.0889,-3.0889,-3.0889,-3.0889,-3.0889,-3.0889,-3.0889,-3.0889,-3.0889,-3.0889,-3.0889,-3.0889,-3.0889,-3.0889,-3.0889,-3.0889,-3.0889,-3.0889,-3.0889,0.0,0.0,0.0,-3.0889,-3.0889,-3.0791,-3.0537,-3.0498,-3.0234,-2.9551,-2.9531,-2.9648,-2.9834,-3.0068,-3.04,-3.0869,-3.0889,-3.0889,-3.0889,-3.0889,-3.0889,-3.0889,-3.0889,-3.0889,-3.0898,-3.1572,-3.1982,-3.2187,-3.2842,-3.3252,-3.3418,-3.3418,-3.3418,-3.3418,-3.3418,-3.3029,-3.2438,-3.179,-3.0225,-2.8271,-2.8271,-2.6961,-2.5127,-3.6405,-3.6405,-3.6405,-3.6405,-3.6405,-3.6038,-3.5066,-3.5826,-3.5938,-3.4396,-3.6038,-3.6727,-3.5287,-3.6077,-3.592,-3.3886,-3.3737,-3.363,-3.3352,-3.2533,-3.2294,-3.2997,-3.2187,-3.14,-3.0791,-3.1625,-3.1891,-3.1479,-3.2889,-3.3815,-3.4275,-3.3736,-3.3734,-3.4201,-3.3172,-3.2669,-3.2669,-3.2669,-3.2669,-3.2669,-3.2669,-3.2669,-3.2669,-3.2669,-3.2373,-3.1845,-3.1845,-3.1556,-3.1218,-3.1005,-3.0889,-3.0889,-3.0889,-3.0889,-3.0889,-3.0889,-3.0889,-3.0889,-3.0889,-3.0889,-3.0889,-3.0889,-3.0889,-3.0889,-3.0889,-3.0889,-3.0889,-3.0889,-3.0889,-3.0889,-3.0889,-3.0889,-3.0889,-3.0889,-3.0889,-3.0889,-3.0889,-3.0889,-3.0889,-3.0889,-3.0889,0.0,-3.0332,-2.9961,-2.9863,-3.0176,-3.0254,-3.0459,-3.0869,-3.0889,-3.0889,-3.0889,-3.0889,-3.0889,-3.0889,-3.0889,-3.0889,-3.0898,-3.1377,-3.1807,-3.2248,-3.2656,-3.3076,-3.3418,-3.3418,-3.3418,-3.3364,-3.3219,-3.2301,-3.0863,-2.9444,-2.8131,-2.702,-2.6745,-2.5965,-2.4991,-3.6405,-3.6405,-3.6405,-3.6405,-3.6405,-3.6163,-3.5562,-3.6381,-3.6625,-3.5457,-3.6813,-3.7618,-3.6912,-3.7819,-3.8105,-3.7139,-3.7068,-3.6631,-3.5705,-3.5446,-3.4842,-3.3693,-3.3465,-3.2725,-3.1322,-3.1089,-3.0956,-3.0872,-3.1494,-3.1876,-3.2015,-3.2591,-3.2918,-3.3001,-3.2784,-3.2669,-3.2669,-3.2669,-3.2669,-3.2669,-3.2669,-3.2669,-3.2669,-3.2669,-3.2498,-3.219,-3.1903,-3.145,-3.0947,-3.0889,-3.0889,-3.0889,-3.0889,-3.0889,-3.0889,-3.0889,-3.0889,-3.0889,-3.0889,-3.0889,-3.0889,-3.0889,-3.0889,-3.0889,-3.0889,-3.0889,-3.0889,-3.0889,-3.0889,-3.0889,-3.0889,-3.0889,-3.0889,-3.0889,-3.0889,-3.0889,-3.0889,-3.0889,-3.0889,-3.0889,-3.0889,-3.0859,-3.0781,-3.0703,-3.0537,-3.0215,-3.0547,-3.0801,-3.0889,-3.0889,-3.0889,-3.0889,-3.0889,-3.0889,-3.0889,-3.0889,-3.0889,-3.0898,-3.168,-3.209,-3.2197,-3.2959,-3.335,-3.3418,-3.3418,-3.3418,-3.3292,-3.2174,-3.0863,-2.9378,-2.7726,-2.6871,-2.6478,-2.509,-2.436,-2.4299,-3.6405,-3.6405,-3.6405,-3.6405,-3.6644,-3.6728,-3.6492,-3.7369,-3.7481,-3.575,-3.7237,-3.8239,-3.7674,-3.8059,-3.8261,-3.7926,-3.6804,-3.5881,-3.5333,-3.4736,-3.4036,-3.3274,-3.3207,-3.2727,-3.1733,-3.1505,-3.1278,-3.104,-3.1495,-3.1723,-3.1733,-3.2416,-3.2669,-3.2669,-3.2669,-3.2669,-3.2669,-3.2669,-3.2669,-3.2669,-3.2669,-3.2669,-3.2669,-3.2669,-3.244,-3.2018,-3.1845,-3.1392,-3.0889,-3.0889,-3.0889,-3.0889,-3.0889,-3.0889,-3.0889,-3.0889,-3.0889,-3.0889,-3.0889,-3.0889,-3.0889,-3.0889,-3.0889,-3.0889,-3.0889,-3.0889,-3.0889,-3.0889,-3.0889,-3.0889,-3.0889,-3.0889,-3.0889,-3.0889,-3.0889,-3.0889,-3.0889,-3.0889,-3.0889,-3.0889,-3.0889,-3.0889,-3.0889,-3.0889,-3.0801,-3.0576,-3.0762,-3.0889,-3.0889,-3.0889,-3.0889,-3.0889,-3.0889,-3.0889,-3.0889,-3.0889,-3.0889,-3.0898,-3.1758,-3.2229,-3.2258,-3.3037,-3.3418,-3.3418,-3.3418,-3.2965,-3.2164,-3.0012,-2.8649,-2.7668,-2.6151,-2.542,-2.515,-2.4292,-2.3891,-2.3754,-3.6405,-3.6405,-3.6443,-3.6568,-3.6945,-3.7262,-3.75,-3.8291,-3.8273,-3.6443,-3.7885,-3.8888,-3.8336,-3.8056,-3.7779,-3.7566,-3.5674,-3.4368,-3.4145,-3.3218,-3.2669,-3.2669,-3.2669,-3.2504,-3.2142,-3.2039,-3.1812,-3.1516,-3.1812,-3.1936,-3.1853,-3.2411,-3.2669,-3.2669,-3.2669,-3.2669,-3.2669,-3.2669,-3.2669,-3.2669,-3.2669,-3.2669,-3.2669,-3.2612,-3.2315,-3.1903,-3.173,-3.1392,-3.1005,-3.0889,-3.0889,-3.0889,-3.0889,-3.0889,-3.0889,-3.0889,-3.0889,-3.0889,-3.0889,-3.0889,-3.0889,-3.0889,-3.0889,-3.0889,-3.0889,-3.0889,-3.0889,-3.0889,-3.0889,-3.0889,-3.0889,-3.0889,-3.0889,-3.0889,-3.0889,-3.0889,-3.0889,-3.0889,-3.0889,-3.0889,-3.0889,-3.0889,-3.0889,-3.0889,-3.0889,-3.0889,-3.0889,-3.0889,-3.0889,-3.0889,-3.0889,-3.0889,-3.0889,-3.0889,-3.0889,-3.0889,-3.0889,-3.0898,-3.1758,-3.2229,-3.2258,-3.3037,-3.3418,-3.3418,-3.3418,-3.2374,-3.0531,-2.8056,-2.6612,-2.595,-2.4759,-2.4088,-2.3891,-2.3823,-2.3543,-2.3338,-3.6405,-3.6405,-3.6568,-3.7023,-3.7149,-3.7525,-3.8555,-3.8856,-3.8818,-3.8603,-3.9193,-3.9583,-3.953,-3.8554,-3.7501,-3.6457,-3.5223,-3.4043,-3.2955,-3.2784,-3.2669,-3.2669,-3.2669,-3.2659,-3.2607,-3.2194,-3.1967,-3.1926,-3.1967,-3.1836,-3.1454,-3.2323,-3.2669,-3.2669,-3.2669,-3.2669,-3.2669,-3.2669,-3.2669,-3.2669,-3.2669,-3.2669,-3.2669,-3.243,-3.2305,-3.219,-3.1556,-3.1334,-3.1218,-3.1005,-3.0889,-3.0889,-3.0889,-3.0889,-3.0889,-3.0889,-3.0889,-3.0889,-3.0889,-3.0889,-3.0889,-3.0889,-3.0889,-3.0889,-3.0889,-3.0889,-3.0889,-3.0889,-3.0889,-3.0889,-3.0889,-3.0889,-3.0889,-3.0889,-3.0889,-3.0889,-3.0889,-3.0889,-3.0889,-3.0889,-3.0889,-3.0889,-3.0889,-3.0889,-3.0889,-3.0889,-3.0889,-3.0889,-3.0889,-3.0889,-3.0889,-3.0889,-3.0889,-3.0889,-3.0889,-3.0889,-3.0889,-3.0898,-3.1758,-3.2229,-3.2258,-3.3037,-3.3418,-3.3418,-3.3418,-3.1717,-2.8838,-2.727,-2.5682,-2.4156,-2.3679,-2.3475,-2.3406,-2.3133,-2.2996,-2.2928,-3.6832,-3.6908,-3.7023,-3.7575,-3.7965,-3.8341,-3.8856,-3.9145,-3.9089,-3.8381,-3.8472,-3.8372,-3.766,-3.6534,-3.5936,-3.6185,-3.4525,-3.3491,-3.3762,-3.3115,-3.2669,-3.2669,-3.2669,-3.2669,-3.2669,-3.2494,-3.2401,-3.2401,-3.2401,-3.2364,-3.2199,-3.2561,-3.2669,-3.2669,-3.2669,-3.2669,-3.2669,-3.2669,-3.2669,-3.2669,-3.2669,-3.2612,-3.243,-3.2373,-3.2076,-3.1672,-3.1383,-3.1218,-3.1054,-3.0947,-3.0889,-3.0889,-3.0889,-3.0889,-3.0889,-3.0889,-3.0889,-3.0889,-3.0889,-3.0889,-3.0889,-3.0889,-3.0889,-3.0889,-3.0889,-3.0889,-3.0889,-3.0889,-3.0889,-3.0889,-3.0889,-3.0889,-3.0889,-3.0889,-3.0889,-3.0889,-3.0889,-3.0889,-3.0889,-3.0889,-3.0889,-3.0889,-3.0889,-3.0889,-3.0889,-3.0889,-3.0889,-3.0889,-3.0889,-3.0889,-3.0889,-3.0889,-3.0889,-3.0889,-3.0889,-3.0089,-3.0213,-3.1279,-3.1051,-3.1522,-3.2568,-3.2245,-3.1653,-3.0816,-2.9965,-2.878,-2.7328,-2.595,-2.4684,-2.3611,-2.3475,-2.327,-2.3065,-2.2928,-2.2928,-2.2928,-3.7312,-3.7425,-3.76,-3.8165,-3.8605,-3.8931,-3.9082,-3.9164,-3.8868,-3.8003,-3.7299,-3.675,-3.624,-3.5179,-3.4792,-3.5663,-3.3864,-3.3058,-3.3931,-3.3172,-3.2669,-3.2669,-3.2669,-3.2669,-3.2669,-3.2669,-3.2669,-3.2669,-3.2669,-3.2607,-3.2473,-3.2473,-3.2545,-3.2669,-3.2669,-3.2669,-3.2669,-3.2669,-3.2669,-3.2669,-3.2669,-3.2555,-3.2315,-3.219,-3.1787,-3.1267,-3.1218,-3.1054,-3.0889,-3.0889,-3.0889,-3.0889,-3.0889,-3.0889,-3.0889,-3.0889,-3.0889,-3.0889,-3.0889,-3.0889,-3.0889,-3.0889,-3.0889,-3.0889,-3.0889,-3.0889,-3.0889,-3.0889,-3.0889,-3.0889,-3.0889,-3.0889,-3.0889,-3.0889,-3.0889,-3.0889,-3.0889,-3.0889,-3.0889,-3.0889,-3.0889,-3.0889,-3.0889,-3.0889,-3.0889,-3.0889,-3.0518,-3.046,-3.0889,-3.0889,-3.0889,-3.0889,-3.0889,-3.0704,-3.0333,-2.9353,-2.937,-3.0338,-3.0245,-3.0652,-3.1518,-3.0947,-3.0151,-2.9125,-2.761,-2.6745,-2.6337,-2.482,-2.3816,-2.327,-2.327,-2.3133,-2.2928,-2.2928,-2.2928,-2.2928,-3.7889,-3.8002,-3.8178,-3.8755,-3.8919,-3.9108,-3.9597,-3.8699,-3.795,-3.7897,-3.5936,-3.4958,-3.6077,-3.5179,-3.4536,-3.4536,-3.3388,-3.2737,-3.2727,-3.2727,-3.2669,-3.2669,-3.2669,-3.2669,-3.2669,-3.2669,-3.2669,-3.2669,-3.2669,-3.2442,-3.1988,-3.1988,-3.2235,-3.2669,-3.2669,-3.2669,-3.2669,-3.2669,-3.2669,-3.2669,-3.2669,-3.2555,-3.2248,-3.1903,-3.1614,-3.1276,-3.1005,-3.0889,-3.0889,-3.0889,-3.0889,-3.0889,-3.0889,-3.0889,-3.0889,-3.0889,-3.0889,-3.0889,-3.0889,-3.0889,-3.0889,-3.0889,-3.0889,-3.0889,-3.0889,-3.0889,-3.0889,-3.0889,-3.0889,-3.0889,-3.0889,-3.0889,-3.0889,-3.0889,-3.0889,-3.0889,-3.0889,-3.0889,-3.0889,-3.0889,-3.0889,-3.0889,-3.0889,-3.0889,-3.0889,-3.0889,-2.9658,-2.9471,-3.083,-3.0889,-3.0889,-3.0889,-3.0889,-3.0274,-2.892,-2.892,-2.8454,-2.7552,-2.9366,-2.9628,-2.8674,-2.9076,-2.9248,-2.9117,-2.7336,-2.6404,-2.6002,-2.4135,-2.3201,-2.2934,-2.2934,-2.2928,-2.2928,-2.2928,-2.2928,-2.2928,-3.8479,-3.8592,-3.8768,-3.9333,-3.8778,-3.8294,-3.8465,-3.7501,-3.6468,-3.5674,-3.5608,-3.5168,-3.3976,-3.3491,-3.3275,-3.3275,-3.2887,-3.2669,-3.2669,-3.2669,-3.2669,-3.2669,-3.2669,-3.2669,-3.2669,-3.2669,-3.2669,-3.2669,-3.2669,-3.2597,-3.2452,-3.2452,-3.2468,-3.243,-3.2612,-3.2612,-3.243,-3.243,-3.243,-3.243,-3.2201,-3.1913,-3.1614,-3.1498,-3.1276,-3.0995,-3.0947,-3.0889,-3.0889,-3.0889,-3.0889,-3.0889,-3.0889,-3.0889,-3.0889,-3.0889,-3.0889,-3.0889,-3.0889,-3.0889,-3.0889,-3.0889,-3.0889,-3.0889,-3.0889,-3.0889,-3.0889,-3.0889,-3.0889,-3.0889,-3.0889,-3.0889,-3.0889,-3.0889,-3.0147,-2.9844,-3.0772,-3.0089,-2.953,-2.953,-2.953,-2.9176,-2.8343,-2.8224,-2.8582,-2.9471,-2.9166,-2.9481,-3.083,-3.003,-2.953,-2.953,-2.953,-2.8938,-2.7615,-2.6762,-2.6831,-2.7884,-2.7626,-2.7493,-2.7563,-2.7759,-2.7294,-2.6368,-2.5562,-2.4955,-2.4617,-2.3741,-2.3201,-2.2928,-2.2928,-2.2928,-2.2928,-2.2928,-2.2928,-2.2928,-3.9069,-3.8851,-3.8642,-3.8976,-3.8056,-3.7287,-3.7287,-3.6684,-3.5925,-3.5223,-3.5388,-3.5168,-3.4134,-3.3218,-3.2669,-3.2669,-3.2669,-3.2669,-3.2669,-3.2669,-3.2669,-3.2669,-3.2669,-3.2669,-3.2669,-3.2669,-3.2669,-3.2669,-3.2669,-3.2669,-3.2669,-3.2669,-3.2612,-3.243,-3.2487,-3.243,-3.2305,-3.219,-3.2133,-3.2076,-3.1903,-3.1614,-3.1325,-3.1325,-3.1102,-3.0889,-3.0889,-3.0889,-3.0889,-3.0889,-3.0889,-3.0889,-3.0889,-3.0889,-3.0889,-3.0889,-3.0889,-3.0889,-3.0889,-3.0889,-3.0889,-3.0889,-3.0889,-3.0889,-3.0889,-3.0889,-3.0889,-3.0889,-3.0889,-3.0889,-3.0889,-3.0889,-3.0889,-3.0889,-3.0216,-2.9785,-3.0089,-2.9412,-2.8742,-2.8265,-2.8206,-2.7847,-2.7073,-2.7013,-2.7315,-2.8146,-2.7718,-2.8026,-2.9372,-2.9549,-2.9412,-2.892,-2.892,-2.8086,-2.6286,-2.563,-2.5673,-2.6623,-2.6059,-2.628,-2.7086,-2.6635,-2.5913,-2.5059,-2.451,-2.4163,-2.3959,-2.3406,-2.3065,-2.2928,-2.2928,-2.2928,-2.2928,-2.2928,-2.2928,-2.2928,-3.9481,-3.8659,-3.7897,-3.7897,-3.69,-3.6077,-3.6077,-3.6077,-3.6077,-3.6077,-3.5223,-3.5013,-3.5968,-3.4134,-3.2784,-3.2727,-3.2669,-3.2669,-3.2669,-3.2669,-3.2669,-3.2669,-3.2669,-3.2669,-3.2669,-3.2669,-3.2669,-3.2669,-3.2669,-3.2669,-3.2669,-3.2669,-3.2669,-3.2669,-3.243,-3.2315,-3.2248,-3.1903,-3.1787,-3.1787,-3.174,-3.1556,-3.1267,-3.1267,-3.1112,-3.0889,-3.0889,-3.0889,-3.0889,-3.0889,-3.0889,-3.0889,-3.0889,-3.0889,-3.0889,-3.0889,-3.0889,-3.0889,-3.0889,-3.0889,-3.0889,-3.0889,-3.0889,-3.0889,-3.0889,-3.0889,-3.0889,-3.0889,-3.0889,-3.0889,-3.0889,-3.0889,-3.0889,-3.0889,-3.083,-3.0333,-2.9226,-2.8861,-2.8325,-2.7134,-2.6892,-2.6831,-2.671,-2.671,-2.6771,-2.684,-2.5859,-2.5737,-2.6952,-2.9372,-3.0089,-2.8683,-2.8623,-2.7486,-2.5042,-2.5242,-2.4963,-2.4123,-2.4826,-2.5779,-2.6886,-2.5644,-2.5052,-2.4991,-2.4299,-2.3959,-2.3891,-2.3201,-2.2928,-2.2928,-2.2928,-2.2928,-2.2928,-2.2928,-2.2928,-2.2928,-3.8465,-3.8108,-3.7897,-3.7897,-3.6263,-3.4902,-3.4902,-3.4902,-3.4902,-3.4902,-3.5443,-3.5542,-3.4958,-3.4424,-3.3717,-3.2784,-3.2669,-3.2669,-3.2669,-3.2669,-3.2669,-3.2669,-3.2669,-3.2669,-3.2669,-3.2669,-3.2669,-3.2669,-3.2669,-3.2669,-3.2669,-3.2669,-3.2612,-3.2373,-3.2315,-3.2143,-3.1903,-3.1556,-3.1441,-3.1383,-3.117,-3.1064,-3.0995,-3.0995,-3.0947,-3.0889,-3.0889,-3.0889,-3.0889,-3.0889,-3.0889,-3.0889,-3.0889,-3.0889,-3.0889,-3.0889,-3.0889,-3.0889,-3.0889,-3.0889,-3.0889,-3.0889,-3.0889,-3.0889,-3.0889,-3.0889,-3.0889,-3.0889,-3.0889,-3.0889,-3.0889,-3.0889,-3.0889,-3.0889,-3.003,-2.9599,-3.0333,-2.8701,-2.7366,-2.7048,-2.6156,-2.5133,-2.4147,-2.4023,-2.4456,-2.5493,-2.6164,-2.665,-2.6952,-2.8513,-2.8325,-2.6095,-2.5973,-2.5314,-2.3977,-2.3989,-2.4203,-2.4459,-2.4929,-2.5255,-2.5577,-2.4909,-2.4638,-2.457,-2.3884,-2.3543,-2.3475,-2.3065,-2.2928,-2.2928,-2.2928,-2.2928,-2.2928,-2.2928,-2.2928,-2.2928,-3.8161,-3.7512,-3.6965,-3.6426,-3.4858,-3.366,-3.366,-3.458,-3.5068,-3.4591,-3.5498,-3.5968,-3.5333,-3.4312,-3.366,-3.3547,-3.3001,-3.2669,-3.2669,-3.2669,-3.2669,-3.2669,-3.2669,-3.2669,-3.2669,-3.2669,-3.2669,-3.2669,-3.2669,-3.2669,-3.2669,-3.2669,-3.2612,-3.2487,-3.219,-3.196,-3.1787,-3.1334,-3.1112,-3.1112,-3.0947,-3.0889,-3.0889,-3.0889,-3.0889,-3.0889,-3.0889,-3.0889,-3.0889,-3.0889,-3.0889,-3.0889,-3.0889,-3.0889,-3.0889,-3.0889,-3.0889,-3.0889,-3.0889,-3.0889,-3.0889,-3.0889,-3.0889,-3.0889,-3.0889,-3.0889,-3.0889,-3.0889,-3.0889,-3.0889,-3.0889,-3.0889,-3.0889,-3.0889,-3.0274,-2.9844,-2.9962,-2.8283,-2.6771,-2.6208,-2.4994,-2.3907,-2.3168,-2.3106,-2.3417,-2.4154,-2.4826,-2.5248,-2.5248,-2.5843,-2.5904,-2.5133,-2.5071,-2.4626,-2.3596,-2.3888,-2.4291,-2.4863,-2.5039,-2.4984,-2.4849,-2.457,-2.4435,-2.4231,-2.3679,-2.3406,-2.3338,-2.3065,-2.2928,-2.2928,-2.2928,-2.2928,-2.2928,-2.2928,-2.2928,-2.2928,-3.7885,-3.6738,-3.5651,-3.4692,-3.3491,-3.2669,-3.2669,-3.4569,-3.5597,-3.4636,-3.5333,-3.5925,-3.5925,-3.3976,-3.3115,-3.4155,-3.3275,-3.2669,-3.2669,-3.2669,-3.2669,-3.2669,-3.2669,-3.2669,-3.2669,-3.2669,-3.2669,-3.2669,-3.2669,-3.2669,-3.2669,-3.2669,-3.2669,-3.2669,-3.2086,-3.1787,-3.173,-3.117,-3.0889,-3.0889,-3.0889,-3.0889,-3.0889,-3.0889,-3.0889,-3.0889,-3.0889,-3.0889,-3.0889,-3.0889,-3.0889,-3.0889,-3.0889,-3.0889,-3.0889,-3.0889,-3.0889,-3.0889,-3.0889,-3.0889,-3.0889,-3.0889,-3.0889,-3.0889,-3.0889,-3.0889,-3.0889,-3.0889,-3.0889,-3.0889,-3.0889,-3.0704,-3.0645,-3.0889,-3.0704,-3.0274,-2.9344,-2.7907,-2.6589,-2.5501,-2.4031,-2.3106,-2.3106,-2.3106,-2.3106,-2.3106,-2.3293,-2.3293,-2.3113,-2.3293,-2.3867,-2.4842,-2.4842,-2.4477,-2.3742,-2.4342,-2.4848,-2.5127,-2.5127,-2.4916,-2.457,-2.4503,-2.4299,-2.3959,-2.3543,-2.3338,-2.327,-2.2996,-2.2928,-2.2928,-2.2928,-2.2928,-2.2928,-2.2928,-2.2928,-2.2941,-3.6684,-3.5553,-3.4692,-3.4536,-3.3491,-3.2669,-3.2669,-3.3875,-3.4692,-3.4536,-3.4636,-3.4747,-3.4747,-3.3547,-3.2784,-3.2944,-3.2784,-3.2669,-3.2669,-3.2669,-3.2669,-3.2669,-3.2669,-3.2669,-3.2669,-3.2669,-3.2669,-3.2669,-3.2669,-3.2669,-3.2669,-3.2669,-3.2669,-3.2669,-3.2086,-3.1787,-3.173,-3.117,-3.0889,-3.0889,-3.0889,-3.0889,-3.0889,-3.0889,-3.0889,-3.0889,-3.0889,-3.0889,-3.0889,-3.0889,-3.0889,-3.0889,-3.0889,-3.0889,-3.0889,-3.0889,-3.0889,-3.0889,-3.0889,-3.0889,-3.0889,-3.0889,-3.0889,-3.0889,-3.0889,-3.0889,-3.0889,-3.0889,-3.0889,-3.0889,-3.0889,-2.9962,-2.9589,-3.0704,-2.9962,-2.954,-3.046,-2.8504,-2.6927,-2.671,-2.4571,-2.3106,-2.3106,-2.3106,-2.3106,-2.3106,-2.4154,-2.4278,-2.3168,-2.4154,-2.4471,-2.3825,-2.3832,-2.4001,-2.4415,-2.4863,-2.5075,-2.5127,-2.5127,-2.5059,-2.4984,-2.4374,-2.4027,-2.3959,-2.327,-2.2996,-2.2996,-2.2928,-2.2928,-2.2928,-2.2928,-2.2928,-2.2928,-2.2928,-2.2928,-2.2899,-3.5498,-3.4847,-3.4312,-3.366,-3.3058,-3.2669,-3.2669,-3.3717,-3.4256,-3.3604,-3.4099,-3.4256,-3.3604,-3.3058,-3.2669,-3.2669,-3.2669,-3.2669,-3.2669,-3.2669,-3.2669,-3.2669,-3.2669,-3.2669,-3.2669,-3.2669,-3.2669,-3.2669,-3.2669,-3.2669,-3.2669,-3.2669,-3.2669,-3.2669,-3.2086,-3.1787,-3.173,-3.117,-3.0889,-3.0889,-3.0889,-3.0889,-3.0889,-3.0889,-3.0889,-3.0889,-3.0889,-3.0889,-3.0889,-3.0889,-3.0889,-3.0889,-3.0889,-3.0889,-3.0889,-3.0889,-3.0889,-3.0889,-3.0889,-3.0889,-3.0889,-3.0889,-3.0889,-3.0889,-3.0889,-3.0889,-3.0889,-3.0889,-3.0889,-3.0889,-3.0889,-2.9776,-2.9107,-2.9717,-2.8751,-2.8095,-2.871,-2.7185,-2.5973,-2.5981,-2.427,-2.3106,-2.3106,-2.3106,-2.3106,-2.3106,-2.3658,-2.372,-2.3113,-2.3666,-2.3878,-2.3588,-2.394,-2.4269,-2.4635,-2.4958,-2.5127,-2.5127,-2.4849,-2.4713,-2.451,-2.3959,-2.355,-2.3413,-2.3071,-2.2928,-2.2928,-2.2928,-2.2928,-2.2928,-2.2928,-2.2966,-2.3113,-2.3113,-2.3213,-2.3374,-3.4692,-3.4256,-3.3762,-3.2841,-3.2669,-3.2669,-3.2669,-3.3491,-3.3773,-3.2841,-3.3501,-3.3717,-3.2784,-3.2669,-3.2669,-3.2669,-3.2669,-3.2669,-3.2669,-3.2669,-3.2669,-3.2669,-3.2669,-3.2669,-3.2669,-3.2669,-3.2669,-3.2669,-3.2669,-3.2669,-3.2669,-3.2669,-3.2669,-3.2669,-3.2086,-3.1787,-3.173,-3.117,-3.0889,-3.0889,-3.0889,-3.0889,-3.0889,-3.0889,-3.0889,-3.0889,-3.0889,-3.0889,-3.0889,-3.0889,-3.0889,-3.0889,-3.0889,-3.0889,-3.0889,-3.0889,-3.0889,-3.0889,-3.0889,-3.0889,-3.0889,-3.0889,-3.0889,-3.0889,-3.0889,-3.0889,-3.0889,-3.0889,-3.0889,-3.0889,-3.0889,-2.954,-2.8564,-2.8861,-2.7607,-2.665,-2.6952,-2.592,-2.5071,-2.5071,-2.3907,-2.3106,-2.3106,-2.3106,-2.3106,-2.3106,-2.3106,-2.3106,-2.3106,-2.3179,-2.3406,-2.3808,-2.4313,-2.4672,-2.4753,-2.4995,-2.5059,-2.4984,-2.4638,-2.4299,-2.3959,-2.3611,-2.327,-2.2996,-2.2934,-2.2928,-2.2928,-2.2928,-2.2928,-2.2941,-2.2939,-2.3113,-2.3333,-2.3407,-2.3574,-2.3781,-3.4536,-3.3604,-3.2784,-3.2737,-3.2669,-3.2669,-3.2669,-3.2784,-3.2784,-3.2727,-3.2784,-3.2784,-3.2727,-3.2669,-3.2669,-3.2669,-3.2669,-3.2669,-3.2669,-3.2669,-3.2669,-3.2669,-3.2669,-3.2669,-3.2669,-3.2669,-3.2669,-3.2669,-3.2669,-3.2669,-3.2669,-3.2669,-3.2669,-3.2669,-3.2086,-3.1787,-3.173,-3.117,-3.0889,-3.0889,-3.0889,-3.0889,-3.0889,-3.0889,-3.0889,-3.0889,-3.0889,-3.0889,-3.0889,-3.0889,-3.0889,-3.0889,-3.0889,-3.0889,-3.0889,-3.0889,-3.0889,-3.0889,-3.0889,-3.0889,-3.0889,-3.0889,-3.0889,-3.0889,-3.0889,-3.0889,-3.0889,-3.0889,-3.0889,-3.0889,-3.0889,-2.8829,-2.7555,-2.8683,-2.6814,-2.5684,-2.6831,-2.592,-2.5071,-2.5071,-2.3907,-2.3106,-2.3106,-2.3106,-2.3106,-2.3106,-2.3106,-2.3106,-2.3106,-2.3398,-2.3845,-2.4474,-2.4547,-2.4782,-2.5083,-2.5112,-2.4916,-2.457,-2.4503,-2.4299,-2.3959,-2.3611,-2.3406,-2.3338,-2.2996,-2.2928,-2.2928,-2.2928,-2.2928,-2.2893,-2.318,-2.3307,-2.336,-2.3641,-2.3754,-2.3808,-3.3388,-3.3001,-3.2669,-3.2669,-3.2669,-3.2669,-3.2669,-3.2669,-3.2669,-3.2669,-3.2669,-3.2669,-3.2669,-3.2669,-3.2669,-3.2669,-3.2669,-3.2669,-3.2669,-3.2669,-3.2669,-3.2669,-3.2669,-3.2669,-3.2669,-3.2669,-3.2612,-3.243,-3.2612,-3.2612,-3.243,-3.2612,-3.2612,-3.243,-3.2028,-3.1672,-3.1441,-3.1054,-3.0889,-3.0889,-3.0889,-3.1045,-3.1279,-3.1279,-3.1445,-3.168,-3.168,-3.168,-3.168,-3.168,-3.168,-3.168,-3.168,-3.1494,-3.123,-3.0967,-3.0889,-3.0889,-3.0889,-3.0889,-3.0889,-3.0889,-3.0889,-3.0889,-3.0889,-3.0889,-3.0889,-3.0889,-3.0889,-3.0645,-2.9785,-2.8215,-2.6892,-2.6581,-2.5063,-2.4031,-2.4517,-2.4147,-2.3845,-2.3845,-2.3417,-2.3106,-2.3106,-2.3106,-2.3106,-2.3106,-2.3106,-2.3201,-2.3398,-2.391,-2.4313,-2.4562,-2.4833,-2.4995,-2.5127,-2.4849,-2.4638,-2.4503,-2.402,-2.3747,-2.3611,-2.327,-2.3065,-2.3065,-2.2934,-2.2928,-2.2928,-2.2928,-2.2979,-2.316,-2.328,-2.3547,-2.3888,-2.3995,-2.4155,-2.4322,-3.2669,-3.2669,-3.2669,-3.2669,-3.2669,-3.2669,-3.2669,-3.2669,-3.2669,-3.2669,-3.2669,-3.2669,-3.2669,-3.2669,-3.2669,-3.2669,-3.2669,-3.2669,-3.2669,-3.2669,-3.2669,-3.2669,-3.2669,-3.2669,-3.2669,-3.2669,-3.2555,-3.2305,-3.2487,-3.243,-3.2133,-3.2315,-3.2315,-3.2133,-3.1787,-3.1498,-3.1276,-3.1142,-3.1094,-3.1103,-3.124,-3.1465,-3.1728,-3.1728,-3.1904,-3.2229,-3.2229,-3.2229,-3.2229,-3.2229,-3.2229,-3.2229,-3.2229,-3.1963,-3.1641,-3.1211,-3.1094,-3.1055,-3.0928,-3.0889,-3.0889,-3.0889,-3.0889,-3.0889,-3.0889,-3.0889,-3.0889,-3.0889,-3.0889,-3.0645,-2.9717,-2.8155,-2.671,-2.5859,-2.4209,-2.3106,-2.3106,-2.3106,-2.3106,-2.3106,-2.3106,-2.3106,-2.3106,-2.3106,-2.3106,-2.3106,-2.3201,-2.3449,-2.3881,-2.4327,-2.462,-2.4723,-2.4867,-2.4916,-2.4916,-2.4638,-2.436,-2.4156,-2.3611,-2.3338,-2.327,-2.2996,-2.2928,-2.2928,-2.2928,-2.2919,-2.3006,-2.3006,-2.3187,-2.3474,-2.3567,-2.3848,-2.4215,-2.4302,-2.4469,-2.4636,-3.2669,-3.2669,-3.2669,-3.2669,-3.2669,-3.2669,-3.2669,-3.2669,-3.2669,-3.2669,-3.2669,-3.2669,-3.2669,-3.2669,-3.2669,-3.2669,-3.2669,-3.2669,-3.2669,-3.2669,-3.2669,-3.2669,-3.2669,-3.2669,-3.2669,-3.2669,-3.2555,-3.2305,-3.2305,-3.2133,-3.1787,-3.1787,-3.1787,-3.1787,-3.1441,-3.1325,-3.1306,-3.1446,-3.1514,-3.1562,-3.1992,-3.2229,-3.2178,-3.2178,-3.2238,-3.2178,-3.2178,-3.2178,-3.2178,-3.2178,-3.2178,-3.2178,-3.2238,-3.2178,-3.209,-3.165,-3.1514,-3.1426,-3.1006,-3.0889,-3.0889,-3.0889,-3.0889,-3.0889,-3.0889,-3.0889,-3.0889,-3.0889,-3.0889,-3.0889,-3.0889,-2.8769,-2.7013,-2.7021,-2.4818,-2.3106,-2.3106,-2.3106,-2.3106,-2.3106,-2.3106,-2.3106,-2.3106,-2.3106,-2.3106,-2.3106,-2.3413,-2.3881,-2.454,-2.4576,-2.4723,-2.5044,-2.4706,-2.4503,-2.4503,-2.4503,-2.4088,-2.3406,-2.3406,-2.3201,-2.2928,-2.2928,-2.2928,-2.2928,-2.2934,-2.304,-2.3327,-2.3327,-2.3507,-2.3801,-2.4095,-2.4202,-2.4242,-2.4529,-2.4636,-2.4636,-3.2669,-3.2669,-3.2669,-3.2669,-3.2669,-3.2669,-3.2669,-3.2669,-3.2669,-3.2669,-3.2669,-3.2669,-3.2669,-3.2669,-3.2669,-3.2669,-3.2669,-3.2669,-3.2669,-3.2669,-3.2669,-3.2669,-3.2669,-3.2669,-3.2669,-3.2487,-3.2258,-3.196,-3.196,-3.1787,-3.1441,-3.1672,-3.1672,-3.1441,-3.1325,-3.1328,-3.1446,-3.1465,-3.1699,-3.1982,-3.2119,-3.2344,-3.2607,-3.2607,-3.2793,-3.3047,-3.3047,-3.3047,-3.3047,-3.3047,-3.3047,-3.2998,-3.2705,-3.2607,-3.2529,-3.21,-3.1758,-3.1484,-3.1367,-3.1113,-3.0889,-3.0889,-3.0889,-3.0889,-3.0889,-3.0889,-3.0889,-3.0889,-3.0889,-3.0587,-2.9658,-2.8155,-2.671,-2.5798,-2.4209,-2.3106,-2.3106,-2.3106,-2.3106,-2.3106,-2.3106,-2.3106,-2.3106,-2.3106,-2.3106,-2.3106,-2.3625,-2.3992,-2.4142,-2.4379,-2.4477,-2.4299,-2.4231,-2.4027,-2.3747,-2.3747,-2.3611,-2.3406,-2.3133,-2.2996,-2.2928,-2.2928,-2.2928,-2.2941,-2.3093,-2.324,-2.334,-2.3554,-2.3814,-2.4082,-2.4168,-2.4329,-2.4516,-2.4603,-2.4636,-2.4636,-3.2669,-3.2669,-3.2669,-3.2669,-3.2669,-3.2669,-3.2669,-3.2669,-3.2669,-3.2669,-3.2669,-3.2669,-3.2669,-3.2669,-3.2669,-3.2669,-3.2669,-3.2669,-3.2669,-3.2669,-3.2669,-3.2669,-3.2669,-3.2669,-3.2669,-3.243,-3.2133,-3.1787,-3.1672,-3.1441,-3.117,-3.1334,-3.1334,-3.117,-3.1338,-3.1447,-3.1543,-3.1875,-3.2178,-3.2432,-3.2598,-3.2822,-3.3047,-3.3047,-3.3203,-3.3418,-3.3418,-3.3418,-3.3418,-3.3418,-3.3418,-3.3379,-3.3125,-3.3047,-3.2959,-3.2539,-3.2226,-3.1992,-3.1816,-3.1465,-3.1143,-3.1143,-3.1016,-3.0889,-3.0889,-3.0889,-3.0889,-3.0889,-3.0889,-3.0518,-2.9166,-2.7847,-2.6589,-2.5317,-2.3969,-2.3106,-2.3106,-2.3106,-2.3106,-2.3106,-2.3106,-2.3106,-2.3106,-2.3106,-2.3215,-2.3471,-2.3984,-2.4283,-2.4195,-2.4395,-2.4367,-2.4027,-2.3823,-2.3679,-2.3406,-2.327,-2.3201,-2.3201,-2.2996,-2.2928,-2.2928,-2.2928,-2.2933,-2.3053,-2.3247,-2.346,-2.3688,-2.3868,-2.4115,-2.4376,-2.4376,-2.4482,-2.4636,-2.4636,-2.4636,-2.4636,-3.2669,-3.2669,-3.2669,-3.2669,-3.2669,-3.2669,-3.2669,-3.2669,-3.2669,-3.2669,-3.2669,-3.2669,-3.2669,-3.2669,-3.2669,-3.2669,-3.2669,-3.2669,-3.2669,-3.2669,-3.2669,-3.2669,-3.2669,-3.268,-3.2669,-3.2373,-3.2143,-3.1787,-3.1441,-3.116,-3.0889,-3.0889,-3.0918,-3.0967,-3.1348,-3.1562,-3.168,-3.2461,-3.2822,-3.2891,-3.3271,-3.3418,-3.3418,-3.3418,-3.3418,-3.3418,-3.3418,-3.3418,-3.3418,-3.3418,-3.3418,-3.3418,-3.3418,-3.3418,-3.335,-3.2969,-3.2822,-3.2715,-3.2324,-3.1904,-3.1572,-3.1572,-3.1289,-3.0986,-3.0908,-3.0889,-3.0889,-3.0889,-3.0889,-3.0518,-2.9166,-2.7847,-2.6589,-2.5317,-2.3969,-2.3106,-2.3106,-2.3106,-2.3106,-2.3106,-2.3106,-2.312,-2.3149,-2.3179,-2.3457,-2.4079,-2.4401,-2.4508,-2.4488,-2.4435,-2.4231,-2.3891,-2.3543,-2.3338,-2.3338,-2.3065,-2.2928,-2.2928,-2.2928,-2.2928,-2.2928,-2.2893,-2.306,-2.3327,-2.338,-2.3708,-2.4209,-2.4235,-2.4396,-2.4636,-2.4636,-2.4636,-2.4636,-2.4636,-2.4636,-2.4636,-3.2669,-3.2669,-3.2669,-3.2669,-3.2669,-3.2669,-3.2669,-3.2669,-3.2669,-3.2669,-3.2669,-3.2669,-3.2669,-3.2669,-3.2669,-3.2669,-3.2669,-3.2669,-3.2669,-3.2669,-3.2669,-3.2669,-3.2669,-3.2612,-3.2373,-3.2076,-3.1845,-3.1787,-3.1228,-3.0947,-3.0889,-3.0889,-3.1064,-3.1387,-3.1475,-3.1885,-3.2529,-3.2715,-3.2978,-3.3301,-3.3389,-3.3418,-3.3418,-3.3418,-3.3418,-3.3418,-3.3418,-3.3418,-3.3418,-3.3418,-3.3418,-3.3418,-3.3418,-3.3418,-3.3408,-3.331,-3.3057,-3.2773,-3.2685,-3.2353,-3.2031,-3.2031,-3.1953,-3.1719,-3.1045,-3.0889,-3.0889,-3.0889,-3.0889,-3.0518,-2.9166,-2.7847,-2.6589,-2.5317,-2.3969,-2.3106,-2.3106,-2.3106,-2.3106,-2.3106,-2.3106,-2.3208,-2.3464,-2.372,-2.4035,-2.4437,-2.426,-2.4099,-2.4081,-2.3816,-2.3475,-2.314,-2.3065,-2.2996,-2.2996,-2.2934,-2.2928,-2.2928,-2.2928,-2.2928,-2.2941,-2.3113,-2.326,-2.3354,-2.3814,-2.4088,-2.4222,-2.4449,-2.4576,-2.4636,-2.4636,-2.4636,-2.4636,-2.4636,-2.4636,-2.4636,-3.2669,-3.2669,-3.2669,-3.2669,-3.2669,-3.2669,-3.2669,-3.2669,-3.2669,-3.2669,-3.2669,-3.2669,-3.2669,-3.2669,-3.2669,-3.2669,-3.2669,-3.2669,-3.2669,-3.2669,-3.2669,-3.2669,-3.2669,-3.2555,-3.2315,-3.196,-3.173,-3.1556,-3.1112,-3.0889,-3.0889,-3.0889,-3.1113,-3.1533,-3.1738,-3.2187,-3.2803,-3.3008,-3.3223,-3.3418,-3.3418,-3.3418,-3.3418,-3.3418,-3.3418,-3.3418,-3.3418,-3.3418,-3.3418,-3.3418,-3.3418,-3.3418,-3.3418,-3.3418,-3.3418,-3.3418,-3.3271,-3.3096,-3.3096,-3.2793,-3.2471,-3.2471,-3.2314,-3.2051,-3.1601,-3.1504,-3.1445,-3.123,-3.1357,-3.0871,-2.8639,-2.7844,-2.6806,-2.4727,-2.378,-2.3288,-2.3128,-2.3245,-2.334,-2.334,-2.3479,-2.364,-2.3808,-2.4123,-2.4386,-2.4554,-2.4574,-2.4398,-2.402,-2.3823,-2.3406,-2.2928,-2.2928,-2.2928,-2.2928,-2.2928,-2.2928,-2.2928,-2.2928,-2.2939,-2.3093,-2.3253,-2.348,-2.3761,-2.4068,-2.4282,-2.4422,-2.4576,-2.4636,-2.4636,-2.4636,-2.4636,-2.4636,-2.4636,-2.4636,-2.4636,-3.2669,-3.2669,-3.2669,-3.2669,-3.2669,-3.2669,-3.2669,-3.2669,-3.2669,-3.2669,-3.2669,-3.2669,-3.2669,-3.2669,-3.2669,-3.2669,-3.2669,-3.2669,-3.2669,-3.2669,-3.2669,-3.2612,-3.2612,-3.2487,-3.2133,-3.1845,-3.1556,-3.1325,-3.1054,-3.0889,-3.0889,-3.0889,-3.1152,-3.1641,-3.2012,-3.2441,-3.292,-3.3271,-3.3418,-3.3418,-3.3418,-3.3418,-3.3418,-3.3418,-3.3418,-3.3418,-3.3418,-3.3418,-3.3418,-3.3418,-3.3418,-3.3418,-3.3418,-3.3418,-3.3418,-3.3418,-3.3418,-3.3418,-3.3418,-3.3164,-3.29,-3.29,-3.2637,-3.2383,-3.2383,-3.2275,-3.2,-3.139,-3.1542,-3.0917,-2.783,-2.7537,-2.6835,-2.4096,-2.3684,-2.3581,-2.331,-2.3508,-2.3684,-2.3684,-2.3969,-2.4166,-2.4166,-2.4459,-2.4723,-2.4723,-2.4838,-2.4645,-2.4027,-2.3891,-2.355,-2.2928,-2.2928,-2.2928,-2.2928,-2.2928,-2.2886,-2.2939,-2.2939,-2.3073,-2.3327,-2.3427,-2.3741,-2.4209,-2.4255,-2.4409,-2.4636,-2.4636,-2.4636,-2.4636,-2.4636,-2.4636,-2.4636,-2.4636,-2.4636,-2.4636,-3.2669,-3.2669,-3.2669,-3.2669,-3.2669,-3.2669,-3.2669,-3.2669,-3.2669,-3.2669,-3.2669,-3.2669,-3.2669,-3.2669,-3.2669,-3.2669,-3.2669,-3.2669,-3.2669,-3.2669,-3.2612,-3.2373,-3.2363,-3.2076,-3.1441,-3.1383,-3.1325,-3.1325,-3.1054,-3.0889,-3.0889,-3.0889,-3.1318,-3.209,-3.2148,-3.2607,-3.334,-3.3398,-3.3418,-3.3418,-3.3418,-3.3418,-3.3418,-3.3418,-3.3418,-3.3418,-3.3418,-3.3418,-3.3418,-3.3418,-3.3418,-3.3418,-3.3418,-3.3418,-3.3418,-3.3418,-3.3418,-3.3418,-3.3418,-3.3379,-3.334,-3.334,-3.3301,-3.3252,-3.3252,-3.2695,-3.1835,-3.0568,-3.035,-2.9555,-2.6741,-2.6264,-2.5784,-2.4279,-2.402,-2.4005,-2.3954,-2.3991,-2.402,-2.402,-2.4305,-2.4503,-2.4503,-2.487,-2.5061,-2.5061,-2.4481,-2.4095,-2.4027,-2.3413,-2.2996,-2.2928,-2.2928,-2.2928,-2.2928,-2.2928,-2.2999,-2.326,-2.326,-2.3287,-2.3347,-2.3855,-2.4128,-2.4215,-2.4469,-2.4603,-2.4636,-2.4636,-2.4636,-2.4636,-2.4636,-2.4636,-2.4636,-2.4636,-2.4636,-2.4636,-3.2669,-3.2669,-3.2669,-3.2669,-3.2669,-3.2669,-3.2669,-3.2669,-3.2669,-3.2669,-3.2669,-3.2669,-3.2669,-3.2669,-3.2669,-3.2669,-3.2669,-3.2669,-3.2669,-3.2555,-3.243,-3.2315,-3.2133,-3.1787,-3.1325,-3.1325,-3.1218,-3.1054,-3.0947,-3.0889,-3.0898,-3.1133,-3.1572,-3.2178,-3.2412,-3.2851,-3.3418,-3.3418,-3.3418,-3.3418,-3.3418,-3.3418,-3.3418,-3.3418,-3.3418,-3.3418,-3.3418,-3.3418,-3.3418,-3.3418,-3.3418,-3.3418,-3.3418,-3.3418,-3.3418,-3.3418,-3.3418,-3.3418,-3.3418,-3.3418,-3.3418,-3.3418,-3.3418,-3.3418,-3.3418,-3.255,-3.1446,-3.0641,-3.0635,-2.9832,-2.6818,-2.6435,-2.6113,-2.4642,-2.4357,-2.4291,-2.4108,-2.424,-2.4423,-2.4672,-2.4819,-2.4907,-2.4907,-2.5039,-2.5127,-2.5127,-2.4578,-2.4231,-2.4027,-2.3475,-2.3065,-2.2934,-2.2928,-2.2928,-2.2928,-2.2928,-2.302,-2.3327,-2.3494,-2.3661,-2.3821,-2.4088,-2.4295,-2.4449,-2.4583,-2.4636,-2.4636,-2.4636,-2.4636,-2.4636,-2.4636,-2.4636,-2.4636,-2.4636,-2.4636,-2.4636]},{"header":{"parameterUnit":"m.s-1","parameterCategory":1,"la1":30.6,"la2":28.766,"lo1":-90.7593,"lo2":-88.6598,"dy":0.0162,"dx":0.0183,"nx":116,"ny":114,"refTime":"2023-09-01T06:00:00:Z","depth":0,"parameterNumber":3,"parameterNumberName":"V-component_of_WINDS"},"data":[0.0,0.0,0.0,0.0,0.0,0.0,0.0,0.0,0.0,0.0,0.0,0.0,0.0,0.0,0.0,0.0,0.0,0.0,0.0,0.0,0.0,0.0,0.0,0.0,0.0,0.0,0.0,0.0,0.0,0.0,0.0,0.0,0.0,0.0,0.0,0.0,0.0,0.0,0.0,0.0,0.0,0.0,0.0,0.0,0.0,0.0,0.0,0.0,0.0,0.0,0.0,0.0,0.0,0.0,0.0,0.0,0.0,0.0,0.0,0.0,0.0,0.0,0.0,0.0,0.0,0.0,0.0,0.0,0.0,0.0,0.0,0.0,0.0,0.0,0.0,0.0,0.0,0.0,0.0,0.0,0.0,0.0,0.0,0.0,0.0,0.0,0.0,0.0,0.0,0.0,0.0,0.0,0.0,0.0,0.0,0.0,0.0,0.0,0.0,0.0,0.0,0.0,0.0,0.0,0.0,0.0,0.0,0.0,0.0,0.0,0.0,0.0,0.0,0.0,0.0,0.0,0.0,0.0,0.0,0.0,0.0,0.0,0.0,0.0,0.0,0.0,0.0,0.0,0.0,0.0,0.0,0.0,0.0,0.0,0.0,0.0,0.0,0.0,0.0,0.0,0.0,0.0,0.0,0.0,0.0,0.0,0.0,0.0,0.0,0.0,0.0,0.0,0.0,0.0,0.0,0.0,0.0,0.0,0.0,0.0,0.0,0.0,0.0,0.0,0.0,0.0,0.0,0.0,0.0,0.0,0.0,0.0,0.0,0.0,0.0,0.0,0.0,0.0,0.0,0.0,0.0,0.0,0.0,0.0,0.0,0.0,0.0,0.0,0.0,0.0,0.0,0.0,0.0,0.0,0.0,0.0,0.0,0.0,0.0,0.0,0.0,0.0,0.0,0.0,0.0,0.0,0.0,0.0,0.0,0.0,0.0,0.0,0.0,0.0,0.0,0.0,0.0,0.0,0.0,0.0,0.0,0.0,0.0,0.0,0.0,0.0,0.0,0.0,0.0,0.0,0.0,0.0,0.0,0.0,0.0,0.0,0.0,0.0,0.0,0.0,0.0,0.0,0.0,0.0,0.0,0.0,0.0,0.0,0.0,0.0,0.0,0.0,0.0,0.0,0.0,0.0,0.0,0.0,0.0,0.0,0.0,0.0,0.0,0.0,0.0,0.0,0.0,0.0,0.0,0.0,0.0,0.0,0.0,0.0,0.0,0.0,0.0,0.0,0.0,0.0,0.0,0.0,0.0,0.0,0.0,0.0,0.0,0.0,0.0,0.0,0.0,0.0,0.0,0.0,0.0,0.0,0.0,0.0,0.0,0.0,0.0,0.0,0.0,0.0,0.0,0.0,0.0,0.0,0.0,0.0,0.0,0.0,0.0,0.0,0.0,0.0,0.0,0.0,0.0,0.0,0.0,0.0,0.0,0.0,0.0,0.0,0.0,0.0,0.0,0.0,0.0,0.0,0.0,0.0,0.0,0.0,0.0,0.0,0.0,0.0,0.0,0.0,0.0,0.0,0.0,0.0,0.0,0.0,0.0,0.0,0.0,0.0,0.0,0.0,0.0,0.0,0.0,0.0,0.0,0.0,0.0,0.0,0.0,0.0,0.0,0.0,0.0,0.0,0.0,0.0,0.0,0.0,0.0,0.0,0.0,0.0,0.0,0.0,0.0,0.0,0.0,0.0,0.0,0.0,0.0,0.0,0.0,0.0,0.0,0.0,0.0,0.0,0.0,0.0,0.0,0.0,0.0,0.0,0.0,0.0,0.0,0.0,0.0,0.0,0.0,0.0,0.0,0.0,0.0,0.0,0.0,0.0,0.0,0.0,0.0,0.0,0.0,0.0,0.0,0.0,0.0,0.0,0.0,0.0,0.0,0.0,0.0,0.0,0.0,0.0,0.0,0.0,0.0,0.0,0.0,0.0,0.0,0.0,0.0,0.0,0.0,0.0,0.0,0.0,0.0,0.0,0.0,0.0,0.0,0.0,0.0,0.0,0.0,0.0,0.0,0.0,0.0,0.0,0.0,0.0,0.0,0.0,0.0,0.0,0.0,0.0,0.0,0.0,0.0,0.0,0.0,0.0,0.0,0.0,0.0,0.0,0.0,0.0,0.0,0.0,0.0,0.0,0.0,0.0,0.0,0.0,0.0,0.0,0.0,0.0,0.0,0.0,0.0,0.0,0.0,0.0,0.0,0.0,0.0,0.0,0.0,0.0,0.0,0.0,0.0,0.0,0.0,0.0,0.0,0.0,0.0,0.0,0.0,0.0,0.0,0.0,0.0,0.0,0.0,0.0,0.0,0.0,0.0,0.0,0.0,0.0,0.0,0.0,0.0,0.0,0.0,0.0,0.0,0.0,0.0,0.0,0.0,0.0,0.0,0.0,0.0,0.0,0.0,0.0,0.0,0.0,0.0,0.0,0.0,0.0,0.0,0.0,0.0,0.0,0.0,0.0,0.0,0.0,0.0,0.0,0.0,0.0,0.0,0.0,0.0,0.0,0.0,0.0,0.0,0.0,0.0,0.0,0.0,0.0,0.0,0.0,0.0,0.0,0.0,0.0,0.0,0.0,0.0,0.0,0.0,0.0,0.0,0.0,0.0,0.0,0.0,0.0,0.0,0.0,0.0,0.0,0.0,0.0,0.0,0.0,0.0,0.0,0.0,0.0,0.0,0.0,0.0,0.0,0.0,0.0,0.0,0.0,0.0,0.0,0.0,0.0,0.0,0.0,0.0,0.0,0.0,0.0,0.0,0.0,0.0,0.0,0.0,0.0,0.0,0.0,0.0,0.0,0.0,0.0,0.0,0.0,0.0,0.0,0.0,0.0,0.0,0.0,0.0,0.0,0.0,0.0,0.0,0.0,0.0,0.0,0.0,0.0,0.0,0.0,0.0,0.0,0.0,0.0,0.0,0.0,0.0,0.0,0.0,0.0,0.0,0.0,0.0,0.0,0.0,0.0,0.0,0.0,0.0,0.0,0.0,0.0,0.0,0.0,0.0,0.0,0.0,0.0,0.0,0.0,0.0,0.0,0.0,0.0,0.0,0.0,0.0,0.0,0.0,0.0,0.0,0.0,0.0,0.0,0.0,0.0,0.0,0.0,0.0,0.0,0.0,0.0,0.0,0.0,0.0,0.0,0.0,0.0,0.0,0.0,0.0,0.0,0.0,0.0,0.0,0.0,0.0,0.0,0.0,0.0,0.0,0.0,0.0,0.0,0.0,0.0,0.0,0.0,0.0,0.0,0.0,0.0,0.0,0.0,0.0,0.0,0.0,0.0,0.0,0.0,0.0,0.0,0.0,0.0,0.0,0.0,0.0,0.0,0.0,0.0,0.0,0.0,0.0,0.0,0.0,0.0,0.0,0.0,0.0,0.0,0.0,0.0,0.0,0.0,0.0,0.0,0.0,0.0,0.0,0.0,0.0,0.0,0.0,0.0,0.0,0.0,0.0,0.0,0.0,0.0,0.0,0.0,0.0,0.0,0.0,0.0,0.0,0.0,0.0,0.0,0.0,0.0,0.0,0.0,0.0,0.0,0.0,0.0,0.0,0.0,0.0,0.0,0.0,0.0,0.0,0.0,0.0,0.0,0.0,0.0,0.0,0.0,0.0,0.0,0.0,0.0,0.0,0.0,0.0,0.0,0.0,0.0,0.0,0.0,0.0,0.0,0.0,0.0,0.0,0.0,0.0,0.0,0.0,0.0,0.0,0.0,0.0,0.0,0.0,0.0,0.0,0.0,0.0,0.0,0.0,0.0,0.0,0.0,0.0,0.0,0.0,0.0,0.0,0.0,0.0,0.0,0.0,0.0,0.0,0.0,0.0,0.0,0.0,0.0,0.0,0.0,0.0,0.0,0.0,0.0,0.0,0.0,0.0,0.0,0.0,0.0,0.0,0.0,0.0,0.0,0.0,0.0,0.0,0.0,0.0,0.0,0.0,0.0,0.0,0.0,0.0,0.0,0.0,0.0,0.0,0.0,0.0,0.0,0.0,0.0,0.0,0.0,0.0,0.0,0.0,0.0,0.0,0.0,0.0,0.0,0.0,0.0,0.0,0.0,0.0,0.0,0.0,0.0,0.0,0.0,0.0,0.0,0.0,0.0,0.0,0.0,0.0,0.0,0.0,0.0,0.0,0.0,0.0,0.0,0.0,0.0,0.0,0.0,0.0,0.0,0.0,0.0,0.0,0.0,0.0,0.0,0.0,0.0,0.0,0.0,0.0,0.0,0.0,0.0,0.0,0.0,0.0,0.0,0.0,0.0,0.0,0.0,0.0,0.0,0.0,0.0,0.0,0.0,0.0,0.0,0.0,0.0,0.0,0.0,0.0,0.0,0.0,0.0,0.0,0.0,0.0,0.0,0.0,0.0,0.0,0.0,0.0,0.0,0.0,0.0,0.0,0.0,0.0,0.0,0.0,0.0,0.0,0.0,0.0,0.0,0.0,0.0,0.0,0.0,0.0,0.0,0.0,0.0,0.0,0.0,0.0,0.0,0.0,0.0,0.0,0.0,0.0,0.0,0.0,0.0,0.0,0.0,0.0,0.0,0.0,0.0,0.0,0.0,0.0,0.0,0.0,0.0,0.0,0.0,0.0,0.0,0.0,0.0,0.0,0.0,0.0,0.0,0.0,0.0,0.0,0.0,0.0,0.0,0.0,0.0,0.0,0.0,0.0,0.0,0.0,0.0,0.0,0.0,0.0,0.0,0.0,0.0,0.0,0.0,0.0,0.0,0.0,0.0,0.0,0.0,0.0,0.0,0.0,0.0,0.0,0.0,0.0,0.0,0.0,0.0,0.0,0.0,0.0,0.0,0.0,0.0,0.0,0.0,0.0,0.0,0.0,0.0,0.0,0.0,0.0,0.0,0.0,0.0,0.0,0.0,0.0,0.0,0.0,0.0,0.0,0.0,0.0,0.0,0.0,0.0,0.0,0.0,0.0,0.0,0.0,0.0,0.0,0.0,0.0,0.0,0.0,0.0,0.0,0.0,0.0,0.0,0.0,0.0,0.0,0.0,0.0,0.0,0.0,0.0,0.0,0.0,0.0,0.0,0.0,0.0,0.0,0.0,0.0,0.0,0.0,0.0,0.0,0.0,0.0,0.0,0.0,0.0,0.0,0.0,0.0,0.0,0.0,0.0,0.0,0.0,0.0,0.0,0.0,0.0,0.0,0.0,0.0,0.0,0.0,0.0,0.0,0.0,0.0,0.0,0.0,0.0,0.0,0.0,0.0,0.0,0.0,0.0,0.0,0.0,0.0,0.0,0.0,0.0,0.0,0.0,0.0,0.0,0.0,0.0,0.0,0.0,0.0,0.0,0.0,0.0,0.0,0.0,0.0,0.0,0.0,0.0,0.0,0.0,0.0,0.0,0.0,0.0,0.0,0.0,0.0,0.0,0.0,0.0,0.0,0.0,0.0,0.0,0.0,0.0,0.0,0.0,0.0,0.0,0.0,0.0,0.0,0.0,0.0,0.0,0.0,0.0,0.0,0.0,0.0,0.0,0.0,0.0,0.0,0.0,0.0,0.0,0.0,0.0,0.0,0.0,0.0,0.0,0.0,0.0,0.0,0.0,0.0,0.0,0.0,0.0,0.0,0.0,0.0,0.0,0.0,0.0,0.0,0.0,0.0,0.0,0.0,0.0,0.0,0.0,0.0,0.0,0.0,0.0,0.0,0.0,0.0,0.0,0.0,0.0,0.0,0.0,0.0,0.0,0.0,0.0,0.0,0.0,0.0,0.0,0.0,0.0,0.0,0.0,0.0,0.0,0.0,0.0,0.0,0.0,0.0,0.0,0.0,0.0,0.0,0.0,0.0,0.0,0.0,0.0,0.0,0.0,0.0,0.0,0.0,0.0,0.0,0.0,0.0,0.0,0.0,0.0,0.0,0.0,0.0,0.0,0.0,0.0,0.0,0.0,0.0,0.0,0.0,0.0,0.0,0.0,0.0,0.0,0.0,0.0,0.0,0.0,0.0,0.0,0.0,0.0,0.0,0.0,0.0,0.0,0.0,0.0,0.0,0.0,0.0,0.0,0.0,0.0,0.0,0.0,0.0,0.0,0.0,0.0,0.0,0.0,0.0,0.0,0.0,0.0,0.0,0.0,2.9383,2.9449,0.0,0.0,0.0,0.0,0.0,0.0,0.0,0.0,0.0,0.0,0.0,0.0,0.0,0.0,0.0,0.0,0.0,0.0,0.0,0.0,0.0,0.0,0.0,0.0,0.0,0.0,0.0,0.0,0.0,0.0,0.0,0.0,0.0,0.0,0.0,0.0,0.0,3.2219,3.2219,3.2247,3.2272,3.1597,3.1171,3.099,0.0,0.0,0.0,0.0,0.0,0.0,0.0,0.0,0.0,0.0,0.0,0.0,0.0,0.0,0.0,0.0,0.0,0.0,0.0,0.0,0.0,0.0,0.0,0.0,0.0,0.0,0.0,0.0,0.0,0.0,0.0,0.0,0.0,0.0,0.0,0.0,0.0,0.0,0.0,0.0,0.0,0.0,0.0,0.0,0.0,0.0,0.0,0.0,0.0,0.0,0.0,0.0,0.0,0.0,0.0,0.0,0.0,0.0,0.0,0.0,0.0,0.0,0.0,0.0,0.0,0.0,0.0,0.0,0.0,0.0,3.0701,3.0282,0.0,0.0,0.0,0.0,0.0,0.0,0.0,0.0,0.0,0.0,0.0,0.0,0.0,0.0,0.0,0.0,0.0,0.0,0.0,0.0,0.0,0.0,0.0,3.2066,3.1996,3.1996,3.1968,3.1968,0.0,0.0,0.0,0.0,0.0,0.0,0.0,3.1968,3.1968,3.1996,3.1996,3.2053,3.2178,3.2178,3.1928,3.1482,3.0986,0.0,0.0,0.0,0.0,0.0,0.0,0.0,0.0,0.0,0.0,0.0,0.0,0.0,0.0,0.0,0.0,0.0,0.0,0.0,0.0,0.0,0.0,0.0,0.0,0.0,0.0,0.0,0.0,0.0,0.0,0.0,0.0,0.0,0.0,0.0,0.0,0.0,0.0,0.0,0.0,0.0,0.0,0.0,0.0,0.0,0.0,0.0,0.0,0.0,0.0,0.0,0.0,0.0,0.0,0.0,0.0,0.0,0.0,0.0,0.0,0.0,0.0,0.0,3.3499,3.3499,3.3499,3.3499,3.3576,3.3593,3.166,3.0892,3.1014,3.1014,0.0,0.0,0.0,0.0,0.0,0.0,0.0,0.0,0.0,0.0,0.0,0.0,0.0,0.0,0.0,0.0,0.0,0.0,0.0,0.0,0.0,3.2025,3.1996,3.1996,3.1898,3.1813,3.1813,0.0,0.0,0.0,0.0,0.0,3.1813,3.1813,3.1898,3.1996,3.1996,3.2025,3.2025,3.2025,3.2007,3.1944,3.2072,3.1797,3.1259,0.0,0.0,0.0,0.0,0.0,0.0,0.0,0.0,0.0,0.0,0.0,0.0,0.0,0.0,0.0,0.0,0.0,0.0,0.0,0.0,0.0,0.0,0.0,0.0,0.0,0.0,0.0,0.0,0.0,0.0,0.0,0.0,0.0,0.0,0.0,0.0,0.0,0.0,0.0,0.0,0.0,3.004,2.9711,0.0,0.0,0.0,0.0,0.0,0.0,0.0,0.0,0.0,0.0,0.0,0.0,0.0,3.3275,3.3365,3.3455,3.3499,3.3499,3.3499,3.3499,3.3499,3.3499,3.3576,3.3683,3.3366,0.0,3.3438,3.3438,0.0,0.0,0.0,0.0,0.0,0.0,0.0,0.0,0.0,0.0,0.0,0.0,0.0,0.0,0.0,0.0,0.0,0.0,0.0,0.0,0.0,3.1798,3.1712,3.1712,3.1655,3.1626,3.1626,3.1626,0.0,0.0,0.0,3.1626,3.1626,3.1626,3.1655,3.1712,3.2117,3.2312,3.2399,3.2776,3.3001,3.3074,3.3175,3.2682,3.1735,3.1803,0.0,0.0,0.0,0.0,0.0,0.0,0.0,0.0,0.0,0.0,0.0,0.0,0.0,0.0,0.0,0.0,0.0,0.0,0.0,0.0,0.0,0.0,0.0,0.0,0.0,0.0,0.0,0.0,0.0,0.0,0.0,0.0,0.0,0.0,0.0,0.0,0.0,0.0,0.0,3.1432,3.1602,3.1763,3.2018,3.2302,0.0,0.0,0.0,0.0,0.0,0.0,0.0,0.0,0.0,3.4038,3.4427,3.4801,3.5175,3.5519,3.5684,3.5684,3.5684,3.5684,3.5684,3.5684,3.5716,3.5782,3.5782,3.5799,3.5744,3.4424,3.3954,3.4029,0.0,0.0,0.0,0.0,3.4238,3.4327,0.0,0.0,0.0,0.0,0.0,0.0,0.0,0.0,0.0,0.0,0.0,0.0,3.1727,3.1597,3.1511,3.1511,3.1511,3.1511,3.1511,3.1511,3.1585,3.175,3.175,3.1839,3.2004,3.2004,3.2004,3.2004,3.2497,3.2826,3.2901,3.3427,3.3713,3.3789,3.3789,3.3304,3.2467,3.2414,3.2394,3.2407,0.0,0.0,0.0,0.0,0.0,0.0,0.0,0.0,0.0,0.0,0.0,0.0,0.0,0.0,0.0,0.0,0.0,0.0,0.0,0.0,0.0,0.0,0.0,0.0,0.0,0.0,0.0,0.0,0.0,0.0,0.0,0.0,0.0,0.0,0.0,0.0,0.0,3.2452,3.2946,3.344,3.3499,3.3559,0.0,0.0,0.0,0.0,0.0,0.0,3.4247,3.4262,3.4562,3.5237,3.5729,3.6312,3.6971,3.7434,3.7749,3.7913,3.7913,3.7913,3.7913,3.7913,3.7913,3.7913,3.7734,3.7659,3.7494,3.5597,3.4727,3.4621,3.4621,3.4531,3.4455,3.4455,3.4516,3.4653,0.0,0.0,0.0,0.0,0.0,0.0,0.0,0.0,0.0,0.0,0.0,3.1727,3.1539,3.1511,3.1511,3.1511,3.1511,3.1511,3.1511,3.1511,3.178,3.2407,3.2437,3.2766,3.338,3.3395,3.3395,3.3395,3.3425,3.344,3.344,3.35,3.3515,3.353,3.353,3.3622,3.3758,3.3196,3.2967,3.2906,3.2394,0.0,0.0,0.0,0.0,0.0,0.0,0.0,0.0,0.0,0.0,0.0,0.0,0.0,0.0,0.0,0.0,0.0,0.0,0.0,0.0,0.0,0.0,0.0,0.0,0.0,0.0,0.0,0.0,0.0,0.0,0.0,0.0,0.0,0.0,0.0,0.0,0.0,0.0,3.3499,3.3499,0.0,0.0,0.0,0.0,3.5355,3.54,3.5684,3.6312,3.6327,3.6626,3.724,3.73,3.7629,3.8287,3.8317,3.8676,3.932,3.932,3.932,3.932,3.932,3.932,3.9239,3.8631,3.8347,3.8287,3.7524,3.6952,3.6577,3.6577,3.6282,3.5899,3.5899,3.5899,3.5899,0.0,0.0,0.0,0.0,0.0,0.0,0.0,0.0,3.1813,3.1626,3.1597,3.1568,3.1511,3.1511,3.1511,3.1511,3.1511,3.1511,3.1511,3.1899,3.2243,3.2497,3.2916,3.326,3.3484,3.3499,3.3499,3.3499,3.3918,3.4352,3.4801,3.522,3.5639,3.6013,3.6013,3.6064,3.6027,3.4226,3.3456,3.3426,3.3332,3.3387,0.0,0.0,0.0,0.0,0.0,0.0,0.0,0.0,0.0,0.0,0.0,0.0,0.0,0.0,0.0,0.0,0.0,0.0,0.0,0.0,0.0,0.0,0.0,0.0,0.0,0.0,0.0,0.0,0.0,0.0,0.0,0.0,0.0,0.0,0.0,0.0,0.0,3.4741,3.516,0.0,3.5744,3.6133,3.6462,3.6701,3.6731,3.7015,3.7674,3.7704,3.8018,3.8691,3.911,3.9454,3.9679,4.0113,4.0442,4.0681,4.0681,4.0681,4.0681,4.0681,4.0681,4.0666,4.0412,4.0322,4.0292,4.0053,3.8861,3.7143,3.7143,3.706,3.6917,3.6917,3.6984,3.7098,0.0,0.0,0.0,0.0,0.0,0.0,0.0,0.0,3.167,3.1511,3.1511,3.1511,3.1511,3.1511,3.1511,3.1511,3.1511,3.16,3.1824,3.2243,3.2706,3.3155,3.3814,3.4173,3.4173,3.4173,3.4173,3.4173,3.4863,3.5385,3.5848,3.6492,3.7015,3.7404,3.7404,3.7404,3.73,3.5632,3.4704,3.4268,3.394,3.3909,3.4014,0.0,0.0,0.0,0.0,0.0,0.0,0.0,0.0,0.0,0.0,0.0,0.0,0.0,0.0,0.0,0.0,0.0,0.0,0.0,0.0,0.0,0.0,0.0,0.0,0.0,0.0,0.0,0.0,0.0,0.0,0.0,0.0,0.0,0.0,3.5043,3.5357,3.5774,3.6402,3.6881,3.7105,3.7494,3.7838,3.8078,3.8078,3.8377,3.9035,3.9065,3.9379,4.0053,4.0502,4.0846,4.1055,4.1527,4.1818,4.2043,4.2043,4.2043,4.2043,4.2043,4.2043,4.2028,4.1841,4.1752,4.1737,4.1512,4.0337,3.8736,3.8497,3.8272,3.8078,3.8078,3.8012,3.7906,0.0,0.0,0.0,0.0,0.0,0.0,0.0,3.1626,3.1511,3.1511,3.1511,3.1511,3.1511,3.1511,3.1511,3.1511,3.1511,3.178,3.2467,3.2512,3.3125,3.4474,3.5145,3.5504,3.5504,3.5534,3.5534,3.5534,3.6193,3.6522,3.6552,3.7165,3.7449,3.7464,3.7464,3.7464,3.7464,3.7449,3.6731,3.5474,3.4253,3.3789,3.3774,0.0,0.0,0.0,0.0,0.0,0.0,0.0,0.0,0.0,0.0,0.0,0.0,0.0,0.0,0.0,0.0,0.0,0.0,0.0,0.0,0.0,0.0,0.0,0.0,0.0,0.0,0.0,0.0,0.0,0.0,0.0,0.0,0.0,3.5624,3.6118,3.6552,3.6552,3.7105,3.7749,3.8392,3.8467,3.8751,3.9388,3.9448,3.9768,4.0427,4.0487,4.0786,4.1444,4.1527,4.1841,4.2485,4.2485,4.2761,4.3349,4.3349,4.3349,4.3349,4.3349,4.3349,4.3319,4.2731,4.2485,4.241,4.1767,4.1459,4.1369,4.0696,4.0038,3.9448,3.9448,3.905,3.8392,0.0,0.0,0.0,0.0,0.0,0.0,3.1626,3.1539,3.1511,3.1511,3.1511,3.1511,3.1511,3.1511,3.1511,3.1511,3.1511,3.178,3.2467,3.2961,3.3814,3.516,3.54,3.5504,3.5504,3.5968,3.6222,3.6222,3.6851,3.7404,3.7868,3.8048,3.8377,3.8871,3.8871,3.8871,3.8826,3.8332,3.7913,3.7479,3.6244,3.5516,3.5145,0.0,0.0,0.0,0.0,0.0,0.0,0.0,0.0,0.0,0.0,0.0,0.0,0.0,0.0,0.0,0.0,0.0,0.0,0.0,0.0,0.0,0.0,0.0,0.0,0.0,0.0,0.0,0.0,0.0,0.0,0.0,3.6746,3.6941,3.6312,3.7165,3.7868,3.7868,3.8871,3.9649,3.9828,4.0277,4.0636,4.0831,4.0846,4.113,4.1826,4.2267,4.2836,4.3494,4.3973,4.4302,4.4481,4.4481,4.4586,4.4751,4.4751,4.4751,4.4751,4.4751,4.4751,4.4751,4.4556,4.4212,4.3763,4.3584,4.3225,4.2686,4.1549,4.0995,4.0846,4.0846,4.0726,4.0531,0.0,0.0,0.0,0.0,0.0,0.0,3.1568,3.1568,3.1597,3.1511,3.1511,3.1511,3.1511,3.1511,3.1511,3.1511,3.1765,3.2183,3.2886,3.3814,3.4696,3.5474,3.5504,3.5639,3.5908,3.6297,3.6611,3.6881,3.7509,3.8018,3.8407,3.8691,3.9035,3.9388,3.9388,3.9388,3.9358,3.899,3.8661,3.8332,3.7584,3.6783,3.6012,3.5642,3.5619,3.5765,3.5668,3.5621,3.5621,3.5621,0.0,0.0,0.0,0.0,0.0,0.0,0.0,0.0,0.0,0.0,0.0,0.0,0.0,0.0,0.0,0.0,0.0,0.0,0.0,0.0,0.0,0.0,0.0,0.0,3.7823,3.8212,3.8138,3.8527,3.8916,3.92,4.0172,4.092,4.119,4.1818,4.2312,4.2581,4.2865,4.318,4.3609,4.3958,4.4332,4.4721,4.5095,4.5289,4.5289,4.5289,4.5289,4.5289,4.5289,4.5289,4.5289,4.5289,4.5289,4.5289,4.5289,4.508,4.4721,4.4721,4.4496,4.4032,0.0,0.0,0.0,0.0,4.1826,4.1796,0.0,0.0,0.0,0.0,0.0,0.0,3.1553,3.167,3.1727,3.1539,3.1511,3.1511,3.1511,3.1511,3.1511,3.1511,3.2108,3.2826,3.3559,3.4801,3.5504,3.5504,3.5504,3.5804,3.6477,3.6552,3.6896,3.7524,3.8182,3.8497,3.8527,3.9125,3.9388,3.9388,3.9388,3.9388,3.9388,3.9388,3.9065,3.8497,3.8422,3.7629,3.6432,3.5833,3.5564,3.5504,3.5504,3.5504,3.5504,3.5504,0.0,0.0,0.0,0.0,0.0,0.0,0.0,0.0,0.0,0.0,0.0,0.0,0.0,0.0,0.0,0.0,0.0,0.0,0.0,0.0,0.0,0.0,0.0,0.0,3.92,3.9873,4.0531,4.0187,4.0053,4.0561,4.1265,4.1938,4.2575,4.318,4.3753,4.4377,4.496,4.5289,4.5289,4.5364,0.0,0.0,0.0,4.5529,4.5529,4.5529,4.5529,4.5529,4.5529,4.5529,4.5529,4.5529,4.5529,4.5529,4.5529,4.5484,4.5409,4.5409,4.5364,4.517,4.3888,4.3409,4.3319,4.2716,4.2515,4.2425,0.0,0.0,0.0,0.0,0.0,0.0,3.1553,3.167,3.1727,3.1539,3.1511,3.1511,3.1511,3.1511,3.1511,3.1511,3.2108,3.3021,3.4234,3.5055,3.5504,3.5504,3.5504,3.5804,3.6477,3.6971,3.7554,3.8197,3.8886,3.923,3.923,3.9328,3.9388,3.9388,3.9388,3.9388,3.9388,3.9388,3.9349,3.917,3.8616,3.7629,3.6477,3.6342,3.5968,3.5504,3.5504,3.5504,3.5504,3.5504,3.5504,3.5504,3.5504,3.5504,0.0,0.0,0.0,0.0,0.0,0.0,0.0,0.0,0.0,0.0,0.0,0.0,0.0,0.0,0.0,0.0,0.0,0.0,0.0,3.9903,4.0576,4.1235,4.1931,4.2327,4.2432,4.2066,4.3015,4.3793,4.3928,4.4526,4.4975,4.5095,4.5229,4.5289,4.5289,4.5813,4.6127,4.6127,4.6636,4.692,4.692,4.692,4.692,4.692,4.692,0.0,4.692,4.692,4.692,4.692,4.692,4.6621,4.6127,4.6127,4.5798,4.5214,4.4436,4.4122,4.4047,4.3389,4.315,4.3135,0.0,0.0,0.0,0.0,0.0,0.0,3.1712,3.1784,3.1798,3.1539,3.1511,3.1511,3.1511,3.1795,3.1989,3.1989,3.2931,3.3918,3.4921,3.531,3.5504,3.5504,3.5504,3.5968,3.6926,3.7255,3.7898,3.8901,3.9245,3.9388,3.9388,3.9388,3.9388,3.9388,3.9388,3.9388,3.9388,3.9388,3.9388,3.9394,3.905,3.8123,3.6911,3.6596,3.6073,3.5504,3.5504,3.5504,3.5504,3.5504,3.5504,3.5504,3.5504,3.5504,3.5564,0.0,0.0,0.0,0.0,0.0,0.0,0.0,0.0,0.0,0.0,0.0,0.0,0.0,0.0,3.9005,3.9334,0.0,4.0621,4.1265,4.1938,4.2581,4.3254,4.3898,4.4062,4.3419,4.4212,4.4811,4.4811,4.5424,4.5813,4.5813,4.6112,4.6307,4.6307,4.6636,4.6815,4.6815,4.713,4.7309,4.7309,4.7309,4.7309,4.7309,4.7309,4.7309,4.7309,4.7309,4.7309,4.7309,4.7309,4.7115,4.6815,4.6815,4.6606,4.6232,4.5574,4.511,4.4766,4.4436,4.4317,4.4317,0.0,0.0,0.0,0.0,0.0,0.0,0.0,3.194,3.1883,3.1597,3.1511,3.1511,3.1511,3.2093,3.2617,3.2871,3.3858,3.4771,3.5459,3.5504,3.5504,3.5504,3.5504,3.6043,3.721,3.7345,3.8003,3.923,3.9349,3.9388,3.9388,3.9388,3.9388,3.9388,3.9388,3.9388,3.9388,3.9388,3.9388,3.9388,3.9388,3.8616,3.736,3.7,3.6297,3.5504,3.5504,3.5504,3.5504,3.5504,3.5594,3.5699,3.5699,3.5774,3.5983,3.6507,3.6282,0.0,0.0,0.0,0.0,0.0,0.0,0.0,0.0,3.8302,3.8945,3.8811,3.9738,4.0621,4.0756,4.1205,4.1871,4.265,4.318,4.3708,4.4407,4.508,4.5289,4.4766,4.517,4.5484,4.5484,4.6112,4.6474,4.6474,4.701,4.7309,4.7309,4.7309,4.7309,4.7309,4.7309,4.7309,4.7309,4.7309,4.7309,4.7309,4.7309,4.7309,4.7309,4.7309,4.7309,4.7309,4.7309,4.7309,4.7309,4.7309,4.7309,4.7249,4.6726,4.6172,4.5648,4.5394,4.5289,4.5289,0.0,0.0,0.0,0.0,0.0,0.0,0.0,0.0,3.194,3.1784,3.1597,3.1511,3.1511,3.2093,3.2976,3.4189,3.4414,3.4771,3.5459,3.5504,3.5504,3.5504,3.5504,3.5848,3.6567,3.7135,3.7778,3.8497,3.9125,3.9388,3.9388,3.9388,3.9388,3.9388,3.9388,3.9388,3.9388,3.9388,3.9388,3.9388,3.9388,3.8616,3.7464,3.7988,3.706,3.5504,3.5504,3.5504,3.5504,3.5504,3.5893,3.6372,3.6372,3.6761,3.721,3.7285,3.7255,3.7225,3.7375,3.7778,3.8048,3.7539,3.8751,3.9753,0.0,3.9723,4.0891,4.0292,4.0756,4.1444,4.2066,4.2246,4.2695,4.3898,4.4152,4.4436,4.5095,4.5783,4.6145,4.607,4.6115,4.6217,4.6217,4.68,4.7189,4.7189,4.7264,4.7309,4.7309,4.7309,4.7309,4.7309,4.7309,4.7309,4.7309,4.7309,4.7309,4.7309,4.7309,4.7309,4.7309,4.7309,4.7309,4.7309,4.7309,4.7309,4.7309,4.7309,4.7309,4.7294,4.7219,4.7145,4.6935,4.5738,4.5289,4.5289,0.0,0.0,0.0,0.0,0.0,0.0,0.0,0.0,0.0,3.1813,3.1727,3.1626,3.1511,3.2437,3.3455,3.4429,3.4846,3.519,3.5489,3.5504,3.5504,3.5504,3.5504,3.5804,3.6477,3.6746,3.718,3.7823,3.8108,3.8452,3.8826,3.8826,3.9035,3.9388,3.9388,3.9388,3.9388,3.9388,3.9388,3.9388,3.9388,3.8841,3.8003,3.8287,3.7644,3.6611,3.6611,3.6611,0.0,3.6611,3.6791,3.703,3.703,3.721,3.7479,3.7868,3.7704,3.7494,3.7883,3.8751,3.9499,3.9215,4.0068,4.0831,4.0262,4.1108,4.1916,4.1632,4.2058,4.2596,4.288,4.324,4.3673,4.4227,4.4934,4.5574,4.5858,4.6471,4.689,4.689,4.689,4.689,4.689,4.7145,4.7309,4.7309,4.7309,4.7309,4.7309,4.7309,4.7309,4.7309,4.7309,4.7309,4.7309,4.7309,4.7309,4.7309,4.7309,4.7309,4.7309,4.7309,4.7309,4.7309,4.7309,4.7309,4.7309,4.7309,4.7309,4.7309,4.7309,4.7309,4.7234,4.6681,4.6456,4.6456,0.0,0.0,0.0,0.0,0.0,0.0,0.0,0.0,0.0,0.0,3.1841,3.1787,3.1794,3.2826,3.3769,3.4444,3.51,3.5504,3.5504,3.5504,3.5504,3.5504,3.5504,3.5729,3.6207,3.6387,3.6701,3.715,3.733,3.7659,3.8123,3.8123,3.8377,3.8871,3.8871,3.8871,3.8871,3.8871,3.8975,3.9125,3.9125,3.8841,3.8407,3.8601,3.8257,3.7659,3.7479,3.7404,3.7404,3.7404,3.7524,3.7689,3.7689,3.7808,3.8063,3.8527,3.8467,3.8332,3.8811,3.9798,4.0666,4.0666,4.1309,4.1893,4.1737,4.2336,4.289,4.271,4.3015,4.329,4.329,4.3828,4.4377,4.4556,4.5559,4.6339,4.6576,4.701,4.7309,4.7309,4.7309,4.7309,4.7309,4.7309,4.7309,4.7309,4.7309,4.7309,4.7309,4.7309,4.7309,4.7309,4.7309,4.7309,4.7309,4.7309,4.7309,4.7309,4.7309,4.7309,4.7309,4.7309,4.7309,4.7309,4.7309,4.7309,4.7309,4.7309,4.7309,4.7309,4.7309,4.7309,4.7309,4.7309,4.7309,4.7309,0.0,0.0,0.0,0.0,0.0,0.0,0.0,0.0,0.0,0.0,0.0,0.0,0.0,3.3095,3.3769,3.4444,3.51,3.5504,3.5504,3.5504,3.5504,3.5504,3.5504,3.5519,3.5534,3.6163,3.6492,3.6507,3.712,3.7419,3.7434,3.7434,3.7449,3.7464,3.7464,3.7464,3.7464,3.7464,3.7838,3.8422,3.8422,3.8407,3.8467,3.9125,3.896,3.8272,3.7644,3.7404,3.7404,3.7404,3.7838,3.8362,3.8362,3.8826,3.9328,3.9343,3.9828,4.0307,4.0337,4.0831,4.1354,4.1354,4.2342,4.3165,4.253,4.3329,4.4077,4.3394,4.329,4.329,4.329,4.3828,4.4526,4.5155,4.5858,4.6546,4.7189,4.7294,4.7309,4.7309,4.7309,4.7309,4.7309,4.7309,4.7309,4.7309,4.7309,4.7309,4.7309,4.7309,4.7309,4.7309,4.7309,4.7309,4.7309,4.7309,4.7309,4.7309,4.7309,4.7309,4.7309,4.7309,4.7309,4.7309,4.7309,4.7309,4.7309,4.7309,4.7309,4.7309,4.7309,4.7309,4.7309,4.7309,4.7309,4.7309,0.0,0.0,0.0,0.0,0.0,0.0,0.0,0.0,0.0,0.0,0.0,0.0,0.0,0.0,0.0,0.0,3.449,3.5026,3.5474,3.5504,3.5504,3.5504,3.5504,3.5504,3.5504,3.5729,3.5833,3.5833,3.6043,3.6372,3.6791,3.6791,3.7015,3.7404,3.7404,3.7404,3.7404,3.7404,3.7793,3.8392,3.8392,3.8661,3.9095,3.9334,3.9275,3.9035,0.0,3.8751,3.8751,3.8751,3.8886,3.9065,3.9065,3.923,3.9514,3.9948,4.0232,4.0502,4.0935,4.1572,4.2171,4.2566,4.3344,4.3943,4.3703,4.3988,4.4122,4.3424,4.329,4.329,4.329,4.3828,4.4526,4.5185,4.5873,4.6503,4.7219,4.7309,4.7309,4.7309,4.7309,4.7309,4.7309,4.7309,4.7309,4.7309,4.7309,4.7309,4.7309,4.7309,4.7309,4.7309,4.7309,4.7309,4.7309,4.7309,4.7309,4.7309,4.7309,4.7309,4.7309,4.7309,4.7309,4.7309,4.7309,4.7309,4.7309,4.7309,4.7309,4.7309,4.7309,4.7309,4.7309,4.7309,4.7309,4.7309,0.0,0.0,0.0,0.0,0.0,0.0,0.0,0.0,0.0,0.0,0.0,0.0,0.0,0.0,0.0,0.0,0.0,3.4698,3.51,3.537,3.5504,3.5504,3.5504,3.5504,3.5504,3.5504,3.5504,3.5504,3.5504,3.5729,3.6133,3.6133,3.6342,3.6731,3.6731,3.6731,3.6731,3.6731,3.724,3.8033,3.8033,3.8601,3.9388,3.9388,3.9388,0.0,3.9388,3.9388,3.9388,3.9388,3.9388,3.9388,3.9388,3.9574,3.9843,4.0277,4.0726,4.125,4.1908,4.2566,4.3225,4.3868,4.4347,4.4601,4.4362,4.4317,4.4122,4.3424,4.329,4.329,4.329,4.3828,4.4526,4.5185,4.5873,4.6503,4.7219,4.7309,4.7309,4.7309,4.7309,4.7309,4.7309,4.7309,4.7309,4.7309,4.7309,4.7309,4.7309,4.7309,4.7414,4.7653,4.7653,4.7773,4.7997,4.7997,4.7997,4.7997,4.7997,4.7997,4.7997,4.7758,4.7653,4.7638,4.7399,4.7309,4.7309,4.7309,4.7309,4.7309,4.7309,4.7309,4.7309,4.7309,4.7309,4.7309,0.0,0.0,0.0,0.0,0.0,0.0,0.0,0.0,0.0,0.0,0.0,0.0,0.0,0.0,0.0,0.0,0.0,0.0,3.4503,3.5115,3.5504,3.5504,3.5504,3.5504,3.5504,3.5504,3.5504,3.5504,3.5504,3.5504,3.5504,3.5504,3.5504,3.5504,3.5504,3.5504,3.5504,3.5504,3.6222,3.736,3.7404,3.8197,3.9328,3.9373,3.9388,3.9388,3.9388,3.9388,3.9388,3.9388,3.9388,3.9388,3.9388,3.9873,4.0412,4.0442,4.1392,4.2545,4.3195,4.3838,4.4481,4.517,4.5319,4.5125,4.4511,4.4332,4.4122,4.3424,4.329,4.329,4.329,4.3798,4.4481,4.5185,4.5843,4.6516,4.7204,4.7309,4.7309,4.7309,4.7309,4.7309,4.7309,4.7309,4.7309,4.7309,4.7309,4.7309,4.7309,4.7339,4.7638,4.8267,4.8312,4.8641,4.9299,4.9314,4.9314,4.9314,4.9314,4.9314,4.9284,4.8626,4.8341,4.8297,4.7683,4.7384,4.7354,4.7354,4.7339,4.7309,4.7309,4.7309,4.7309,4.7309,4.7309,4.7309,0.0,0.0,0.0,0.0,0.0,0.0,0.0,0.0,0.0,0.0,0.0,0.0,0.0,0.0,0.0,0.0,0.0,0.0,3.4474,3.5115,3.5504,3.5504,3.5504,3.5504,3.5504,3.5504,3.5504,3.5504,3.5504,3.5504,3.5504,3.5504,3.5504,3.5504,3.5504,3.5504,3.5504,3.5504,3.5983,3.6761,3.7225,3.7898,3.8706,3.923,3.9388,3.9388,3.9388,3.9388,3.9388,3.9388,3.9388,3.9388,3.9388,3.9873,4.0502,4.0995,4.1752,4.265,4.3748,4.4182,4.4601,4.5768,4.5678,4.5244,4.508,4.4661,4.4122,4.3424,4.329,4.329,4.329,4.3424,4.3958,4.511,4.5439,4.5963,4.7145,4.7309,4.7309,4.7309,4.7309,4.7309,4.7309,4.7309,4.7309,4.7309,4.7309,4.7309,4.7309,4.7773,4.8117,4.8282,4.876,4.9149,4.9314,4.9314,4.9314,4.9314,4.9314,4.9314,4.9299,4.9134,4.906,4.906,4.888,4.8491,4.8042,4.8042,4.7743,4.7309,4.7309,4.7309,4.7309,4.7309,4.7309,4.7309,0.0,0.0,0.0,0.0,0.0,0.0,0.0,0.0,0.0,0.0,0.0,0.0,0.0,0.0,0.0,0.0,0.0,0.0,0.0,3.4713,3.519,3.5489,3.5504,3.5504,3.5504,3.5504,3.5504,3.5504,3.5504,3.5504,3.5504,3.5504,3.5504,3.5504,3.5504,3.5504,3.5504,3.5504,3.5893,0.0,0.0,3.7808,3.8467,3.9155,3.9388,3.9388,3.9388,3.9388,3.9388,3.9388,3.9388,3.9433,3.9768,4.0307,4.0965,4.1647,4.2515,4.3434,4.4466,4.496,4.5379,4.6085,4.5813,4.5214,4.493,4.4347,4.3738,4.3364,4.329,4.329,4.329,4.329,4.3618,4.4691,4.511,4.5663,4.6726,4.7115,4.7309,4.7309,4.7309,4.7309,4.7309,4.7309,4.7429,4.7713,4.7474,4.7429,4.7713,4.8087,4.8551,4.9119,4.9508,4.9838,5.0122,5.0122,5.0122,5.0122,5.0122,5.0122,5.0107,4.9823,4.9688,4.9673,4.9434,4.9105,4.876,4.876,4.8327,4.7743,4.7743,4.7563,4.7309,4.7309,4.7309,4.7309,0.0,0.0,0.0,0.0,0.0,0.0,0.0,0.0,0.0,0.0,0.0,0.0,0.0,0.0,0.0,0.0,0.0,0.0,0.0,0.0,3.4773,3.534,3.5459,3.5504,3.5504,3.5504,3.5504,3.5504,3.5504,3.5504,3.5504,3.5504,3.5504,3.5504,3.5504,3.5504,3.5504,3.5504,3.5833,3.6417,3.703,3.7689,3.8332,0.0,3.9298,3.9388,3.9388,3.9388,3.9388,3.9388,3.9388,3.9529,4.0187,4.0846,4.1504,4.2201,4.3284,4.4466,4.511,4.5798,4.6279,4.6279,4.5813,4.5125,4.4466,4.3768,4.329,4.329,4.329,4.329,4.329,4.329,4.3514,4.4212,4.487,4.5529,4.619,4.689,4.7309,4.7309,4.7309,4.7309,4.7309,4.7384,4.7668,4.8252,4.7833,4.7818,4.8386,4.8491,4.9105,5.0285,5.0315,5.0599,5.1214,5.1214,5.1214,5.1214,5.1214,5.1214,5.1199,5.0584,5.0315,5.0285,4.9763,4.9479,4.9434,4.9434,4.9015,4.8401,4.8312,4.7938,4.7429,4.7339,4.7309,4.7309,0.0,0.0,0.0,0.0,0.0,0.0,0.0,0.0,0.0,0.0,3.2964,3.2398,0.0,0.0,0.0,0.0,0.0,0.0,0.0,0.0,0.0,3.4683,3.519,3.5504,3.5504,3.5504,3.5504,3.5504,3.5504,3.5504,3.5504,3.5504,3.5504,3.5504,3.5504,3.5504,3.5504,3.5504,3.5564,3.5729,3.6387,3.7015,3.7659,3.8317,0.0,0.0,3.9388,3.9388,3.9388,3.9388,3.9388,3.9529,4.0187,4.0846,4.1504,4.2201,4.3284,4.4466,4.511,4.5798,4.6279,4.6279,4.5813,4.5125,4.4466,4.3768,4.329,4.329,4.329,4.329,4.329,4.329,4.3514,4.4212,4.487,4.5529,4.619,4.689,4.7309,4.7309,4.7309,4.7309,4.7309,4.7803,4.8162,4.8282,4.873,4.9015,4.9134,4.9598,5.0211,5.102,5.105,5.1063,5.1214,5.1214,5.1214,5.1214,5.1214,5.1214,5.1214,5.1094,5.105,5.1003,5.093,5.0571,5.0016,5.0016,4.9688,4.909,4.8506,4.8222,4.8057,4.7504,4.7309,4.7309,0.0,0.0,0.0,0.0,0.0,0.0,0.0,3.322,3.3441,3.3785,3.3492,3.3135,3.2841,3.2815,3.2668,0.0,0.0,0.0,0.0,0.0,0.0,0.0,3.513,3.5504,3.5504,3.5504,3.5504,3.5504,0.0,3.5504,3.5504,3.5504,3.5504,3.5504,3.5504,3.5504,3.5504,3.5504,3.5504,3.5564,3.6222,3.6851,3.7479,0.0,0.0,0.0,0.0,3.9388,3.9388,3.9388,3.9388,3.9529,4.0187,4.0846,4.1504,4.2201,4.3284,4.4392,4.4691,4.5274,4.5708,4.5364,4.5035,4.4601,4.3917,4.3514,4.329,4.329,4.329,4.329,4.329,4.329,4.3394,4.3708,4.4646,4.5409,4.5738,4.6666,4.7309,4.7309,4.7309,4.7444,4.7788,4.8102,4.8566,4.9254,4.9598,4.9778,4.9778,5.0391,5.0885,5.1214,5.1214,5.1214,5.1214,5.1214,5.1214,5.1214,5.1214,5.1214,5.1214,5.1214,5.1214,5.1214,5.1214,5.1035,5.0704,5.0704,5.0361,4.9748,4.9419,4.888,4.8252,4.7938,4.7593,4.7309,0.0,0.0,0.0,0.0,0.0,0.0,0.0,3.3038,3.3484,3.3611,3.391,3.3917,3.3374,3.3244,3.3039,0.0,0.0,0.0,0.0,0.0,0.0,0.0,0.0,0.0,0.0,0.0,0.0,3.5504,3.5504,0.0,0.0,0.0,0.0,0.0,3.5504,3.5504,3.5504,3.5504,3.5504,0.0,0.0,3.6656,0.0,0.0,0.0,0.0,0.0,3.9388,3.9388,3.9388,3.9388,3.9514,4.0023,4.0651,4.1324,4.2171,4.3195,4.4137,4.4272,4.4796,4.514,4.4481,4.4317,4.4137,4.3439,4.329,4.329,4.329,4.329,4.329,4.329,4.329,4.329,4.329,4.4436,4.5289,4.5289,4.6456,4.7309,4.7309,4.7309,4.7563,4.8222,4.8416,4.8985,5.0106,5.0315,5.0405,5.0405,5.0883,5.1214,5.1214,5.1214,5.1214,5.1214,5.1214,5.1214,5.1214,5.1214,5.1214,5.1214,5.1214,5.1214,5.1214,5.1214,5.1214,5.1214,5.1214,5.0868,5.039,5.024,4.9613,4.8671,4.8386,4.7952,4.7489,0.0,0.0,0.0,0.0,0.0,0.0,0.0,3.2544,3.2805,3.336,3.4026,3.4248,3.3713,3.3391,3.3198,0.0,0.0,0.0,0.0,0.0,0.0,0.0,0.0,0.0,0.0,0.0,0.0,3.5504,3.5504,0.0,0.0,0.0,0.0,0.0,0.0,3.5504,3.5504,3.5504,0.0,0.0,0.0,0.0,0.0,0.0,0.0,0.0,0.0,3.9388,3.9388,3.9388,3.9388,3.9388,3.9448,3.9963,4.0726,4.2036,4.2865,4.3514,4.4152,4.4796,4.514,4.4481,4.4317,4.4137,4.3439,4.329,4.329,4.329,4.329,4.329,4.329,4.329,4.329,4.329,4.4436,4.5289,4.5289,4.6456,4.7309,4.7309,4.7309,4.7563,4.8222,4.8865,4.9464,5.0136,5.0749,5.1124,5.1124,5.1184,5.1214,5.1214,5.1214,5.1214,5.1214,5.1214,5.1214,5.1214,5.1214,5.1214,5.1214,5.1214,5.1214,5.1214,5.1214,5.1214,5.1214,5.1214,5.1184,5.1065,5.042,5.0121,4.9867,4.873,4.8252,4.8117,0.0,0.0,0.0,0.0,0.0,0.0,3.1869,3.2253,3.2564,3.2716,3.3372,3.3934,3.4158,3.3769,3.3435,3.3229,0.0,0.0,0.0,0.0,0.0,0.0,0.0,0.0,0.0,0.0,3.5504,3.5504,3.5504,0.0,0.0,0.0,0.0,0.0,0.0,3.5504,3.5504,3.5504,0.0,0.0,0.0,0.0,0.0,0.0,0.0,0.0,0.0,0.0,3.9388,3.9388,3.9388,3.9388,3.9388,3.9873,4.0576,4.1542,4.2237,4.2895,4.3554,4.3873,4.4007,4.3738,4.3678,4.3618,4.3349,4.329,4.329,4.329,4.329,4.329,4.329,4.329,4.329,4.329,4.4107,4.484,4.5229,4.6112,4.686,4.7249,4.7309,4.7713,4.882,4.9149,4.9703,5.075,5.1065,5.1214,5.1214,5.1214,5.1214,5.1214,5.1214,5.1214,5.1214,5.1214,5.1214,5.1214,5.1214,5.1214,5.1214,5.1214,5.1214,5.1214,5.1214,5.1214,5.1214,5.1214,5.1214,5.1184,5.093,5.0539,5.0136,4.9658,4.897,4.8296,0.0,0.0,0.0,0.0,0.0,3.1615,3.1517,3.1901,3.2162,3.1972,3.2611,3.3355,3.4083,3.403,3.3865,3.3687,3.3742,0.0,0.0,0.0,0.0,0.0,0.0,0.0,0.0,0.0,3.5504,3.5504,3.5504,3.5504,0.0,0.0,3.5504,3.5504,0.0,0.0,0.0,0.0,0.0,0.0,0.0,0.0,0.0,0.0,0.0,0.0,0.0,0.0,0.0,0.0,0.0,3.9388,3.9388,3.9738,4.0277,4.113,4.1886,4.2545,4.3125,4.329,4.329,4.329,4.329,4.329,4.329,4.329,4.329,4.329,4.329,4.329,4.329,4.329,4.329,4.329,4.3843,4.4541,4.52,4.5888,4.6576,4.7234,4.7309,4.7818,4.9179,4.9659,5.0227,5.1154,5.1214,5.1214,5.1214,5.1214,5.1214,5.1214,5.1214,5.1214,5.1214,5.1214,5.1214,5.1214,5.1214,5.1214,5.1214,5.1214,5.1214,5.1214,5.1214,5.1214,5.1214,5.1214,5.1214,5.1214,5.1214,5.0976,5.0588,5.0393,4.9824,4.9166,0.0,0.0,0.0,0.0,0.0,0.0,3.1536,3.1515,3.1438,3.1247,3.1853,3.2598,3.3339,3.4066,3.4577,3.4767,3.3827,0.0,0.0,0.0,0.0,0.0,0.0,0.0,0.0,0.0,3.5504,3.5504,3.5504,3.5504,3.5504,3.5504,3.5504,3.5504,0.0,0.0,0.0,0.0,0.0,0.0,0.0,0.0,0.0,0.0,0.0,0.0,0.0,0.0,0.0,0.0,0.0,0.0,0.0,3.9388,3.9694,4.0995,4.1886,4.2545,4.3125,4.329,4.329,4.329,4.329,4.329,4.329,4.329,4.329,4.329,4.329,4.329,4.329,4.329,4.329,4.329,4.3843,4.4541,4.52,4.5888,4.6576,4.7234,4.7309,4.7818,4.9179,5.0436,5.1214,5.1214,5.1214,5.1214,5.1214,5.1214,5.1214,5.1214,5.1214,5.1214,5.1214,5.1214,5.1214,5.1214,5.1214,5.1214,5.1214,5.1214,5.1214,5.1214,5.1214,5.1214,5.1214,5.1214,5.1214,5.1214,5.1214,5.1354,5.1497,5.0834,5.0839,5.1063,0.0,0.0,0.0,0.0,0.0,0.0,0.0,3.1498,3.144,3.1247,3.1393,3.2019,3.3271,3.3609,3.4187,3.5261,3.5045,0.0,0.0,0.0,0.0,0.0,0.0,0.0,0.0,0.0,3.6006,3.5504,3.5504,3.5504,3.5504,3.5504,3.5504,3.5504,3.5504,3.5504,0.0,0.0,0.0,0.0,0.0,0.0,3.7404,0.0,0.0,0.0,0.0,0.0,0.0,0.0,0.0,0.0,0.0,0.0,0.0,4.113,4.1572,4.1961,4.2991,4.329,4.329,4.329,4.329,4.329,4.329,4.329,4.329,4.329,4.329,4.329,4.329,4.329,4.329,4.329,4.3843,4.4541,4.52,4.5888,4.6576,4.7234,4.8102,4.8805,4.9269,5.0451,5.1214,5.1214,5.1214,5.1214,5.1214,5.1214,5.1214,5.1214,5.1214,5.1214,5.1214,5.1214,5.1214,5.1214,5.1214,5.1214,5.1214,5.1214,5.1214,5.1214,5.1214,5.1557,5.217,5.217,5.217,5.217,5.217,5.229,5.247,5.2255,5.2461,5.2765,0.0,0.0,0.0,0.0,0.0,0.0,0.0,3.1498,3.144,3.1247,3.119,3.1765,3.3237,3.3406,3.3977,3.5464,3.56,0.0,0.0,0.0,0.0,0.0,0.0,0.0,3.5088,3.609,3.6337,3.5861,3.5619,3.5504,3.5504,3.5504,3.5504,3.5504,3.5504,3.5504,0.0,0.0,0.0,0.0,0.0,0.0,3.7793,0.0,0.0,0.0,0.0,0.0,0.0,0.0,0.0,0.0,0.0,0.0,0.0,0.0,4.1587,4.1983,4.3006,4.329,4.329,4.329,4.329,4.329,4.329,4.329,4.329,4.329,4.329,4.329,4.329,4.329,4.329,4.329,4.3843,4.4541,4.52,4.5888,4.6576,4.7234,4.8461,4.9314,4.9314,5.0451,5.1214,5.1214,5.1214,5.1214,5.1214,5.1214,5.1214,5.1214,5.1214,5.1214,5.1214,5.1214,5.1214,5.1214,5.1214,5.1214,5.1214,5.1557,5.1742,5.1727,5.22,5.2709,0.0,5.3312,5.334,5.334,5.334,5.3471,5.3656,5.3656,5.3933,5.4249,0.0,0.0,0.0,0.0,0.0,0.0,0.0,3.1498,3.144,3.1247,3.1241,3.1816,3.3254,3.3457,3.4066,3.5481,0.0,0.0,0.0,0.0,0.0,0.0,0.0,0.0,3.5767,3.6366,3.66,3.6399,3.5797,3.5504,3.5504,3.5504,3.5504,3.5504,3.5504,3.5504,3.5504,0.0,0.0,0.0,0.0,0.0,0.0,0.0,0.0,0.0,0.0,0.0,0.0,0.0,0.0,0.0,0.0,0.0,0.0,0.0,0.0,0.0,0.0,4.329,4.329,4.329,4.329,4.329,4.329,4.329,0.0,4.329,4.329,4.329,4.329,4.329,4.329,4.329,4.3888,4.4601,4.5214,4.5933,4.6621,4.7234,4.8461,4.9314,4.9314,5.0451,5.1214,5.1214,5.1214,5.1214,5.1214,5.1214,5.1214,5.1308,5.1308,5.1308,5.1308,5.1308,5.1339,5.1386,5.1386,5.1386,5.1433,5.229,5.2725,5.2769,5.3816,5.4327,5.4453,5.463,5.4697,5.4697,5.4697,5.4796,5.5002,5.5002,5.5299,5.5662,0.0,0.0,0.0,0.0,0.0,0.0,0.0,0.0,0.0,0.0,3.1701,3.2395,3.3305,3.3897,3.4607,0.0,0.0,0.0,0.0,0.0,0.0,0.0,0.0,0.0,3.6414,3.7144,3.7145,3.6399,3.5797,3.5504,3.5504,3.5504,3.5504,3.5504,3.5504,3.5504,3.5504,3.5504,0.0,0.0,0.0,0.0,0.0,0.0,0.0,0.0,4.032,3.9879,0.0,0.0,0.0,0.0,0.0,0.0,0.0,0.0,4.1886,4.2545,4.3125,0.0,4.329,4.329,4.329,4.329,0.0,4.329,4.329,4.329,4.329,4.329,4.329,4.329,4.329,4.329,4.4302,4.5125,4.5274,4.6322,4.713,4.7294,4.8461,4.9314,4.9314,5.0451,5.1214,5.1214,5.1214,5.1214,5.1214,5.1214,5.1526,5.226,5.226,5.226,5.226,5.226,5.2651,5.3328,5.3328,5.3328,5.3328,5.3545,5.3762,5.3902,5.42,5.4771,5.553,5.5571,5.5611,5.5611,5.5611,5.573,5.5873,5.5873,5.6525,5.7271,0.0,0.0,0.0,0.0,0.0,0.0,0.0,0.0,0.0,0.0,0.0,3.2581,0.0,0.0,0.0,0.0,0.0,0.0,0.0,0.0,0.0,0.0,0.0,3.7653,3.7143,3.7584,3.7501,3.6875,3.5941,3.5504,3.5504,3.5504,3.5504,3.5504,3.5504,3.5504,3.5504,3.5504,3.5684,0.0,3.7041,0.0,0.0,0.0,0.0,0.0,4.0615,4.0021,0.0,3.9768,3.9664,3.9433,0.0,0.0,0.0,0.0,4.2058,4.288,4.32,4.329,4.329,4.329,4.329,4.329,4.329,4.329,4.329,4.329,4.329,4.329,4.329,4.329,4.3394,4.3693,4.4631,4.5514,4.6127,4.6845,4.7309,4.7309,4.8461,4.9314,4.9314,5.0451,5.1214,5.1214,5.1214,5.1214,5.1214,5.1603,5.2078,5.2606,5.3035,5.3256,5.3256,5.3256,5.3545,5.4131,5.4131,5.4131,5.4131,5.4662,5.4895,5.4936,5.5563,5.6136,5.6696,5.6773,5.6811,5.6811,5.6811,5.6887,5.7001,5.7001,5.7372,5.7831,0.0,0.0,0.0,0.0,0.0,0.0,0.0,0.0,0.0,0.0,0.0,0.0,0.0,0.0,0.0,0.0,0.0,0.0,0.0,0.0,0.0,0.0,3.7487,3.8053,3.7978,3.7886,3.7648,3.728,3.6116,3.5537,3.5504,3.5504,3.5504,3.5504,3.5587,3.5602,3.5519,3.5609,3.5968,3.6618,3.806,0.0,0.0,0.0,0.0,0.0,0.0,0.0,0.0,4.0199,3.9946,3.9514,4.0068,0.0,0.0,0.0,0.0,0.0,4.329,4.329,4.329,4.329,4.329,4.329,4.329,4.329,4.329,4.329,4.329,4.329,4.329,4.329,4.3514,4.4212,4.496,4.5888,4.713,4.7309,4.7309,4.7309,4.8461,4.9314,4.9314,5.0451,5.1214,5.1214,5.1339,5.1386,5.1386,5.229,5.2858,5.3035,5.3789,5.4317,5.4443,5.4317,5.4385,5.4704,5.4746,5.4746,5.4787,5.5707,5.6041,5.5978,5.7089,5.7625,5.7662,5.7808,5.7881,5.7881,5.7881,5.7881,5.7881,5.7881,5.7881,5.7881,0.0,0.0,0.0,0.0,0.0,0.0,0.0,0.0,0.0,0.0,0.0,0.0,0.0,0.0,0.0,0.0,0.0,0.0,0.0,0.0,0.0,3.8484,3.8744,3.8816,3.8836,3.8253,3.7587,3.6814,3.6023,3.5621,3.5504,3.5504,3.5504,3.5537,3.6022,3.5973,3.5549,3.6103,3.6387,3.6648,3.8565,0.0,0.0,0.0,0.0,0.0,0.0,0.0,0.0,4.0233,3.9991,3.9439,3.9508,0.0,0.0,0.0,0.0,0.0,4.329,4.329,4.329,4.329,4.329,4.329,4.329,4.329,4.329,4.329,4.329,4.329,4.329,4.329,4.3514,4.4212,4.5364,4.6441,4.7189,4.7309,4.7309,4.7309,4.8461,4.9314,4.9314,5.0451,5.1214,5.1214,5.1957,5.2381,5.2381,5.3299,5.4131,5.4886,5.5198,5.5756,5.6531,5.574,5.578,5.6608,5.6762,5.6822,5.6861,5.703,5.7143,5.7293,5.7497,5.7698,5.7845,5.7881,5.7881,5.7881,5.7881,5.7881,5.7881,5.7881,5.7881,5.7881,0.0,0.0,0.0,0.0,0.0,0.0,0.0,0.0,0.0,0.0,0.0,0.0,0.0,0.0,0.0,0.0,0.0,0.0,0.0,0.0,3.7872,3.8937,3.9377,3.9412,3.9001,3.8596,3.8003,3.7294,3.6477,3.6274,3.6646,3.6196,3.5829,3.5504,3.5797,3.5961,3.6076,3.6773,3.7469,3.8251,0.0,0.0,0.0,0.0,0.0,0.0,0.0,0.0,0.0,0.0,4.0517,4.0496,4.0094,0.0,0.0,0.0,0.0,0.0,4.329,4.329,4.329,4.329,4.329,4.329,4.329,4.329,4.329,4.329,4.329,4.329,4.329,4.3589,4.4197,4.5188,4.6217,4.6965,4.7264,4.7309,4.7309,4.7309,4.8461,4.9314,4.9314,5.0451,5.1386,5.1911,5.2351,5.2814,5.3343,5.4216,5.4886,5.5296,5.6011,5.6553,5.6987,5.6784,5.6899,5.7327,5.7439,5.7476,5.7476,5.7588,5.7625,5.7625,5.7698,5.7808,5.7881,5.7881,5.7881,5.7881,5.7881,5.7881,5.7881,5.7881,5.7881,5.7881,0.0,0.0,0.0,0.0,0.0,0.0,0.0,0.0,0.0,0.0,0.0,0.0,0.0,0.0,0.0,0.0,0.0,0.0,0.0,0.0,3.8481,3.9249,3.9808,3.9773,3.9055,3.8887,3.843,3.7648,3.7041,3.692,3.7294,3.6845,3.6227,3.5504,3.5817,3.6162,3.654,3.7362,3.8394,3.9612,0.0,0.0,0.0,0.0,0.0,0.0,0.0,0.0,0.0,0.0,0.0,0.0,0.0,0.0,0.0,4.1602,4.2432,4.329,4.329,4.329,4.329,4.329,4.329,4.329,4.329,4.329,4.329,4.329,4.329,4.3349,4.3499,4.4186,4.5125,4.6115,4.6875,4.7309,4.7309,4.7309,4.7309,4.7309,4.8341,4.9149,4.9299,5.0316,5.1437,5.2501,5.2814,5.3328,5.4274,5.5149,5.5636,5.5676,5.6608,5.7101,5.7139,5.7476,5.7662,5.7588,5.7662,5.7662,5.7662,5.7808,5.7808,5.7662,5.7845,5.7881,5.7881,5.7881,5.7881,5.7881,5.7881,5.7881,5.7881,5.7881,5.7881,5.7881,0.0,0.0,0.0,0.0,0.0,0.0,0.0,0.0,0.0,0.0,0.0,0.0,0.0,0.0,0.0,0.0,0.0,0.0,0.0,0.0,3.9242,3.9994,4.0079,3.9799,3.9206,3.9179,3.8502,3.7145,3.7531,3.7294,3.6492,3.7071,3.6662,3.5567,3.6725,3.6979,3.66,3.7818,3.8773,3.9624,4.0964,0.0,0.0,0.0,0.0,0.0,0.0,0.0,0.0,0.0,0.0,0.0,0.0,0.0,4.1542,4.2156,4.2791,4.329,4.329,4.329,4.329,4.329,4.329,4.329,4.329,4.329,4.329,4.329,4.329,4.3484,4.4122,4.5263,4.6217,4.6264,4.6875,4.7309,4.7309,4.7309,4.7309,4.7309,4.7923,4.864,4.9254,4.9898,5.0909,5.247,5.3415,5.4274,5.5174,5.6083,5.6663,5.6856,5.7139,5.7364,5.7551,5.7772,5.7772,5.7588,5.7772,5.7881,5.7881,5.7881,5.7881,5.7881,5.7881,5.7881,5.7881,5.7881,5.7881,5.7881,5.7881,5.7881,5.7881,5.7881,5.7881,5.7881,0.0,0.0,0.0,0.0,0.0,0.0,0.0,0.0,0.0,0.0,0.0,0.0,0.0,0.0,0.0,0.0,0.0,0.0,0.0,3.8853,3.9326,4.0079,4.0096,3.9995,3.9773,3.9687,3.9232,3.8418,3.8374,3.7933,3.7131,3.7327,3.739,3.7406,3.7865,3.8422,3.902,3.9484,4.0098,4.08,4.1283,4.1754,0.0,0.0,0.0,0.0,0.0,0.0,0.0,0.0,4.1041,4.0725,4.0469,4.0846,4.1504,4.2201,4.2821,4.329,4.329,4.329,4.329,4.329,4.329,4.329,4.329,4.329,4.329,4.329,4.3618,4.4231,4.5323,4.5935,4.6456,4.686,4.7145,4.7309,4.7309,4.7309,4.7309,4.7309,4.7878,4.8386,4.8626,5.0124,5.1565,5.2758,5.4062,5.519,5.6123,5.6625,5.6911,5.6987,5.7327,5.7514,5.7588,5.7808,5.7845,5.7772,5.7845,5.7881,5.7881,5.7881,5.7881,5.7881,5.7881,5.7881,5.7881,5.7881,5.7881,5.7881,5.7881,5.7881,5.7881,5.7881,5.7881,5.7881,0.0,0.0,0.0,0.0,0.0,0.0,0.0,0.0,0.0,0.0,0.0,0.0,0.0,0.0,0.0,0.0,0.0,0.0,3.892,3.9208,3.9571,4.0079,4.0096,4.0096,4.0096,4.0011,3.9713,3.9206,3.8914,3.8572,3.8174,3.8115,3.837,3.8821,3.906,3.9526,4.0224,4.0623,4.0969,4.1227,4.1656,4.2141,0.0,0.0,0.0,0.0,0.0,0.0,0.0,0.0,4.1153,4.1199,4.1049,4.1333,4.1856,4.2476,4.2985,4.329,4.329,4.329,4.329,4.329,4.329,4.329,4.329,4.329,4.3349,4.3559,4.4347,4.5188,4.6115,4.6444,4.6785,4.7234,4.7309,4.7309,4.7309,4.7538,4.7624,4.7337,4.7944,4.8377,4.8311,4.9916,5.1502,5.2918,5.4209,5.5504,5.6741,5.6911,5.7063,5.7176,5.7476,5.7625,5.7698,5.7845,5.7881,5.7881,5.7881,5.7881,5.7881,5.7881,5.7881,5.7881,5.7881,5.7881,5.7881,5.7881,5.7881,5.7881,5.7881,5.7881,5.7881,5.7881,5.7881,5.7881,0.0,0.0,0.0,0.0,0.0,0.0,0.0,0.0,0.0,0.0,0.0,0.0,0.0,0.0,0.0,0.0,0.0,0.0,3.9005,3.9706,4.0096,4.0096,4.0096,4.0096,4.0096,4.0096,3.9799,3.9206,3.9071,3.9144,3.9421,3.9536,3.9589,3.9564,4.023,4.0159,3.9624,4.0945,4.1142,4.065,4.2029,4.2607,4.2687,0.0,0.0,0.0,0.0,0.0,0.0,0.0,4.1604,4.0664,4.1967,4.2394,4.253,4.3135,4.329,4.329,4.329,4.329,4.329,4.329,4.329,4.329,4.3305,4.3305,4.3484,4.4197,4.5394,4.6279,4.6294,4.686,4.7309,4.7309,4.7309,4.7309,4.7294,4.8061,4.8297,4.7424,4.8103,4.8558,4.8339,4.9035,5.0494,5.2823,5.3817,5.5117,5.6899,5.6987,5.7176,5.7588,5.7588,5.7698,5.7881,5.7881,5.7881,5.7881,5.7881,5.7881,5.7881,5.7881,5.7881,5.7881,5.7881,5.7881,5.7881,5.7881,5.7881,5.7881,5.7881,5.7881,5.7881,5.7881,5.7881,5.7881,0.0,0.0,0.0,0.0,0.0,0.0,0.0,0.0,0.0,0.0,0.0,0.0,0.0,0.0,0.0,0.0,0.0,0.0,3.974,3.9977,4.0096,4.0096,4.0096,4.0096,4.0096,4.0096,4.002,3.9825,3.9129,3.9336,4.0359,3.9747,4.0301,4.1809,4.1921,4.1916,4.1853,4.2157,4.2171,4.1967,4.1815,4.2375,4.3279,0.0,0.0,0.0,0.0,0.0,0.0,0.0,0.0,0.0,4.2274,4.2385,4.253,4.3135,4.329,4.329,4.329,4.329,4.329,4.329,4.329,4.3409,4.3888,4.4018,4.4306,4.5457,4.5995,4.6429,4.6935,4.7174,4.7309,4.7309,4.7309,4.7495,4.813,4.8449,4.8723,4.9019,4.9407,4.9566,4.9381,5.0723,5.1873,5.2598,5.4366,5.5724,5.6408,5.7042,5.7476,5.7588,5.7735,5.7845,5.7881,5.7881,5.7881,5.7881,5.7881,5.7881,5.7881,5.7881,5.7881,5.7881,5.7881,5.7881,5.7881,5.7881,5.7881,5.7881,5.7881,5.7881,5.7881,5.7881,5.7881,5.7881,0.0,0.0,0.0,0.0,0.0,0.0,0.0,0.0,0.0,0.0,0.0,0.0,0.0,0.0,0.0,0.0,0.0,0.0,0.0,4.0096,4.0096,4.0096,4.0096,4.0096,4.0096,4.0096,4.0248,4.0527,3.9967,4.0163,4.1044,4.0954,4.1707,4.3115,4.3114,4.2958,4.2725,4.2908,4.2831,4.2586,4.2306,4.2958,4.4022,0.0,0.0,0.0,0.0,0.0,0.0,0.0,0.0,0.0,4.2728,4.2793,4.2821,4.317,4.329,4.329,4.329,4.329,4.329,4.329,4.3551,4.4013,4.4951,4.5146,4.5334,4.6115,4.6488,4.683,4.7234,4.7309,4.7309,4.7309,4.7309,4.7624,4.849,4.8887,4.9303,4.9829,5.0336,5.0451,5.008,5.1312,5.2284,5.2578,5.4175,5.5489,5.6295,5.6858,5.7322,5.7698,5.7862,5.7881,5.7881,5.7881,5.7881,5.7881,5.7881,5.7881,5.7881,5.7881,5.7881,5.7881,5.7881,5.7881,5.7881,5.7881,5.7881,5.7881,5.7881,5.7881,5.7881,5.7881,5.7881,5.7881,0.0,0.0,0.0,0.0,0.0,0.0,0.0,0.0,0.0,0.0,0.0,0.0,0.0,0.0,0.0,0.0,0.0,0.0,0.0,0.0,4.0096,4.0096,4.0096,4.0096,4.0096,4.018,4.051,4.1178,4.1178,4.1318,4.1581,4.2674,4.3366,4.3658,4.3822,4.3465,4.2746,4.3426,4.3395,4.2942,4.349,4.4152,4.4855,4.5466,0.0,0.0,0.0,0.0,0.0,0.0,0.0,0.0,4.3416,4.3503,4.3409,4.3409,4.3409,4.3409,4.3329,4.329,4.329,4.329,4.394,4.4903,4.621,4.6466,4.6369,4.6369,4.689,4.7309,4.7381,4.7337,4.7337,4.7495,4.7467,4.7737,4.8682,4.9463,5.0041,5.0281,5.1054,5.1331,5.0681,5.1303,5.2023,5.2696,5.3532,5.4718,5.6225,5.6463,5.6923,5.7763,5.7848,5.7881,5.7881,5.7881,5.7881,5.7881,5.7881,5.7881,5.7881,5.7881,5.7881,5.7881,5.7881,5.7881,5.7881,5.7881,5.7881,5.7881,5.7881,5.7881,5.7881,5.7881,5.7881,5.7881,0.0,0.0,0.0,0.0,0.0,0.0,0.0,0.0,0.0,0.0,0.0,0.0,0.0,0.0,0.0,0.0,0.0,0.0,0.0,0.0,4.0096,4.0096,4.0096,4.0096,4.0096,4.0663,4.0983,4.103,4.103,4.1641,4.2814,4.2965,4.3377,4.3981,4.3927,4.3806,4.3665,4.422,4.4705,4.5138,4.5216,4.532,4.5512,4.5655,4.4642,0.0,0.0,0.0,0.0,0.0,0.0,0.0,4.495,4.4763,4.4259,4.4259,4.4259,4.4105,4.3472,4.329,4.329,4.329,4.4213,4.5364,4.6266,4.6815,4.71,4.71,4.7204,4.7495,4.8214,4.7779,4.7737,4.906,4.8708,4.8846,5.0361,5.0859,5.1311,5.2004,5.252,5.2696,5.2397,5.2644,5.292,5.3087,5.3813,5.4441,5.497,5.6102,5.6831,5.7036,5.7594,5.7881,5.7881,5.7881,5.7881,5.7881,5.7881,5.7881,5.7881,5.7881,5.7881,5.7881,5.7881,5.7881,5.7881,5.7881,5.7881,5.7881,5.7881,5.7881,5.7881,5.7881,5.7881,5.7881,0.0,0.0,0.0,0.0,0.0,0.0,0.0,0.0,0.0,0.0,0.0,0.0,0.0,0.0,0.0,0.0,0.0,0.0,0.0,0.0,3.967,3.967,3.9944,4.0096,4.0096,4.0815,4.1347,4.1632,4.1977,4.2469,4.3105,4.3558,4.3843,4.4015,4.4382,4.4249,4.383,4.4786,4.5211,4.5229,4.5163,4.5349,4.5697,4.5697,4.5206,4.4622,4.5393,0.0,0.0,0.0,0.0,0.0,0.0,0.0,4.5058,4.5058,4.5058,4.4887,4.4105,4.4143,4.4548,4.4893,4.5448,4.6062,4.685,4.7154,4.7309,4.7309,4.7624,4.7934,4.7976,4.824,4.8682,4.9157,4.9181,4.9638,5.0914,5.129,5.1733,5.2624,5.3007,5.3195,5.3195,5.328,5.3348,5.3348,5.3703,5.4125,5.4583,5.5327,5.6072,5.6782,5.7171,5.7543,5.7881,5.7881,5.7881,5.7881,5.7881,5.7881,5.7881,5.7881,5.7881,5.7881,5.7881,5.7881,5.7881,5.7881,5.7881,5.7881,5.7881,5.7881,5.7881,5.7881,5.7881,5.7881,0.0,0.0,0.0,0.0,0.0,0.0,0.0,0.0,0.0,0.0,0.0,0.0,0.0,0.0,0.0,0.0,0.0,0.0,0.0,0.0,0.0,3.9339,3.9825,4.0163,4.0299,4.1001,4.1745,4.2489,4.325,4.3485,4.3306,4.4198,4.4428,4.4173,4.4892,4.4837,4.4253,4.5456,4.5654,4.5193,4.5118,4.5426,4.5913,4.5913,4.6182,4.6689,4.7337,4.6775,4.5805,4.6534,0.0,0.0,0.0,0.0,4.5913,4.5913,4.5913,4.5733,4.4924,4.5184,4.5877,4.6604,4.6634,4.6708,4.7606,4.7654,4.7538,4.7538,4.8103,4.8407,4.7864,4.8872,4.9702,4.9318,4.9702,5.0345,5.1215,5.1512,5.2004,5.2868,5.3127,5.3298,5.3467,5.3501,5.3501,5.3501,5.3501,5.3771,5.438,5.4515,5.5158,5.6376,5.6664,5.7087,5.7695,5.7831,5.7881,5.7881,5.7881,5.7881,5.7881,5.7881,5.7881,5.7881,5.7881,5.7881,5.7881,5.7881,5.7881,5.7881,5.7881,5.7881,5.7881,5.7881,5.7881,5.7881,0.0,0.0,0.0,0.0,0.0,0.0,0.0,0.0,0.0,0.0,0.0,0.0,0.0,0.0,0.0,0.0,0.0,0.0,3.9365,0.0,0.0,3.9969,4.0045,4.0417,4.1035,4.1779,4.2506,4.324,4.4045,4.4418,4.439,4.4519,4.4754,4.5055,4.527,4.5768,4.6482,4.6857,4.7207,4.7539,4.7538,4.7186,4.6638,4.6638,4.6324,4.5877,4.5985,4.5877,4.5805,4.6534,4.6253,0.0,0.0,0.0,4.6638,4.6638,4.6638,4.6499,4.5717,4.5624,4.5877,4.6604,4.6634,4.6865,4.8386,4.8553,4.8407,4.8407,4.8532,4.8764,4.9343,4.9647,5.0252,5.1655,5.1343,5.1252,5.2252,5.2572,5.2817,5.311,5.3348,5.3467,5.3501,5.3501,5.3501,5.3501,5.3501,5.3551,5.3653,5.4245,5.4685,5.4888,5.6139,5.685,5.6951,5.7577,5.7881,5.7881,5.7881,5.7881,5.7881,5.7881,5.7881,5.7881,5.7881,5.7881,5.7881,5.7881,5.7881,5.7881,5.7881,5.7881,5.7881,5.7881,5.7881,5.7881,0.0,0.0,0.0,0.0,0.0,0.0,0.0,0.0,0.0,0.0,0.0,0.0,0.0,0.0,0.0,4.0087,3.9799,3.9339,3.8739,3.9339,3.9854,4.0203,4.0542,4.1052,4.1796,4.254,4.3081,4.3392,4.4198,4.4615,4.4615,4.501,4.5267,4.5337,4.5727,4.6129,4.6552,4.7402,4.7391,4.6846,4.7287,4.722,4.6811,4.6811,4.6862,4.6997,4.6997,4.6689,4.6429,4.7202,4.6947,4.6499,4.7638,0.0,0.0,0.0,4.7471,4.7421,4.7066,4.6655,4.6515,4.727,4.7342,4.7395,4.8015,4.8417,4.8649,4.8605,4.9358,4.9837,4.9237,5.0306,5.1343,5.1635,5.1745,5.2,5.2518,5.2764,5.2972,5.3179,5.3382,5.3501,5.3501,5.3501,5.3501,5.3501,5.3501,5.3501,5.3501,5.3805,5.416,5.4583,5.5226,5.5953,5.6799,5.712,5.7492,5.7881,5.7881,5.7881,5.7881,5.7881,5.7881,5.7881,5.7881,5.7881,5.7881,5.7881,5.7881,5.7881,5.7881,5.7881,5.7881,5.7881,5.7881,5.7881,0.0,0.0,0.0,0.0,0.0,0.0,0.0,0.0,0.0,0.0,0.0,0.0,0.0,0.0,0.0,0.0,3.9566,3.9082,3.8794,3.9488,4.0093,4.0511,4.1146,4.183,4.2557,4.3132,4.3494,4.3707,4.4327,4.4699,4.4874,4.5449,4.5831,4.6056,4.6508,4.6743,4.6848,4.7832,4.7572,4.6537,4.7101,4.722,4.7101,4.7101,4.7505,4.8066,4.8066,4.7655,4.7253,4.7836,4.7621,4.722,4.782,4.8001,0.0,0.0,0.0,4.8001,4.8001,4.7555,4.7253,4.7853,4.7911,4.7797,4.7712,4.8358,4.8959,4.8702,5.0156,5.0989,4.9519,5.0989,5.2178,5.1545,5.198,5.248,5.2659,5.2799,5.2972,5.323,5.3416,5.3501,5.3501,5.3501,5.3501,5.3501,5.3501,5.3501,5.3501,5.3501,5.3754,5.4296,5.4499,5.5209,5.6511,5.6884,5.7357,5.7881,5.7881,5.7881,5.7881,5.7881,5.7881,5.7881,5.7881,5.7881,5.7881,5.7881,5.7881,5.7881,5.7881,5.7881,5.7881,5.7881,5.7881,5.7881,0.0,0.0,0.0,0.0,0.0,0.0,0.0,0.0,0.0,0.0,0.0,0.0,4.0045,3.9065,3.8849,3.9995,3.9566,3.9418,3.9969,3.9644,3.9956,4.1083,4.1863,0.0,4.3325,4.3375,4.3775,4.4547,4.4581,4.4942,4.5652,4.5686,4.6435,4.777,4.7804,4.8043,4.8385,4.845,4.8324,4.8081,4.7984,4.7968,4.7935,4.7935,4.8049,4.8195,4.8195,4.8163,4.813,4.8163,4.8082,4.7919,4.8001,4.8001,4.8001,0.0,0.0,0.0,4.8001,4.7968,4.7968,4.8001,4.7911,4.7809,4.7858,4.8957,4.9737,4.8941,5.067,5.2053,5.1156,5.1745,5.239,5.2338,5.2373,5.2516,5.2834,5.2903,5.3058,5.3433,5.3501,5.3501,5.3501,5.3501,5.3501,5.3501,5.3501,5.3501,5.3501,5.3501,5.3518,5.3568,5.4228,5.4972,5.5732,5.7137,5.7848,5.7881,5.7881,5.7881,5.7881,5.7881,5.7881,5.7881,5.7881,5.7881,5.7881,5.7881,5.7881,5.7881,5.7881,5.7881,5.7881,5.7881,5.7881,5.7881,0.0,0.0,0.0,0.0,0.0,0.0,0.0,0.0,0.0,0.0,0.0,0.0,0.0,3.9252,3.9454,3.9523,4.0105,4.0241,3.9693,4.0647,4.168,4.2581,4.2878,4.3369,4.4147,4.4164,4.4299,4.4615,4.4615,4.4976,4.572,4.6177,4.6938,4.7889,4.7781,4.8063,4.869,4.8547,4.8388,4.8195,4.8292,4.8227,4.8147,4.826,4.8356,4.8388,4.826,4.8195,4.8195,4.8115,4.8082,4.8115,4.8033,4.8147,4.8308,4.8179,4.8066,4.8001,4.8001,4.8001,4.8001,4.8001,4.7968,4.7912,4.7853,4.8605,4.9357,4.955,5.0638,5.1635,5.1908,5.2178,5.2445,5.2499,5.2535,5.2676,5.3041,5.3076,5.3195,5.3467,5.3501,5.3501,5.3501,5.3501,5.3501,5.3501,5.3501,5.3501,5.3501,5.3501,5.3501,5.3501,5.3754,5.4482,5.57,5.6697,5.7425,5.7881,5.7881,5.7881,5.7881,5.7881,5.7881,5.7881,5.7881,5.7881,5.7881,5.7881,5.7881,5.7881,5.7881,5.7881,5.7881,5.7881,5.7881,5.7881,0.0,0.0,0.0,0.0,0.0,0.0,0.0,0.0,0.0,3.9232,0.0,0.0,0.0,0.0,3.9787,3.9627,4.021,4.0435,4.005,4.1281,4.2434,4.3358,4.3673,4.4045,4.4598,4.4615,4.4615,4.4615,4.4869,4.5348,4.6092,4.6819,4.7564,4.8244,4.8074,4.8329,4.8863,4.8578,4.842,4.8292,4.8324,4.826,4.8195,4.8356,4.8483,4.8595,4.8436,4.8373,4.8292,4.8212,4.8147,4.8115,4.8082,4.8212,4.8388,4.8227,4.8115,4.8001,4.8001,4.8001,4.8001,4.8001,4.8001,4.7902,4.7531,4.8232,4.9105,4.9552,5.0481,5.1414,5.2252,5.2409,5.2445,5.257,5.2589,5.2729,5.3144,5.3179,5.3264,5.3467,5.3501,5.3501,5.3501,5.3501,5.3501,5.3501,5.3501,5.3501,5.3501,5.3501,5.3501,5.3501,5.3737,5.4346,5.5327,5.6308,5.7053,5.7526,5.7763,5.7881,5.7881,5.7881,5.7881,5.7881,5.7881,5.7881,5.7881,5.7881,5.7881,5.7881,5.7881,5.7881,5.7881,5.7881,5.7881,5.7881,0.0,0.0,0.0,0.0,0.0,0.0,0.0,0.0,3.8518,3.9109,0.0,0.0,0.0,0.0,0.0,4.0307,3.9827,3.9994,4.1234,4.1484,4.2131,4.3399,4.4181,4.4615,4.4615,4.4632,4.4632,4.4632,4.5365,4.6109,4.6836,4.7581,4.8277,4.9001,4.8863,4.8863,4.897,4.8642,4.8483,4.8452,4.8147,4.8082,4.8227,4.8227,4.8468,4.8818,4.8818,4.8658,4.8515,4.8515,4.8308,4.8033,4.8179,4.8195,4.8195,4.8195,4.8115,4.8001,0.0,0.0,0.0,4.8001,4.8001,4.782,4.7033,4.8012,4.9074,4.902,5.0178,5.1462,5.2208,5.2376,5.2412,5.2589,5.2605,5.2729,5.3144,5.3213,5.3264,5.3467,5.3501,5.3501,5.3501,5.3501,5.3501,5.3501,5.3501,5.3501,5.3501,5.3501,5.3501,5.3501,5.4194,5.4566,5.4583,5.6038,5.6782,5.6816,5.7543,5.7881,5.7881,5.7881,5.7881,5.7881,5.7881,5.7881,5.7881,5.7881,5.7881,5.7881,5.7881,5.7881,5.7881,5.7881,5.7881,5.7881,0.0,0.0,0.0,0.0,0.0,0.0,3.9722,3.8957,3.8518,0.0,0.0,0.0,3.8927,3.9063,3.9311,3.9641,4.0748,4.1447,4.1431,4.2908,4.3905,4.4248,4.4496,4.4615,4.4615,4.5111,4.5399,4.5399,4.6126,4.687,4.7614,4.7787,4.8247,4.8863,4.8818,4.8738,4.861,4.8388,4.8292,4.826,4.8163,4.834,4.8644,4.8644,4.8753,4.8925,4.8832,4.8769,4.869,4.8547,4.8532,4.8597,4.8612,4.8436,4.8195,4.8195,4.8163,0.0,4.813,0.0,0.0,0.0,0.0,0.0,4.7836,4.8181,4.8621,4.9004,4.944,5.0162,5.1359,5.1667,5.1973,5.2715,5.2799,5.2903,5.3144,5.3348,5.3433,5.3501,5.3501,5.3501,5.3501,5.3501,5.3501,5.3501,5.3501,5.3501,5.3501,5.3501,5.3501,5.3501,5.3704,5.4059,5.4583,5.553,5.6275,5.6816,5.7543,5.7881,5.7881,5.7881,5.7881,5.7881,5.7881,5.7881,5.7881,5.7881,5.7881,5.7881,5.7881,5.7881,5.7881,5.7881,5.7881,5.7881,0.0,0.0,0.0,0.0,0.0,3.8727,3.9976,3.893,3.8382,0.0,0.0,0.0,3.9188,3.9676,4.004,4.0052,4.0896,4.1374,4.131,4.2434,4.3229,4.3499,4.3781,4.4094,4.4365,4.5173,4.5722,4.6026,4.6874,4.7479,4.7906,4.8149,4.8459,4.8769,4.8627,4.8532,4.8483,4.8244,4.8147,4.8195,4.8195,4.8405,4.869,4.8769,4.8894,4.9001,4.8925,4.8849,4.8769,4.8658,4.8908,4.9241,4.9241,4.9315,4.9389,4.9389,4.9307,0.0,0.0,0.0,0.0,4.9019,0.0,0.0,4.8407,4.8364,4.8564,4.9177,4.9325,4.9684,5.072,5.099,5.1326,5.218,5.2382,5.2655,5.323,5.3433,5.3501,5.3501,5.3501,5.3501,5.3501,5.3501,5.3501,5.3501,5.3501,5.3501,5.3501,5.3501,5.3501,5.3501,5.3501,5.3704,5.4143,5.4871,5.5615,5.6359,5.7087,5.7594,5.7881,5.7881,5.7881,5.7881,5.7881,5.7881,5.7881,5.7881,5.7881,5.7881,5.7881,5.7881,5.7881,5.7881,5.7881,5.7881,0.0,0.0,4.0054,4.0189,3.9154,3.882,4.0282,3.8856,3.8294,0.0,3.9409,3.9062,4.0192,4.0849,4.1119,4.0927,4.0578,4.0543,4.0974,4.1138,4.1488,4.2077,4.2839,4.3508,4.41,4.5036,4.5857,4.6495,4.7328,4.7807,4.7994,4.8419,4.8675,4.8707,4.8373,4.8292,4.842,4.8131,4.8049,4.8163,4.8195,4.8324,4.8547,4.8707,4.8863,4.897,4.897,4.8894,4.8818,4.8902,4.9424,5.0047,5.0032,5.0469,5.0991,5.0974,5.0859,0.0,0.0,0.0,0.0,4.9938,4.9755,0.0,4.8817,4.8664,4.8832,4.9354,4.952,4.9673,5.0226,5.0326,5.061,5.1309,5.1596,5.2135,5.3298,5.3501,5.3501,5.3501,5.3501,5.3501,5.3501,5.3501,5.3501,5.3501,5.3501,5.3501,5.3501,5.3501,5.3501,5.3501,5.3501,5.3501,5.3501,5.4228,5.4972,5.5733,5.6461,5.7188,5.7881,5.7881,5.7881,5.7881,5.7881,5.7881,5.7881,5.7881,5.7881,5.7881,5.7881,5.7881,5.7881,5.7881,5.7881,5.7881,0.0,3.9722,3.9723,4.0805,3.9551,3.9133,4.141,3.9802,3.8904,4.0518,4.0071,4.0008,4.0978,4.0433,4.0078,4.0176,4.0443,4.0721,4.0959,4.2031,4.2681,4.2813,4.4026,4.4545,4.4266,4.5586,4.6349,4.6497,4.6682,4.7325,4.8377,4.7851,4.7852,4.8292,4.8227,4.8163,4.8082,4.8033,4.8001,4.8066,4.8179,4.8436,4.8738,4.8595,4.8675,4.8832,4.8832,4.8801,4.8902,4.9632,5.0357,5.0918,5.0837,5.0873,5.0974,5.0826,5.0859,5.0941,5.0941,5.0941,5.094,5.0919,5.082,0.0,4.9782,4.9708,4.9588,4.8849,4.8845,4.9112,4.9639,4.9888,5.0254,5.0976,5.1209,5.1779,5.3078,5.3382,5.3501,5.3501,5.3501,5.3501,5.3501,5.3501,5.3501,5.3501,5.3501,5.3501,5.3501,5.3501,5.3501,5.3501,5.3501,5.3501,5.3501,5.4228,5.4972,5.5733,5.6461,5.7188,5.7881,5.7881,5.7881,5.7881,5.7881,5.7881,5.7881,5.7881,5.7881,5.7881,5.7881,5.7881,5.7881,5.7881,5.7881,5.7881,4.0223,4.0197,4.0354,4.069,3.9718,3.9524,4.1444,4.0087,3.9375,4.0847,4.0718,4.045,4.0516,4.0409,4.0181,3.9747,4.0309,4.0689,4.0705,4.1621,4.2189,4.2189,4.3217,4.3807,4.389,4.5042,4.6023,4.6798,4.689,4.7439,4.8483,4.7967,4.7918,4.8195,4.8147,4.8115,4.8082,4.8033,4.8033,4.8115,4.8163,4.8324,4.855,4.9015,4.9261,4.9424,4.9824,4.9991,5.0042,5.0492,5.115,5.1726,5.1677,5.1914,5.2235,5.2118,5.2151,5.2235,5.2235,5.2235,5.2167,5.1827,5.1693,0.0,0.0,5.0612,5.0494,4.9946,4.9624,4.9521,4.9717,4.9513,4.9577,5.0318,5.05,5.0953,5.2049,5.2605,5.2909,5.2909,5.3264,5.3501,5.3501,5.3501,5.3501,5.3501,5.3501,5.3501,5.3501,5.3501,5.3501,5.3501,5.3501,5.3501,5.3501,5.3873,5.4414,5.5158,5.5902,5.6647,5.7357,5.7729,5.7881,5.7881,5.7881,5.7881,5.7881,5.7881,5.7881,5.7881,5.7881,5.7881,5.7881,5.7881,5.7881,5.7881,4.032,4.0889,4.1307,4.0623,4.0095,4.0133,4.1319,4.0297,3.9775,4.0912,4.0974,4.065,3.9985,4.0512,4.0646,4.0061,4.0525,4.0867,4.082,4.1452,4.1738,4.1617,4.2391,4.303,4.3523,4.4382,4.5486,4.6896,4.6831,4.7356,4.8388,4.8081,4.8016,4.8179,4.8066,4.8049,4.8147,4.8215,4.8182,4.8196,4.8479,4.8512,4.851,4.962,5.0034,5.0151,5.0885,5.1269,5.1388,5.1388,5.1911,5.2536,5.2536,5.2976,5.3501,5.3501,5.3501,5.3501,5.3501,5.3501,5.3348,5.2689,5.2536,5.2334,0.0,0.0,0.0,5.1219,5.0727,5.0289,5.0163,4.9557,4.9253,4.986,4.9811,4.9976,5.0678,5.142,5.1928,5.208,5.2672,5.3112,5.3264,5.3416,5.3501,5.3501,5.3501,5.3501,5.3501,5.3501,5.3501,5.3501,5.3501,5.3501,5.3501,5.3501,5.3873,5.46,5.5361,5.6105,5.6833,5.756,5.7881,5.7881,5.7881,5.7881,5.7881,5.7881,5.7881,5.7881,5.7881,5.7881,5.7881,5.7881,5.7881,5.7881,4.0174,4.1191,4.1994,4.1362,4.1077,4.1147,4.1837,4.0798,3.9975,4.0121,4.0405,4.0566,4.0566,4.0581,4.1019,4.2126,4.1767,4.1704,4.2237,4.2892,4.297,4.2329,4.3571,4.4075,4.3687,4.4418,4.5238,4.6127,4.5426,4.6095,4.8033,4.7287,4.7337,4.8033,4.8001,4.8001,4.8067,4.8696,4.8597,4.8149,4.9459,4.9642,4.9293,5.0225,5.0593,5.0643,5.0908,5.1509,5.2181,5.2181,5.2706,5.3365,5.3365,5.3433,5.3501,5.3501,5.3501,5.3501,5.3501,5.3501,5.3484,5.3399,5.3365,5.3162,5.2367,0.0,5.1995,5.1352,0.0,5.105,5.1067,0.0,0.0,5.0052,4.9528,4.914,4.9255,4.9881,5.0591,5.1268,5.1388,5.1725,5.2367,5.3078,5.3501,5.3501,5.3501,5.3501,5.3501,5.3501,5.3501,5.3501,5.3501,5.3501,5.3501,5.3501,5.3873,5.46,5.5361,5.6105,5.6833,5.756,5.7881,5.7881,5.7881,5.7881,5.7881,5.7881,5.7881,5.7881,5.7881,5.7881,5.7881,5.7881,5.7881,5.7881,4.0669,4.1139,4.1339,4.069,4.052,4.0546,4.0808,4.0587,4.0341,4.0248,4.071,4.1031,4.1104,4.1067,4.1448,4.2447,4.2633,4.2807,4.3048,4.371,4.3731,4.2965,4.3479,4.3708,4.3463,4.3786,4.432,4.5147,4.4774,4.552,4.7303,4.6965,4.722,4.8001,4.8001,4.8001,4.805,4.8796,4.8928,4.8779,5.0237,5.0703,5.054,5.1111,5.1749,5.2354,5.2421,5.269,5.301,5.301,5.323,5.3501,5.3501,5.3501,5.3501,5.3501,5.3501,5.3501,5.3501,5.3501,5.3501,5.3501,5.3501,5.3416,5.3078,5.301,5.2909,5.2604,0.0,0.0,0.0,0.0,0.0,0.0,5.049,5.0135,4.9695,4.9898,5.0202,5.0524,5.0947,5.1505,5.2232,5.2604,5.301,5.3467,5.3501,5.3501,5.3501,5.3501,5.3501,5.3501,5.3501,5.3501,5.3501,5.3501,5.3653,5.3974,5.5158,5.5869,5.6207,5.7357,5.7881,5.7881,5.7881,5.7881,5.7881,5.7881,5.7881,5.7881,5.7881,5.7881,5.7881,5.7881,5.7881,5.7881,4.0927,0.0,4.0992,4.0156,4.0121,4.0167,4.0132,4.0525,4.0852,4.0703,4.1257,4.1656,4.1656,4.1656,4.2036,4.2999,4.3349,4.3587,4.3771,4.4249,4.4143,4.3329,4.329,4.329,4.329,4.329,4.3693,4.451,4.451,4.5206,4.6499,4.6708,4.7215,4.7967,4.8183,4.8299,4.8365,4.9309,4.9475,4.926,5.0916,5.1614,5.1667,5.1928,5.2588,5.3348,5.3382,5.3433,5.3433,5.3467,5.3501,5.3501,5.3501,5.3501,5.3501,5.3501,5.3501,5.3501,5.3501,5.3501,5.3501,5.3501,5.3501,5.3501,5.3501,5.3501,5.3501,5.3501,5.3044,0.0,0.0,0.0,5.1505,0.0,0.0,5.1014,5.0473,5.0388,5.0253,4.9847,5.0456,5.1116,5.1657,5.2063,5.2536,5.3129,5.3382,5.3501,5.3501,5.3501,5.3501,5.3501,5.3501,5.3501,5.3501,5.3501,5.3501,5.3518,5.5006,5.5681,5.5732,5.7222,5.7881,5.7881,5.7881,5.7881,5.7881,5.7881,5.7881,5.7881,5.7881,5.7881,5.7881,5.7881,5.7881,5.7881,4.0591,4.1396,4.1559,4.0226,4.0374,4.0628,4.0409,4.0958,4.1392,4.1392,4.1945,4.237,4.237,4.237,4.2958,4.4417,4.3883,4.3787,4.4449,4.451,4.4143,4.3329,4.329,4.329,4.329,4.329,4.3693,4.451,4.451,4.4924,4.5733,4.6464,4.7184,4.7934,4.8725,4.9077,4.916,5.0601,5.0402,4.9293,5.1462,5.243,5.2555,5.2555,5.2712,5.2938,5.3144,5.3213,5.323,5.3416,5.3501,5.3501,5.3501,5.3501,5.3501,5.3501,5.3501,5.3501,5.3501,5.3501,5.3501,5.3501,5.3501,5.3501,5.3501,5.3501,5.3501,5.3501,5.3484,5.3467,5.3467,5.2807,0.0,0.0,0.0,0.0,0.0,5.1151,5.0642,4.9204,4.9678,5.0135,5.0152,5.1454,5.2317,5.2334,5.3061,5.3501,5.3501,5.3501,5.3501,5.3501,5.3501,5.3501,5.3501,5.3501,5.3501,5.3518,5.5006,5.5681,5.5732,5.7222,5.7881,5.7881,5.7881,5.7881,5.7881,5.7881,5.7881,5.7881,5.7881,5.7881,5.7881,5.7881,5.7881,5.7881,4.0459,4.1117,4.1321,4.0435,4.0402,4.0613,4.101,4.1647,4.2066,4.2066,4.2619,4.3206,4.3721,4.332,4.3639,4.5173,4.4604,4.4279,4.451,4.4999,4.4699,4.3369,4.4335,4.4624,4.412,4.4624,4.5036,4.5295,4.5295,4.5681,4.6445,4.6626,4.7458,4.8706,4.8889,4.9292,4.9906,5.0866,5.1017,5.0651,5.1912,5.2409,5.2516,5.2868,5.3041,5.311,5.3348,5.3382,5.3416,5.3467,5.3501,5.3501,5.3501,5.3501,5.3501,5.3501,5.3501,5.3501,5.3501,5.3501,5.3501,5.3501,5.3501,5.3501,5.3501,5.3501,5.3501,5.3501,5.3501,5.3501,5.3501,5.3281,0.0,0.0,0.0,0.0,0.0,5.1522,5.0845,4.9847,4.9509,4.956,5.0033,5.0541,5.1251,5.2232,5.2553,5.2942,5.3467,5.3501,5.3501,5.3501,5.3501,5.3501,5.3501,5.3501,5.3501,5.3518,5.5006,5.5681,5.5732,5.7222,5.7881,5.7881,5.7881,5.7881,5.7881,5.7881,5.7881,5.7881,5.7881,5.7881,5.7954,5.8388,5.8546,5.872,4.0756,4.1085,4.125,4.0816,4.0935,4.125,4.1707,4.2282,4.2818,4.3113,4.3256,4.3708,4.4812,4.422,4.4259,4.5588,4.5221,4.4812,4.4526,4.5258,4.511,4.3771,4.4999,4.5478,4.4924,4.5147,4.5258,4.5258,4.4999,4.522,4.5919,4.6481,4.7545,4.9026,4.9518,5.0082,5.0634,5.1363,5.1547,5.1365,5.2111,5.2409,5.2445,5.285,5.2938,5.2955,5.3212,5.328,5.3314,5.3467,5.3501,5.3501,5.3501,5.3501,5.3501,5.3501,5.3501,5.3501,5.3501,5.3501,5.3501,5.3501,5.3501,5.3501,5.3501,5.3501,5.3501,5.3501,5.3501,5.3501,5.3501,5.3501,0.0,0.0,0.0,0.0,0.0,5.208,5.142,5.093,4.9999,4.9475,4.9678,4.9949,5.0591,5.1826,5.2147,5.2655,5.3467,5.3501,5.3501,5.3501,5.3501,5.3501,5.3501,5.3501,5.3501,5.3518,5.4735,5.5463,5.575,5.6951,5.7645,5.7881,5.7881,5.7881,5.7881,5.7881,5.7881,5.7881,5.7881,5.7881,5.7991,5.8633,5.9062,5.9462,4.1467,4.1444,4.1474,4.1474,4.2036,4.244,4.244,4.294,4.3591,4.4396,4.381,4.3942,4.5562,4.5008,4.4836,4.5646,4.5682,4.5352,4.458,4.5278,4.5373,4.4572,4.5342,4.5801,4.5769,4.502,4.4662,4.4662,4.3957,4.3927,4.4569,4.6202,4.7658,4.9009,5.0573,5.133,5.1415,5.2111,5.2011,5.1431,5.2127,5.2409,5.2409,5.2535,5.2499,5.2445,5.2799,5.2903,5.2989,5.3348,5.3501,5.3501,5.3501,5.3501,5.3501,5.3501,5.3501,5.3501,5.3501,5.3501,5.3501,5.3501,5.3501,5.3501,5.3501,5.3501,5.3501,5.3501,5.3501,5.3501,5.3501,5.3501,5.3501,0.0,0.0,0.0,0.0,5.2841,5.235,5.23,5.1048,4.9898,4.9137,4.9712,5.0439,5.1134,5.1894,5.2655,5.3467,5.3501,5.3501,5.3501,5.3501,5.3501,5.3501,5.3501,5.3501,5.3518,5.4279,5.5023,5.575,5.6511,5.7239,5.7881,5.7881,5.7881,5.7881,5.7881,5.7881,5.7881,5.7881,5.7954,5.8082,5.8703,5.9429,6.0205,4.2141,4.2506,4.2836,4.2836,4.2931,4.309,4.309,4.3185,4.3591,4.4396,4.381,4.4109,4.6223,4.5187,4.4868,4.6168,4.5743,4.5334,4.5092,4.5861,4.5982,4.528,4.655,4.7046,4.6515,4.6913,4.7084,4.7084,4.7448,4.7683,4.7893,4.878,4.973,5.0664,5.0986,5.1503,5.2144,5.2343,5.231,5.2144,5.2343,5.2409,5.2409,5.2445,5.2499,5.2605,5.2972,5.323,5.3348,5.3467,5.3501,5.3501,5.3501,5.3501,5.3501,5.3501,5.3501,5.3501,5.3501,5.3501,5.3501,5.3501,5.3501,5.3501,5.3501,5.3501,5.3501,5.3501,5.3501,5.3501,5.3501,5.3501,5.3501,0.0,0.0,0.0,0.0,5.3331,5.2976,5.2367,5.1961,5.1234,4.9932,5.049,5.1014,5.12,5.1894,5.2655,5.3467,5.3501,5.3501,5.3501,5.3501,5.3501,5.3501,5.3501,5.3501,5.3518,5.4803,5.553,5.575,5.7036,5.7712,5.7881,5.7881,5.7881,5.7881,5.7881,5.7881,5.7881,5.7881,5.8545,5.948,5.9644,6.0485,6.1505,4.2776,4.309,4.329,4.329,4.329,4.3409,4.3771,4.3512,4.3799,4.5253,4.4469,4.461,4.6862,4.5996,4.5889,4.7415,4.7138,4.6889,4.6928,4.7675,4.7802,4.7054,4.8207,4.8513,4.7828,4.7879,4.78,4.7488,4.7901,4.8232,4.8505,4.9552,5.0469,5.1228,5.1528,5.1944,5.2409,5.2409,5.2409,5.2409,5.2409,5.2409,0.0,5.2409,5.2535,5.2764,5.2972,5.3195,5.3382,5.3467,5.3501,5.3501,5.3501,5.3501,5.3501,5.3501,5.3501,5.3501,5.3501,5.3501,5.3501,5.3501,5.3501,5.3501,5.3501,5.3501,5.3501,5.3501,5.3501,5.3501,5.3501,5.3501,5.3501,0.0,0.0,0.0,5.3501,5.3501,5.3331,5.2892,5.2824,5.2367,5.1183,5.115,5.1352,5.1674,5.208,5.2655,5.3467,5.3501,5.3501,5.3501,5.3501,5.3501,5.3501,5.3501,5.3501,5.3518,5.4685,5.5395,5.575,5.6884,5.7594,5.7881,5.7881,5.7881,5.7881,5.7881,5.8082,5.8369,5.8702,5.948,6.0454,6.0454,6.1093,6.1996,4.329,4.329,4.329,4.329,4.329,4.3621,4.4481,4.3946,4.4182,4.6272,4.5306,4.5253,4.7362,4.6911,4.713,4.8732,4.8859,4.8932,4.9099,4.9739,4.9848,4.915,4.9801,4.9886,4.9276,4.8466,4.7728,4.7111,4.7189,4.7516,4.8052,4.9664,5.0725,5.1306,5.2069,5.2409,5.2409,5.2409,5.2409,5.2409,5.2409,5.2409,5.2409,5.2409,5.257,5.2868,5.2868,5.3041,5.3264,5.3433,5.3501,5.3501,5.3501,5.3501,5.3501,5.3501,5.3501,5.3501,5.3501,5.3501,5.3501,5.3501,5.3501,5.3501,5.3501,5.3501,5.3501,5.3501,5.3501,5.3501,5.3501,5.3501,5.3501,5.3501,5.3501,5.3501,5.3501,5.3501,5.3501,5.3501,5.3501,0.0,5.2536,5.1894,5.1725,5.2266,5.2401,5.2756,5.3467,5.3501,5.3501,5.3501,5.3501,5.3501,5.3501,5.3501,5.3501,5.3518,5.4346,5.5091,5.5715,5.6562,5.7289,5.7881,5.7881,5.7881,5.7935,5.7974,5.8423,5.9129,5.987,6.0498,6.1045,6.1145,6.1544,6.2051,4.329,4.329,4.329,4.329,4.329,4.3771,4.511,4.4628,4.4529,4.5588,4.5359,4.5736,4.7352,4.6807,4.6951,4.8509,4.8637,4.8943,4.9598,4.9808,4.9875,4.9835,4.9965,5.0033,5.0004,4.9273,4.8826,4.8694,4.9317,4.9676,4.9772,5.1281,5.2046,5.2178,5.2338,5.2409,5.2409,5.2409,5.2409,5.2409,5.2409,5.2409,5.2409,5.2409,5.2516,5.2659,5.2834,5.3127,5.3467,5.3501,5.3501,5.3501,5.3501,5.3501,5.3501,5.3501,5.3501,5.3501,5.3501,5.3501,5.3501,5.3501,5.3501,5.3501,5.3501,5.3501,5.3501,5.3501,5.3501,5.3501,5.3501,5.3501,5.3501,5.3501,5.3501,5.3501,5.3501,5.3501,5.3501,5.3501,5.3501,5.345,5.3315,5.3179,5.2892,5.2334,5.2909,5.3348,5.3501,5.3501,5.3501,5.3501,5.3501,5.3501,5.3501,5.3501,5.3501,5.3518,5.4871,5.5581,5.5767,5.7087,5.7763,5.7881,5.7881,5.7881,5.7954,5.8493,5.9129,5.9902,6.0663,6.1068,6.1261,6.1906,6.2238,6.2283,4.329,4.329,4.329,4.329,4.3574,4.4063,4.4764,4.5131,4.5772,4.7014,4.6397,4.6388,4.7896,4.774,4.7779,4.8543,4.9399,5.0073,5.0461,5.0897,5.118,5.1237,5.1257,5.1125,5.0783,5.0419,5.0055,4.9674,5.0402,5.0767,5.0783,5.1877,5.2409,5.2409,5.2409,5.2409,5.2409,5.2409,5.2409,5.2409,5.2409,5.2409,5.2409,5.2409,5.2551,5.2764,5.2868,5.3161,5.3501,5.3501,5.3501,5.3501,5.3501,5.3501,5.3501,5.3501,5.3501,5.3501,5.3501,5.3501,5.3501,5.3501,5.3501,5.3501,5.3501,5.3501,5.3501,5.3501,5.3501,5.3501,5.3501,5.3501,5.3501,5.3501,5.3501,5.3501,5.3501,5.3501,5.3501,5.3501,5.3501,5.3501,5.3501,5.3501,5.3348,5.2959,5.3281,5.3501,5.3501,5.3501,5.3501,5.3501,5.3501,5.3501,5.3501,5.3501,5.3501,5.3518,5.5006,5.5681,5.5732,5.7222,5.7881,5.7881,5.7881,5.8118,5.8476,5.9543,6.0233,6.0711,6.1422,6.175,6.186,6.2265,6.2441,6.2493,4.329,4.329,4.3334,4.3484,4.3932,4.4407,4.4691,4.5633,4.6739,4.8033,4.7204,4.6966,4.8194,4.849,4.8682,4.8846,5.0245,5.1194,5.1343,5.2017,5.2409,5.2409,5.2409,5.2144,5.1564,5.1398,5.1033,5.0436,5.1033,5.1232,5.11,5.1995,5.2409,5.2409,5.2409,5.2409,5.2409,5.2409,5.2409,5.2409,5.2409,5.2409,5.2409,5.2445,5.2605,5.2834,5.2938,5.3161,5.3433,5.3501,5.3501,5.3501,5.3501,5.3501,5.3501,5.3501,5.3501,5.3501,5.3501,5.3501,5.3501,5.3501,5.3501,5.3501,5.3501,5.3501,5.3501,5.3501,5.3501,5.3501,5.3501,5.3501,5.3501,5.3501,5.3501,5.3501,5.3501,5.3501,5.3501,5.3501,5.3501,5.3501,5.3501,5.3501,5.3501,5.3501,5.3501,5.3501,5.3501,5.3501,5.3501,5.3501,5.3501,5.3501,5.3501,5.3501,5.3501,5.3518,5.5006,5.5681,5.5732,5.7222,5.7881,5.7881,5.7881,5.8405,5.9279,6.0511,6.1203,6.1508,6.206,6.2344,6.2441,6.2467,6.2552,6.2629,4.329,4.329,4.3484,4.4122,4.4272,4.4721,4.5948,4.6204,4.6364,4.6518,4.6916,4.7278,4.7424,4.8145,4.8872,4.9607,5.0538,5.1434,5.223,5.2338,5.2409,5.2409,5.2409,5.2393,5.231,5.1647,5.1282,5.1216,5.1282,5.0949,5.0336,5.1728,5.2409,5.2409,5.2409,5.2409,5.2409,5.2409,5.2409,5.2409,5.2409,5.2409,5.2409,5.2535,5.2589,5.2659,5.3041,5.3195,5.3264,5.3433,5.3501,5.3501,5.3501,5.3501,5.3501,5.3501,5.3501,5.3501,5.3501,5.3501,5.3501,5.3501,5.3501,5.3501,5.3501,5.3501,5.3501,5.3501,5.3501,5.3501,5.3501,5.3501,5.3501,5.3501,5.3501,5.3501,5.3501,5.3501,5.3501,5.3501,5.3501,5.3501,5.3501,5.3501,5.3501,5.3501,5.3501,5.3501,5.3501,5.3501,5.3501,5.3501,5.3501,5.3501,5.3501,5.3501,5.3501,5.3518,5.5006,5.5681,5.5732,5.7222,5.7881,5.7881,5.7881,5.872,6.0121,6.0891,6.162,6.2318,6.25,6.2578,6.2603,6.2705,6.2755,6.278,4.3798,4.3888,4.4122,4.4781,4.5244,4.5693,4.6204,4.6651,4.7104,4.7608,4.7935,4.824,4.8749,4.9599,5.0033,4.9805,5.1065,5.1818,5.1619,5.2106,5.2409,5.2409,5.2409,5.2409,5.2409,5.2127,5.1978,5.1978,5.1978,5.1794,5.1529,5.2108,5.2409,5.2409,5.2409,5.2409,5.2409,5.2409,5.2409,5.2409,5.2409,5.2445,5.2535,5.257,5.2729,5.2972,5.3144,5.3264,5.3382,5.3467,5.3501,5.3501,5.3501,5.3501,5.3501,5.3501,5.3501,5.3501,5.3501,5.3501,5.3501,5.3501,5.3501,5.3501,5.3501,5.3501,5.3501,5.3501,5.3501,5.3501,5.3501,5.3501,5.3501,5.3501,5.3501,5.3501,5.3501,5.3501,5.3501,5.3501,5.3501,5.3501,5.3501,5.3501,5.3501,5.3501,5.3501,5.3501,5.3501,5.3501,5.3501,5.3501,5.3501,5.3501,5.3501,5.3865,5.4087,5.4177,5.5587,5.6286,5.641,5.7873,5.8755,5.9197,5.9611,6.017,6.0844,6.1508,6.2068,6.2526,6.2578,6.2654,6.273,6.278,6.278,6.278,4.4466,4.4601,4.4811,4.5484,4.6007,4.6396,4.6576,4.7194,4.7892,4.8532,4.905,4.9439,4.9765,5.0592,5.0859,5.0229,5.1529,5.2142,5.1508,5.2069,5.2409,5.2409,5.2409,5.2409,5.2409,5.2409,5.2409,5.2409,5.2409,5.231,5.2094,5.2094,5.221,5.2409,5.2409,5.2409,5.2409,5.2409,5.2409,5.2409,5.2409,5.248,5.2605,5.2659,5.2903,5.3213,5.3264,5.3382,5.3501,5.3501,5.3501,5.3501,5.3501,5.3501,5.3501,5.3501,5.3501,5.3501,5.3501,5.3501,5.3501,5.3501,5.3501,5.3501,5.3501,5.3501,5.3501,5.3501,5.3501,5.3501,5.3501,5.3501,5.3501,5.3501,5.3501,5.3501,5.3501,5.3501,5.3501,5.3501,5.3501,5.3501,5.3501,5.3501,5.3501,5.3501,5.3668,5.3701,5.3501,5.3501,5.3501,5.3501,5.3501,5.3584,5.375,5.4203,5.466,5.5156,5.6141,5.6897,5.7449,5.8666,5.9495,6.0048,6.0759,6.1145,6.13,6.2014,6.2449,6.2654,6.2654,6.2705,6.278,6.278,6.278,6.278,4.5155,4.5289,4.5499,4.6187,4.6279,4.6503,4.7189,4.8003,4.8573,4.8615,5.0033,5.0745,4.9884,5.0592,5.1081,5.1081,5.1908,5.239,5.2373,5.2373,5.2409,5.2409,5.2409,5.2409,5.2409,5.2409,5.2409,5.2409,5.2409,5.2045,5.1315,5.1315,5.1713,5.2409,5.2409,5.2409,5.2409,5.2409,5.2409,5.2409,5.2409,5.248,5.2624,5.2834,5.3007,5.323,5.3433,5.3501,5.3501,5.3501,5.3501,5.3501,5.3501,5.3501,5.3501,5.3501,5.3501,5.3501,5.3501,5.3501,5.3501,5.3501,5.3501,5.3501,5.3501,5.3501,5.3501,5.3501,5.3501,5.3501,5.3501,5.3501,5.3501,5.3501,5.3501,5.3501,5.3501,5.3501,5.3501,5.3501,5.3501,5.3501,5.3501,5.3501,5.3501,5.3501,5.4059,5.4139,5.3534,5.3501,5.3501,5.3501,5.3501,5.3783,5.4391,5.4391,5.5098,5.649,5.6562,5.7372,5.879,5.9615,5.9966,6.003,6.0861,6.1272,6.1443,6.2263,6.2679,6.2798,6.2798,6.278,6.278,6.278,6.278,6.278,4.5858,4.5992,4.6202,4.6875,4.7462,4.7928,4.8141,4.8872,4.9623,5.0245,5.0267,5.0576,5.1455,5.1818,5.198,5.198,5.225,5.2409,5.2409,5.2409,5.2409,5.2409,5.2409,5.2409,5.2409,5.2409,5.2409,5.2409,5.2409,5.2293,5.2061,5.2061,5.2213,5.2535,5.2445,5.2445,5.2535,5.2535,5.2535,5.2535,5.2676,5.285,5.3007,5.3076,5.323,5.3416,5.3467,5.3501,5.3501,5.3501,5.3501,5.3501,5.3501,5.3501,5.3501,5.3501,5.3501,5.3501,5.3501,5.3501,5.3501,5.3501,5.3501,5.3501,5.3501,5.3501,5.3501,5.3501,5.3501,5.3501,5.3501,5.3501,5.3501,5.3501,5.3832,5.3979,5.3568,5.3865,5.4106,5.4106,5.4106,5.4299,5.4738,5.4799,5.4614,5.4139,5.4281,5.4156,5.3534,5.3898,5.4106,5.4106,5.4106,5.4425,5.5087,5.5484,5.6253,5.7328,5.7756,5.8791,6.0308,6.0562,6.0945,6.1372,6.1712,6.196,6.2095,6.2456,6.2679,6.278,6.278,6.278,6.278,6.278,6.278,6.278,4.6561,4.6921,4.7295,4.7704,4.849,4.9035,4.9035,4.9463,5.0017,5.0538,5.0422,5.0576,5.1327,5.2017,5.2409,5.2409,5.2409,5.2409,5.2409,5.2409,5.2409,5.2409,5.2409,5.2409,5.2409,5.2409,5.2409,5.2409,5.2409,5.2409,5.2409,5.2409,5.2445,5.2535,5.2499,5.2535,5.2589,5.2659,5.2694,5.2729,5.2834,5.3007,5.3179,5.3179,5.3332,5.3501,5.3501,5.3501,5.3501,5.3501,5.3501,5.3501,5.3501,5.3501,5.3501,5.3501,5.3501,5.3501,5.3501,5.3501,5.3501,5.3501,5.3501,5.3501,5.3501,5.3501,5.3501,5.3501,5.3501,5.3501,5.3501,5.3501,5.3501,5.3501,5.3816,5.4011,5.3865,5.4171,5.4485,5.4734,5.4765,5.4948,5.5355,5.5385,5.5236,5.4795,5.4991,5.4857,5.4237,5.4141,5.4171,5.4391,5.4391,5.4826,5.5733,5.6403,5.7326,5.8419,5.9398,6.0261,6.1016,6.1257,6.1608,6.2023,6.2222,6.2336,6.2415,6.2603,6.273,6.278,6.278,6.278,6.278,6.278,6.278,6.278,4.7261,4.8061,4.8615,4.8615,4.9303,4.9884,4.9884,4.9884,4.9884,4.9884,5.0538,5.0707,4.9962,5.1327,5.2338,5.2373,5.2409,5.2409,5.2409,5.2409,5.2409,5.2409,5.2409,5.2409,5.2409,5.2409,5.2409,5.2409,5.2409,5.2409,5.2409,5.2409,5.2409,5.2409,5.2535,5.2605,5.2624,5.2834,5.2903,5.2903,5.2955,5.3041,5.3213,5.3213,5.3348,5.3501,5.3501,5.3501,5.3501,5.3501,5.3501,5.3501,5.3501,5.3501,5.3501,5.3501,5.3501,5.3501,5.3501,5.3501,5.3501,5.3501,5.3501,5.3501,5.3501,5.3501,5.3501,5.3501,5.3501,5.3501,5.3501,5.3501,5.3501,5.3501,5.3534,5.375,5.4249,5.4422,5.4703,5.5325,5.5443,5.5473,5.5531,5.5531,5.5502,5.549,5.5932,5.5989,5.5414,5.4237,5.3865,5.4516,5.4548,5.5129,5.641,5.7197,5.8277,5.9705,6.1254,6.1664,6.1104,6.172,6.2005,6.2051,6.2283,6.2415,6.2441,6.2679,6.278,6.278,6.278,6.278,6.278,6.278,6.278,6.278,4.8141,4.8449,4.8615,4.8615,4.9797,5.0783,5.0783,5.0783,5.0783,5.0783,5.0384,5.029,5.0745,5.1156,5.1672,5.2338,5.2409,5.2409,5.2409,5.2409,5.2409,5.2409,5.2409,5.2409,5.2409,5.2409,5.2409,5.2409,5.2409,5.2409,5.2409,5.2409,5.2445,5.257,5.2605,5.2711,5.2834,5.3041,5.311,5.3144,5.3314,5.3399,5.3416,5.3416,5.3467,5.3501,5.3501,5.3501,5.3501,5.3501,5.3501,5.3501,5.3501,5.3501,5.3501,5.3501,5.3501,5.3501,5.3501,5.3501,5.3501,5.3501,5.3501,5.3501,5.3501,5.3501,5.3501,5.3501,5.3501,5.3501,5.3501,5.3501,5.3501,5.3501,5.3898,5.4091,5.375,5.4551,5.5189,5.5302,5.5773,5.6284,5.6714,5.6767,5.6582,5.6101,5.5791,5.556,5.5414,5.4627,5.4703,5.5801,5.5858,5.6524,5.7887,5.8093,5.8977,6.0538,6.1507,6.1923,6.1748,6.2042,6.215,6.2177,6.2423,6.2552,6.2578,6.273,6.278,6.278,6.278,6.278,6.278,6.278,6.278,6.278,4.8407,4.8887,4.9278,4.9678,5.0838,5.1709,5.1709,5.1027,5.0669,5.1043,5.0345,4.9962,5.0461,5.1231,5.1709,5.1782,5.2178,5.2409,5.2409,5.2409,5.2409,5.2409,5.2409,5.2409,5.2409,5.2409,5.2409,5.2409,5.2409,5.2409,5.2409,5.2409,5.2445,5.2499,5.2659,5.2799,5.2903,5.3195,5.3348,5.3348,5.3467,5.3501,5.3501,5.3501,5.3501,5.3501,5.3501,5.3501,5.3501,5.3501,5.3501,5.3501,5.3501,5.3501,5.3501,5.3501,5.3501,5.3501,5.3501,5.3501,5.3501,5.3501,5.3501,5.3501,5.3501,5.3501,5.3501,5.3501,5.3501,5.3501,5.3501,5.3501,5.3501,5.3501,5.3783,5.3979,5.3913,5.4769,5.5502,5.5727,5.6303,5.6837,5.7163,5.7188,5.7061,5.6732,5.642,5.6211,5.6211,5.5897,5.5869,5.6284,5.6311,5.6976,5.8402,5.9126,6.0122,6.1344,6.1779,6.2033,6.2087,6.2177,6.223,6.231,6.25,6.2603,6.2629,6.273,6.278,6.278,6.278,6.278,6.278,6.278,6.278,6.278,4.8599,4.9423,5.0213,5.0951,5.1818,5.2409,5.2409,5.1011,5.0252,5.0989,5.0461,5.0017,5.0017,5.1455,5.2106,5.1359,5.198,5.2409,5.2409,5.2409,5.2409,5.2409,5.2409,5.2409,5.2409,5.2409,5.2409,5.2409,5.2409,5.2409,5.2409,5.2409,5.2409,5.2409,5.2746,5.2903,5.2938,5.3314,5.3501,5.3501,5.3501,5.3501,5.3501,5.3501,5.3501,5.3501,5.3501,5.3501,5.3501,5.3501,5.3501,5.3501,5.3501,5.3501,5.3501,5.3501,5.3501,5.3501,5.3501,5.3501,5.3501,5.3501,5.3501,5.3501,5.3501,5.3501,5.3501,5.3501,5.3501,5.3501,5.3501,5.3584,5.3618,5.3501,5.3584,5.3783,5.4186,5.4918,5.5589,5.6118,5.6785,5.7188,5.7188,5.7188,5.7188,5.7188,5.7112,5.7112,5.7206,5.7112,5.6917,5.6626,5.6626,5.7316,5.8764,6.0249,6.1308,6.1996,6.1996,6.206,6.2177,6.2203,6.2283,6.2415,6.2552,6.2629,6.2654,6.2755,6.278,6.278,6.278,6.278,6.278,6.278,6.278,6.2817,4.9463,5.0306,5.0951,5.1081,5.1818,5.2409,5.2409,5.1545,5.0951,5.1081,5.0989,5.0914,5.0914,5.1782,5.2338,5.2214,5.2338,5.2409,5.2409,5.2409,5.2409,5.2409,5.2409,5.2409,5.2409,5.2409,5.2409,5.2409,5.2409,5.2409,5.2409,5.2409,5.2409,5.2409,5.2746,5.2903,5.2938,5.3314,5.3501,5.3501,5.3501,5.3501,5.3501,5.3501,5.3501,5.3501,5.3501,5.3501,5.3501,5.3501,5.3501,5.3501,5.3501,5.3501,5.3501,5.3501,5.3501,5.3501,5.3501,5.3501,5.3501,5.3501,5.3501,5.3501,5.3501,5.3501,5.3501,5.3501,5.3501,5.3501,5.3501,5.3913,5.4074,5.3584,5.3913,5.4124,5.3701,5.461,5.5361,5.5531,5.651,5.7188,5.7188,5.7188,5.7188,5.7188,5.6732,5.6679,5.7163,5.6732,5.6958,5.8055,5.8073,5.8849,6.043,6.1344,6.1869,6.1996,6.1996,6.2023,6.2033,6.2275,6.2389,6.2415,6.2654,6.2755,6.2755,6.278,6.278,6.278,6.278,6.278,6.278,6.278,6.278,6.2915,5.0345,5.0821,5.1231,5.1709,5.2142,5.2409,5.2409,5.1672,5.1268,5.1745,5.1397,5.1268,5.1745,5.2142,5.2409,5.2409,5.2409,5.2409,5.2409,5.2409,5.2409,5.2409,5.2409,5.2409,5.2409,5.2409,5.2409,5.2409,5.2409,5.2409,5.2409,5.2409,5.2409,5.2409,5.2746,5.2903,5.2938,5.3314,5.3501,5.3501,5.3501,5.3501,5.3501,5.3501,5.3501,5.3501,5.3501,5.3501,5.3501,5.3501,5.3501,5.3501,5.3501,5.3501,5.3501,5.3501,5.3501,5.3501,5.3501,5.3501,5.3501,5.3501,5.3501,5.3501,5.3501,5.3501,5.3501,5.3501,5.3501,5.3501,5.3501,5.3994,5.4313,5.4027,5.4502,5.4844,5.4568,5.5278,5.5858,5.5876,5.6661,5.7188,5.7188,5.7188,5.7188,5.7188,5.6941,5.6915,5.7206,5.6959,5.7293,5.8383,5.9253,6.0068,6.0783,6.158,6.1996,6.1996,6.2087,6.2141,6.2222,6.2415,6.257,6.2622,6.2748,6.278,6.278,6.278,6.278,6.278,6.278,6.3099,6.3503,6.3503,6.3778,6.4218,5.0951,5.1268,5.1619,5.2302,5.2409,5.2409,5.2409,5.1818,5.1635,5.2302,5.1835,5.1672,5.2338,5.2409,5.2409,5.2409,5.2409,5.2409,5.2409,5.2409,5.2409,5.2409,5.2409,5.2409,5.2409,5.2409,5.2409,5.2409,5.2409,5.2409,5.2409,5.2409,5.2409,5.2409,5.2746,5.2903,5.2938,5.3314,5.3501,5.3501,5.3501,5.3501,5.3501,5.3501,5.3501,5.3501,5.3501,5.3501,5.3501,5.3501,5.3501,5.3501,5.3501,5.3501,5.3501,5.3501,5.3501,5.3501,5.3501,5.3501,5.3501,5.3501,5.3501,5.3501,5.3501,5.3501,5.3501,5.3501,5.3501,5.3501,5.3501,5.4124,5.4579,5.4422,5.5069,5.556,5.5414,5.5904,5.6311,5.6311,5.6837,5.7188,5.7188,5.7188,5.7188,5.7188,5.7188,5.7188,5.7188,5.7369,5.7931,5.8927,6.0176,6.0874,6.1073,6.167,6.2023,6.2033,6.215,6.2283,6.2415,6.2526,6.2654,6.2755,6.2798,6.278,6.278,6.278,6.278,6.2817,6.3025,6.3503,6.4108,6.431,6.4769,6.5338,5.1081,5.1745,5.2338,5.239,5.2409,5.2409,5.2409,5.2338,5.2338,5.2373,5.2338,5.2338,5.2373,5.2409,5.2409,5.2409,5.2409,5.2409,5.2409,5.2409,5.2409,5.2409,5.2409,5.2409,5.2409,5.2409,5.2409,5.2409,5.2409,5.2409,5.2409,5.2409,5.2409,5.2409,5.2746,5.2903,5.2938,5.3314,5.3501,5.3501,5.3501,5.3501,5.3501,5.3501,5.3501,5.3501,5.3501,5.3501,5.3501,5.3501,5.3501,5.3501,5.3501,5.3501,5.3501,5.3501,5.3501,5.3501,5.3501,5.3501,5.3501,5.3501,5.3501,5.3501,5.3501,5.3501,5.3501,5.3501,5.3501,5.3501,5.3501,5.4506,5.5117,5.4516,5.5437,5.6035,5.5473,5.5904,5.6311,5.6311,5.6837,5.7188,5.7188,5.7188,5.7188,5.7188,5.7188,5.7188,5.7188,5.7913,5.9017,6.0575,6.0756,6.1145,6.1887,6.196,6.206,6.2177,6.2203,6.2283,6.2415,6.2526,6.2603,6.2629,6.2755,6.278,6.278,6.278,6.278,6.2897,6.3686,6.4035,6.4182,6.4952,6.5264,6.5411,5.1908,5.2178,5.2409,5.2409,5.2409,5.2409,5.2409,5.2409,5.2409,5.2409,5.2409,5.2409,5.2409,5.2409,5.2409,5.2409,5.2409,5.2409,5.2409,5.2409,5.2409,5.2409,5.2409,5.2409,5.2409,5.2409,5.2445,5.2535,5.2445,5.2445,5.2535,5.2445,5.2445,5.2535,5.2781,5.2972,5.311,5.3382,5.3501,5.3501,5.3501,5.3771,5.4177,5.4177,5.4465,5.4871,5.4871,5.4871,5.4871,5.4871,5.4871,5.4871,5.4871,5.4549,5.4093,5.3636,5.3501,5.3501,5.3501,5.3501,5.3501,5.3501,5.3501,5.3501,5.3501,5.3501,5.3501,5.3501,5.3501,5.3618,5.4011,5.4782,5.5443,5.5572,5.6294,5.6785,5.6555,5.6714,5.6863,5.6863,5.7061,5.7188,5.7188,5.7188,5.7188,5.7188,5.7188,5.7424,5.7913,5.918,6.0176,6.0792,6.1272,6.167,6.1996,6.2087,6.215,6.2203,6.237,6.2475,6.2526,6.2654,6.273,6.273,6.2798,6.278,6.278,6.278,6.3135,6.3631,6.3961,6.4695,6.5632,6.5925,6.6366,6.6824,5.2409,5.2409,5.2409,5.2409,5.2409,5.2409,5.2409,5.2409,5.2409,5.2409,5.2409,5.2409,5.2409,5.2409,5.2409,5.2409,5.2409,5.2409,5.2409,5.2409,5.2409,5.2409,5.2409,5.2409,5.2409,5.2409,5.248,5.2589,5.2499,5.2535,5.2694,5.2605,5.2605,5.2694,5.2903,5.3076,5.323,5.367,5.3856,5.3873,5.411,5.4499,5.4955,5.4955,5.526,5.5681,5.5681,5.5681,5.5681,5.5681,5.5681,5.5681,5.5681,5.5361,5.4803,5.4059,5.3856,5.3788,5.3568,5.3501,5.3501,5.3501,5.3501,5.3501,5.3501,5.3501,5.3501,5.3501,5.3501,5.3618,5.4027,5.4813,5.5531,5.5932,5.6688,5.7188,5.7188,5.7188,5.7188,5.7188,5.7188,5.7188,5.7188,5.7188,5.7188,5.7188,5.7424,5.8039,5.9108,6.0212,6.0937,6.119,6.1743,6.206,6.206,6.215,6.2238,6.2318,6.2526,6.2629,6.2654,6.2755,6.278,6.278,6.278,6.297,6.3209,6.3209,6.3704,6.4494,6.4751,6.5521,6.6531,6.6769,6.7228,6.7687,5.2409,5.2409,5.2409,5.2409,5.2409,5.2409,5.2409,5.2409,5.2409,5.2409,5.2409,5.2409,5.2409,5.2409,5.2409,5.2409,5.2409,5.2409,5.2409,5.2409,5.2409,5.2409,5.2409,5.2409,5.2409,5.2409,5.248,5.2589,5.2589,5.2694,5.2903,5.2903,5.2903,5.2903,5.311,5.3179,5.328,5.4193,5.4583,5.4668,5.5412,5.5681,5.5733,5.5733,5.5698,5.5733,5.5733,5.5733,5.5733,5.5733,5.5733,5.5733,5.5698,5.5733,5.5581,5.482,5.4583,5.4431,5.3704,5.3501,5.3501,5.3501,5.3501,5.3501,5.3501,5.3501,5.3501,5.3501,5.3501,5.3501,5.3501,5.4537,5.5385,5.5402,5.6402,5.7188,5.7188,5.7188,5.7188,5.7188,5.7188,5.7188,5.7188,5.7188,5.7188,5.7188,5.7949,5.9108,6.0738,6.0828,6.119,6.1987,6.2123,6.2203,6.2203,6.2203,6.2344,6.2603,6.2603,6.2679,6.278,6.278,6.278,6.278,6.2798,6.3301,6.409,6.409,6.4585,6.5393,6.62,6.6494,6.6604,6.7393,6.7687,6.7687,5.2409,5.2409,5.2409,5.2409,5.2409,5.2409,5.2409,5.2409,5.2409,5.2409,5.2409,5.2409,5.2409,5.2409,5.2409,5.2409,5.2409,5.2409,5.2409,5.2409,5.2409,5.2409,5.2409,5.2409,5.2409,5.2499,5.264,5.2799,5.2799,5.2903,5.311,5.2972,5.2972,5.311,5.3179,5.3584,5.4193,5.4499,5.4905,5.5395,5.5632,5.6021,5.6478,5.6478,5.6799,5.7239,5.7239,5.7239,5.7239,5.7239,5.7239,5.7154,5.6647,5.6478,5.6342,5.5598,5.5006,5.4532,5.4329,5.389,5.3501,5.3501,5.3501,5.3501,5.3501,5.3501,5.3501,5.3501,5.3501,5.3651,5.4059,5.4813,5.5531,5.5961,5.6688,5.7188,5.7188,5.7188,5.7188,5.7188,5.7188,5.7188,5.7188,5.7188,5.7188,5.7188,5.8474,5.9758,6.0897,6.1496,6.194,6.2283,6.231,6.2389,6.2475,6.2475,6.2526,6.2603,6.2705,6.2755,6.278,6.278,6.278,6.2817,6.3447,6.3851,6.4127,6.4714,6.543,6.6164,6.6402,6.6843,6.7357,6.7595,6.7687,6.7687,5.2409,5.2409,5.2409,5.2409,5.2409,5.2409,5.2409,5.2409,5.2409,5.2409,5.2409,5.2409,5.2409,5.2409,5.2409,5.2409,5.2409,5.2409,5.2409,5.2409,5.2409,5.2409,5.2409,5.2409,5.2409,5.2535,5.2694,5.2903,5.2972,5.311,5.3314,5.3195,5.3195,5.3314,5.3601,5.4058,5.4634,5.5209,5.5733,5.6173,5.6461,5.685,5.7239,5.7239,5.7509,5.7881,5.7881,5.7881,5.7881,5.7881,5.7881,5.7814,5.7374,5.7239,5.7087,5.6359,5.5818,5.5412,5.5108,5.4499,5.394,5.394,5.3721,5.3501,5.3501,5.3501,5.3501,5.3501,5.3501,5.3668,5.4281,5.4948,5.5589,5.6201,5.6811,5.7188,5.7188,5.7188,5.7188,5.7188,5.7188,5.7188,5.7188,5.7188,5.746,5.8094,5.9361,6.0483,6.1422,6.1931,6.2257,6.2389,6.2467,6.25,6.2603,6.2654,6.2679,6.2679,6.2755,6.278,6.278,6.278,6.3007,6.3337,6.387,6.4457,6.5081,6.5576,6.6256,6.6971,6.6971,6.7265,6.7687,6.7687,6.7687,6.7687,5.2409,5.2409,5.2409,5.2409,5.2409,5.2409,5.2409,5.2409,5.2409,5.2409,5.2409,5.2409,5.2409,5.2409,5.2409,5.2409,5.2409,5.2409,5.2409,5.2409,5.2409,5.2409,5.2409,5.2426,5.2409,5.257,5.2711,5.2903,5.311,5.3298,5.3501,5.3501,5.3551,5.3636,5.4296,5.4668,5.4871,5.6224,5.685,5.6968,5.7628,5.7881,5.7881,5.7881,5.7881,5.7881,5.7881,5.7881,5.7881,5.7881,5.7881,5.7881,5.7881,5.7881,5.7763,5.7103,5.685,5.6664,5.5987,5.526,5.4685,5.4685,5.4194,5.367,5.3534,5.3501,5.3501,5.3501,5.3501,5.3668,5.4281,5.4948,5.5589,5.6201,5.6811,5.7188,5.7188,5.7188,5.7188,5.7188,5.7188,5.7224,5.7297,5.7369,5.8058,5.9597,6.0394,6.1235,6.2167,6.223,6.231,6.2441,6.2552,6.2629,6.2629,6.273,6.278,6.278,6.278,6.278,6.278,6.2897,6.3356,6.409,6.4237,6.5136,6.6512,6.6586,6.7026,6.7687,6.7687,6.7687,6.7687,6.7687,6.7687,6.7687,5.2409,5.2409,5.2409,5.2409,5.2409,5.2409,5.2409,5.2409,5.2409,5.2409,5.2409,5.2409,5.2409,5.2409,5.2409,5.2409,5.2409,5.2409,5.2409,5.2409,5.2409,5.2409,5.2409,5.2445,5.257,5.2729,5.2868,5.2903,5.328,5.3467,5.3501,5.3501,5.3805,5.4363,5.4515,5.5226,5.6342,5.6664,5.712,5.7679,5.7831,5.7881,5.7881,5.7881,5.7881,5.7881,5.7881,5.7881,5.7881,5.7881,5.7881,5.7881,5.7881,5.7881,5.7865,5.7695,5.7256,5.6765,5.6613,5.6038,5.548,5.548,5.5344,5.4938,5.3771,5.3501,5.3501,5.3501,5.3501,5.3668,5.4281,5.4948,5.5589,5.6201,5.6811,5.7188,5.7188,5.7188,5.7188,5.7188,5.7188,5.7442,5.8076,5.8709,5.9488,6.0484,6.0808,6.1376,6.2326,6.2449,6.2578,6.2723,6.273,6.2755,6.2755,6.2798,6.278,6.278,6.278,6.278,6.2817,6.3503,6.3906,6.4163,6.543,6.6182,6.6549,6.7173,6.7522,6.7687,6.7687,6.7687,6.7687,6.7687,6.7687,6.7687,5.2409,5.2409,5.2409,5.2409,5.2409,5.2409,5.2409,5.2409,5.2409,5.2409,5.2409,5.2409,5.2409,5.2409,5.2409,5.2409,5.2409,5.2409,5.2409,5.2409,5.2409,5.2409,5.2409,5.248,5.2605,5.2799,5.2938,5.3041,5.3348,5.3501,5.3501,5.3501,5.389,5.4617,5.4972,5.575,5.6816,5.7171,5.7543,5.7881,5.7881,5.7881,5.7881,5.7881,5.7881,5.7881,5.7881,5.7881,5.7881,5.7881,5.7881,5.7881,5.7881,5.7881,5.7881,5.7881,5.7628,5.7323,5.7323,5.6799,5.6241,5.6241,5.597,5.5513,5.4735,5.4566,5.4465,5.4093,5.4313,5.4703,5.531,5.5999,5.6676,5.7209,5.7588,5.7641,5.7243,5.7532,5.7768,5.7768,5.8112,5.851,5.8927,5.9705,6.0357,6.0774,6.1208,6.1741,6.237,6.2467,6.2603,6.278,6.278,6.278,6.278,6.278,6.278,6.278,6.278,6.3025,6.3447,6.3888,6.4512,6.5283,6.6127,6.6714,6.71,6.7522,6.7687,6.7687,6.7687,6.7687,6.7687,6.7687,6.7687,6.7687,5.2409,5.2409,5.2409,5.2409,5.2409,5.2409,5.2409,5.2409,5.2409,5.2409,5.2409,5.2409,5.2409,5.2409,5.2409,5.2409,5.2409,5.2409,5.2409,5.2409,5.2409,5.2445,5.2445,5.2499,5.2694,5.2868,5.3041,5.3179,5.3382,5.3501,5.3501,5.3501,5.3957,5.4803,5.5446,5.619,5.7019,5.7628,5.7881,5.7881,5.7881,5.7881,5.7881,5.7881,5.7881,5.7881,5.7881,5.7881,5.7881,5.7881,5.7881,5.7881,5.7881,5.7881,5.7881,5.7881,5.7881,5.7881,5.7881,5.7442,5.6985,5.6985,5.6528,5.6089,5.6089,5.5902,5.5565,5.506,5.5467,5.6064,5.6746,5.7409,5.8042,5.8535,5.8619,5.8365,5.7695,5.8184,5.8619,5.8619,5.9325,5.9814,5.9814,6.0538,6.1,6.1,6.167,6.2168,6.2389,6.2441,6.257,6.278,6.278,6.278,6.278,6.278,6.2879,6.3025,6.3025,6.3392,6.409,6.4365,6.5228,6.6512,6.6641,6.7063,6.7687,6.7687,6.7687,6.7687,6.7687,6.7687,6.7687,6.7687,6.7687,6.7687,5.2409,5.2409,5.2409,5.2409,5.2409,5.2409,5.2409,5.2409,5.2409,5.2409,5.2409,5.2409,5.2409,5.2409,5.2409,5.2409,5.2409,5.2409,5.2409,5.2409,5.2445,5.257,5.2553,5.2729,5.311,5.3144,5.3179,5.3179,5.3382,5.3501,5.3501,5.3501,5.4245,5.5581,5.5683,5.6478,5.7746,5.7848,5.7881,5.7881,5.7881,5.7881,5.7881,5.7881,5.7881,5.7881,5.7881,5.7881,5.7881,5.7881,5.7881,5.7881,5.7881,5.7881,5.7881,5.7881,5.7881,5.7881,5.7881,5.7814,5.7746,5.7746,5.7679,5.7594,5.7594,5.663,5.584,5.6299,5.6484,5.6926,5.8172,5.8474,5.8772,5.9347,5.9452,5.9416,5.9289,5.9379,5.9452,5.9452,6.0158,6.0647,6.0647,6.1362,6.1833,6.1833,6.2149,6.2362,6.2389,6.2622,6.2755,6.278,6.278,6.278,6.278,6.278,6.3191,6.3906,6.3906,6.398,6.4145,6.554,6.6292,6.6531,6.7228,6.7595,6.7687,6.7687,6.7687,6.7687,6.7687,6.7687,6.7687,6.7687,6.7687,6.7687,5.2409,5.2409,5.2409,5.2409,5.2409,5.2409,5.2409,5.2409,5.2409,5.2409,5.2409,5.2409,5.2409,5.2409,5.2409,5.2409,5.2409,5.2409,5.2409,5.248,5.2535,5.2605,5.2694,5.2903,5.3179,5.3179,5.3264,5.3382,5.3467,5.3501,5.3518,5.3923,5.4685,5.5733,5.6139,5.69,5.7881,5.7881,5.7881,5.7881,5.7881,5.7881,5.7881,5.7881,5.7881,5.7881,5.7881,5.7881,5.7881,5.7881,5.7881,5.7881,5.7881,5.7881,5.7881,5.7881,5.7881,5.7881,5.7881,5.7881,5.7881,5.7881,5.7881,5.7881,5.7881,5.7679,5.7467,5.7325,5.7616,5.8233,5.9188,5.9724,6.0057,6.0232,6.0285,6.0122,5.9669,5.9995,6.0448,6.0874,6.1236,6.1453,6.1453,6.1779,6.1996,6.1996,6.2195,6.231,6.2389,6.2578,6.273,6.2798,6.278,6.278,6.278,6.278,6.3246,6.409,6.4549,6.5007,6.5448,6.6182,6.6751,6.7173,6.754,6.7687,6.7687,6.7687,6.7687,6.7687,6.7687,6.7687,6.7687,6.7687,6.7687,6.7687]}]]